[[[{"header":{"parameterUnit":"kt","parameterCategory":2,"dx":1,"dy":1,"la1":29.587661999999998,"la2":31.0,"lo1":-88.76705300000003,"lo2":-86.6583820000003,"nx":115,"ny":88,"refTime":"2022-10-01T06:00:00:Z","depth":0,"parameterNumber":1,"parameterNumberName":"U-component_of_WINDS"},"data":[11.9933,11.9933,11.9933,11.9895,11.9857,11.9857,11.9663,11.9402,11.9318,11.9092,11.8597,11.8485,11.841,11.8186,11.8186,11.8186,11.8186,11.8186,11.8186,11.8186,11.8186,11.8186,11.8186,11.8186,11.8186,11.8186,11.8186,11.8186,11.8186,11.8186,11.8186,11.8186,11.8186,11.8186,11.8186,11.8186,11.8186,11.8186,11.8186,11.8186,11.8186,11.8186,11.8186,11.8186,11.8186,11.8186,11.8186,11.8186,11.8186,11.8186,11.8186,11.8186,11.8186,11.8186,11.7599,11.7067,11.615,11.4972,11.3085,11.13,10.9986,10.9119,10.7816,10.6271,10.6047,10.5611,10.5027,10.4329,10.4138,10.3669,10.3588,10.3425,10.3425,10.3425,10.3425,10.3425,10.3425,10.3425,10.2986,10.2262,10.1728,10.13,10.0756,9.9314,9.7895,9.736,9.6646,9.5719,9.4827,9.4434,9.4113,9.4113,9.4149,9.3935,9.3935,9.3935,9.3935,9.3935,9.3935,9.3935,9.3935,9.3935,9.3971,9.3971,9.4795,9.5513,9.5945,9.5647,9.7371,9.8687,9.8751,9.9742,10.1998,10.3342,10.2986,11.9895,11.9933,11.9933,11.982,11.963,11.9592,11.9272,11.8801,11.8688,11.8523,11.8261,11.8224,11.8186,11.8186,11.8186,11.8186,11.8186,11.8186,11.8186,11.8186,11.8186,11.8186,11.8186,11.8186,11.8186,11.8186,11.8186,11.8186,11.8186,11.8186,11.8186,11.8186,11.8186,11.8186,11.8186,11.8186,11.8186,11.8186,11.8186,11.8186,11.8186,11.8186,11.8186,11.8186,11.8186,11.8186,11.8186,11.8186,11.8186,11.8186,11.8186,11.8103,11.8057,11.7954,11.7083,11.5562,11.4585,11.2681,11.0586,10.9216,10.8125,10.6961,10.5623,10.4895,10.473,10.4429,10.3919,10.3588,10.3588,10.3425,10.3425,10.3425,10.3425,10.3425,10.3425,10.3425,10.3425,10.3389,10.2369,10.129,10.0756,10.0232,9.9207,9.7681,9.6718,9.6254,9.554,9.4613,9.3971,9.3935,9.3935,9.3935,9.3935,9.3935,9.3935,9.3935,9.3935,9.3935,9.3935,9.3935,9.3935,9.3935,9.3935,9.4006,9.4078,9.4581,9.4973,9.5477,9.7116,9.8716,9.927,10.0236,10.2191,10.2696,10.2539,11.9098,11.9857,11.9782,11.9668,11.9516,11.9414,11.9019,11.8616,11.8588,11.841,11.8224,11.8186,11.8186,11.8186,11.8186,11.8186,11.8186,11.8186,11.8186,11.8186,11.8186,11.8186,11.8186,11.8186,11.8186,11.8186,11.8186,11.8186,11.8186,11.8186,11.8186,11.8186,11.8186,11.8186,11.8186,11.8186,11.8186,11.8186,11.8186,11.8186,11.8186,11.8186,11.8186,11.8186,11.8186,11.8186,11.8186,11.8186,11.8186,11.8186,11.8186,11.8057,11.7593,11.7392,11.6038,11.4196,11.2527,11.1153,10.9093,10.761,10.6729,10.6213,10.513,10.4601,10.4394,10.3889,10.346,10.3425,10.3425,10.3425,10.3425,10.3425,10.3425,10.3425,10.3425,10.3246,10.3139,10.2558,10.1372,10.0196,9.9065,9.8537,9.761,9.6152,9.5398,9.497,9.4827,9.3971,9.3935,9.3935,9.3935,9.3935,9.3935,9.3935,9.3935,9.3935,9.3935,9.3935,9.3935,9.3935,9.3935,9.3935,9.3935,9.3935,9.4006,9.4149,9.4402,9.4831,9.633,9.8084,9.9288,10.0264,10.1274,10.2033,10.08,11.7387,11.8485,11.8343,11.8481,11.8745,11.8915,11.8792,11.8485,11.8485,11.8373,11.8224,11.8186,11.8186,11.8186,11.8186,11.8186,11.8186,11.8186,11.8186,11.8186,11.8186,11.8186,11.8186,11.8186,11.8186,11.8186,11.8186,11.8186,11.8186,11.8186,11.8186,11.8186,11.8186,11.8186,11.8186,11.8186,11.8186,11.8186,11.8186,11.8186,11.8186,11.8186,11.8186,11.8186,11.8186,11.8186,11.8186,11.8186,11.8186,11.8186,11.8186,11.7691,11.6793,11.6209,11.4512,11.2163,11.034,10.8718,10.7018,10.5792,10.525,10.4963,10.4715,10.4401,10.4187,10.3649,10.346,10.346,10.3425,10.3425,10.3425,10.3425,10.3425,10.3425,10.3425,10.3068,10.2747,10.1524,10.0277,9.8823,9.7299,9.6553,9.5834,9.4938,9.4149,9.3935,9.3935,9.3935,9.3935,9.3935,9.3935,9.3935,9.3935,9.3935,9.3935,9.3935,9.3935,9.3935,9.3935,9.3935,9.3935,9.3935,9.3935,9.3935,9.4006,9.4185,9.4473,9.4609,9.5396,9.7142,9.8293,9.8307,9.9216,9.9551,9.8381,11.4481,11.471,11.4557,11.5463,11.6622,11.7952,11.8336,11.8224,11.7924,11.8149,11.7962,11.8037,11.7887,11.7775,11.7812,11.785,11.8186,11.8186,11.8186,11.8186,11.8186,11.8186,11.8186,11.8186,11.8186,11.8186,11.8186,11.8186,11.8186,11.7887,11.7775,11.8186,11.8037,11.8074,11.8111,11.8186,11.8186,11.8186,11.8186,11.8186,11.8186,11.8186,11.8186,11.8186,11.8186,11.8186,11.8186,11.8186,11.8186,11.8186,11.8028,11.7608,11.6268,11.492,11.1556,10.9245,10.8085,10.6522,10.5059,10.4293,10.3958,10.3801,10.3552,10.366,10.3731,10.346,10.346,10.3425,10.3425,10.3425,10.3175,10.3104,10.289,10.2783,10.2354,10.1819,10.1284,10.0321,9.9037,9.7728,9.6338,9.5513,9.4831,9.4652,9.3935,9.3935,9.3935,9.3935,9.3935,9.3935,9.3935,9.3935,9.3935,9.3935,9.3935,9.3935,9.3935,9.3935,9.3935,9.3935,9.3935,9.3935,9.3935,9.3971,9.4006,9.422,9.4522,9.4233,9.4724,9.6142,9.6508,9.6456,9.6284,9.6295,9.5875,11.3134,11.4027,11.4069,11.4335,11.4902,11.6205,11.6167,11.5345,11.5232,11.527,11.5232,11.5345,11.5831,11.6496,11.6728,11.7139,11.7924,11.785,11.785,11.785,11.8186,11.8037,11.8111,11.8186,11.8111,11.8186,11.8186,11.8149,11.785,11.7476,11.7326,11.7775,11.6952,11.7364,11.7812,11.7999,11.8037,11.8074,11.8149,11.8186,11.8186,11.8186,11.8186,11.8186,11.8186,11.8186,11.8186,11.8186,11.784,11.7429,11.7377,11.6921,11.5771,11.358,11.0516,10.7363,10.6342,10.5083,10.391,10.3425,10.3425,10.3425,10.3425,10.3425,10.3425,10.3425,10.3425,10.3271,10.3389,10.3282,10.2997,10.2676,10.2319,10.1998,10.1213,10.0464,9.9679,9.8894,9.7758,9.6553,9.5548,9.4688,9.4256,9.4078,9.3935,9.3935,9.3935,9.3935,9.3935,9.3935,9.3935,9.3935,9.3935,9.3935,9.3935,9.3935,9.3935,9.3935,9.3935,9.3935,9.3935,9.3825,9.3674,9.3785,9.3821,9.4735,9.5344,9.4719,9.3324,9.4393,9.5014,9.4388,9.3888,9.4086,9.4697,11.1316,11.2368,11.2443,11.2663,11.2914,11.3326,11.3213,11.2802,11.3176,11.3288,11.3331,11.3326,11.4148,11.4964,11.5045,11.5718,11.6317,11.6803,11.684,11.6653,11.6279,11.6915,11.7214,11.7364,11.7812,11.7962,11.8186,11.8149,11.7737,11.6504,11.6504,11.6616,11.5457,11.613,11.6803,11.7438,11.7326,11.7401,11.7924,11.8074,11.8186,11.8186,11.8186,11.8186,11.8186,11.8186,11.8019,11.7925,11.748,11.6831,11.6622,11.5966,11.4958,11.2478,11.0272,10.6791,10.5316,10.4745,10.371,10.3425,10.3425,10.3425,10.3425,10.3425,10.3425,10.3425,10.3425,10.3093,10.2915,10.2451,10.2105,10.1284,10.0571,10.0321,10.0,9.9144,9.818,9.7396,9.6723,9.5584,9.4831,9.4113,9.4078,9.3935,9.3935,9.3935,9.3935,9.3935,9.3935,9.3935,9.3935,9.3935,9.3935,9.3935,9.3935,9.3935,9.3935,9.3935,9.3935,9.3935,9.3638,9.345,9.3373,9.3025,9.2427,9.3434,9.5085,9.3519,9.1162,9.2113,9.296,9.2196,9.1861,9.2886,9.3659,10.839,10.8428,10.8428,10.9512,11.0516,10.9624,10.9699,11.097,11.2503,11.3107,11.3117,11.292,11.3064,11.3326,11.34,11.3625,11.3961,11.3961,11.3999,11.3961,11.4372,11.4896,11.5457,11.5831,11.6317,11.7364,11.7663,11.7064,11.7737,11.6018,11.4485,11.3886,11.3513,11.4186,11.4896,11.5345,11.5501,11.6174,11.6885,11.7588,11.7775,11.7999,11.8186,11.8186,11.8186,11.8186,11.7973,11.7517,11.6998,11.6445,11.5875,11.5029,11.3377,11.1168,10.9451,10.744,10.491,10.421,10.3639,10.3496,10.346,10.3425,10.3425,10.3425,10.3353,10.3129,10.295,10.2701,10.1788,10.1407,10.0963,9.9893,9.8858,9.8644,9.8501,9.7645,9.6646,9.604,9.5362,9.4827,9.4185,9.3971,9.3935,9.3935,9.3935,9.3935,9.3935,9.3935,9.3935,9.3935,9.3935,9.3935,9.3825,9.3899,9.3935,9.3935,9.3935,9.3935,9.3935,9.3373,9.3182,9.299,9.2438,9.1822,9.1097,9.0987,9.1962,9.1163,8.9505,8.963,9.0503,9.0348,9.1634,9.2456,9.3508,10.8241,10.8241,10.8241,10.8652,10.8988,10.854,10.854,10.9138,10.9736,10.9998,11.0077,11.0115,11.0634,11.1488,11.1793,11.198,11.3288,11.3288,11.3288,11.3326,11.3288,11.3513,11.3886,11.4223,11.4709,11.4672,11.4971,11.512,11.5232,11.4485,11.3326,11.2167,11.1718,11.2092,11.2353,11.2877,11.3144,11.4416,11.5613,11.6578,11.6952,11.7476,11.8074,11.8186,11.8186,11.8186,11.7888,11.734,11.6564,11.5864,11.4849,11.3592,11.1709,10.9775,10.8066,10.6515,10.4721,10.4281,10.4281,10.421,10.3675,10.3532,10.3425,10.3425,10.3353,10.2512,10.2227,10.1575,10.0343,9.9866,9.9314,9.8038,9.7217,9.6825,9.6468,9.5612,9.4863,9.4898,9.4399,9.4363,9.3935,9.3935,9.3935,9.3935,9.3935,9.3935,9.3935,9.3935,9.3935,9.3935,9.3935,9.3825,9.3789,9.3536,9.3464,9.3393,9.3468,9.3864,9.3295,9.259,9.2356,9.1737,9.1238,9.0707,9.0746,9.0676,9.0185,8.9647,8.9172,8.8997,8.9194,9.0169,9.1371,9.2489,9.3574,10.8241,10.8241,10.8241,10.8241,10.8241,10.8241,10.8278,10.8241,10.8241,10.8278,10.8241,10.8241,10.9026,10.9582,11.0073,11.0447,11.1381,11.1606,11.1643,11.1494,11.1344,11.1867,11.2391,11.254,11.2877,11.3176,11.3363,11.3587,11.3176,11.2653,11.1718,11.0821,11.0372,10.9998,11.0035,11.0746,11.12,11.2509,11.3967,11.5195,11.5763,11.6653,11.7513,11.8186,11.8186,11.8186,11.8103,11.6831,11.6128,11.5553,11.418,11.2716,11.0757,11.0041,10.8067,10.5958,10.5149,10.478,10.503,10.503,10.4245,10.4067,10.3889,10.3425,10.32,10.2013,10.1336,10.0837,9.927,9.813,9.7674,9.6468,9.5754,9.5362,9.5077,9.422,9.3935,9.3935,9.3935,9.3935,9.3935,9.3935,9.3935,9.3935,9.3935,9.3935,9.3935,9.3935,9.3182,9.3182,9.3131,9.3096,9.2972,9.2778,9.2562,9.2033,9.2001,9.2089,9.1828,9.1547,9.1009,9.038,8.9917,8.96,9.017,9.059,8.9891,8.9295,8.8755,8.8711,8.905,8.9826,9.1569,9.2917,9.3804,10.8241,10.8241,10.8241,10.8241,10.8241,10.8241,10.8241,10.8241,10.8241,10.8241,10.8241,10.8241,10.839,10.8465,10.8689,10.8876,10.9063,10.8914,10.8876,10.9063,10.9288,10.9624,11.026,11.0858,11.1232,11.2765,11.2615,11.2279,11.2727,11.1381,11.0821,11.0073,10.925,10.8652,10.8502,10.9886,11.0638,11.0975,11.2428,11.3961,11.5045,11.5718,11.6952,11.7775,11.8186,11.8019,11.7618,11.6468,11.5577,11.4919,11.3556,11.1737,11.0081,10.9632,10.8233,10.5982,10.572,10.5708,10.5851,10.5851,10.5779,10.5708,10.4566,10.3735,10.3164,10.1906,10.0685,9.9615,9.7978,9.6544,9.5866,9.5077,9.4541,9.422,9.4256,9.3935,9.3935,9.3935,9.3935,9.3935,9.3935,9.3899,9.3899,9.3864,9.3828,9.3638,9.3825,9.3295,9.2274,9.1927,9.1759,9.1549,9.1241,9.1252,9.1314,9.0704,9.0449,9.036,9.0278,9.0264,8.9789,8.9092,8.8633,8.8366,8.8564,8.886,8.8766,8.8798,8.8909,8.8951,8.9201,9.0005,9.1864,9.3344,9.3969,10.8241,10.8241,10.8241,10.8241,10.8241,10.8241,10.8241,10.8241,10.8241,10.8241,10.8241,10.8241,10.8241,10.8241,10.8241,10.8241,10.8241,10.8241,10.8241,10.8241,10.8241,10.854,10.8876,10.9213,10.9549,10.9549,10.9774,10.9923,11.011,10.9325,10.9175,10.9026,10.854,10.8315,10.839,10.8802,10.8988,10.9404,11.0671,11.2353,11.4036,11.5045,11.6391,11.7887,11.8103,11.7888,11.709,11.6128,11.5169,11.4112,11.2537,11.0579,10.9137,10.7798,10.6707,10.61,10.5838,10.6315,10.7028,10.7349,10.7349,10.7135,10.5851,10.4351,10.3057,10.1018,9.9003,9.7972,9.612,9.4652,9.4541,9.4363,9.4006,9.3935,9.3935,9.3935,9.3935,9.3935,9.3935,9.3646,9.3792,9.3646,9.3539,9.3325,9.287,9.2003,9.2039,9.1617,9.1009,9.0665,9.0354,9.0,8.9646,8.9908,9.0085,8.9862,8.9601,8.9413,8.9198,8.9024,8.8633,8.782,8.7185,8.7364,8.7324,8.7094,8.7305,8.7689,8.8235,8.8925,8.9821,9.0341,9.1963,9.2917,9.3706,10.8241,10.8241,10.8241,10.8241,10.8241,10.8241,10.8241,10.8241,10.8241,10.8241,10.8241,10.8241,10.8241,10.8241,10.8241,10.8241,10.8241,10.8241,10.8241,10.8241,10.8241,10.8241,10.8241,10.8353,10.8241,10.839,10.8353,10.8278,10.8241,10.8465,10.8278,10.8241,10.8315,10.8241,10.8241,10.8353,10.839,10.8652,10.94,11.1157,11.284,11.4485,11.5868,11.7841,11.7973,11.734,11.6737,11.5577,11.4778,11.3725,11.1709,11.0453,10.9296,10.8541,10.7662,10.6947,10.7563,10.8098,10.8848,10.8955,10.8955,10.8562,10.6455,10.4505,10.342,9.9514,9.7057,9.5773,9.4256,9.3343,9.3343,9.3597,9.3749,9.386,9.3935,9.3935,9.3935,9.3935,9.3753,9.2962,9.2997,9.3059,9.2846,9.2562,9.1381,9.0389,9.0276,9.0069,8.9789,8.945,8.9003,8.8595,8.8312,8.8298,8.8297,8.8563,8.8764,8.8399,8.813,8.7923,8.7645,8.6854,8.6746,8.6746,8.6779,8.725,8.7404,8.7028,8.7126,8.7611,8.8766,9.032,9.1418,9.2292,9.3574,10.8241,10.8241,10.8241,10.8241,10.8241,10.8241,10.8241,10.8241,10.8241,10.8241,10.8241,10.8241,10.8241,10.8241,10.8241,10.8241,10.8241,10.8241,10.8241,10.8241,10.8241,10.8241,10.8241,10.8241,10.8241,10.8241,10.8241,10.8241,10.8241,10.8241,10.8241,10.8241,10.8241,10.8241,10.8241,10.8241,10.8241,10.8315,10.8465,11.0148,11.2129,11.3625,11.4933,11.7039,11.7228,11.6737,11.6622,11.5099,11.4093,11.3775,11.1286,10.9654,10.9791,10.9055,10.8626,10.8412,10.9148,10.9846,11.0417,11.056,11.0472,10.9191,10.7017,10.442,10.2526,9.7797,9.5363,9.4865,9.3088,9.2248,9.2555,9.2866,9.2911,9.2911,9.2716,9.2716,9.2716,9.2911,9.2785,9.2196,9.1893,9.1572,9.1337,9.0454,8.9324,8.9053,8.8896,8.8699,8.8433,8.8298,8.7774,8.7483,8.7085,8.7019,8.6929,8.7078,8.7645,8.7541,8.7469,8.7218,8.6962,8.6854,8.6746,8.6637,8.6811,8.748,8.7985,8.7261,8.6713,8.6735,8.7536,8.9359,9.0696,9.2555,9.4133,10.8241,10.8241,10.8241,10.8241,10.8241,10.8241,10.8241,10.8241,10.8241,10.8241,10.8241,10.8241,10.8241,10.8241,10.8241,10.8241,10.8241,10.8241,10.8241,10.8241,10.8241,10.8241,10.8199,10.8241,10.8241,10.8241,10.8241,10.8199,10.8241,10.8199,10.8076,10.8241,10.8033,10.8119,10.8199,10.8119,10.8119,10.8156,10.8156,10.9352,11.1301,11.2609,11.4321,11.575,11.6544,11.6505,11.5811,11.4593,11.3638,11.2825,11.0419,10.9564,11.002,10.9005,10.817,10.9882,11.0168,11.0988,11.1488,11.1647,11.1515,11.0316,10.8201,10.4838,10.1321,9.7404,9.4871,9.4582,9.2421,9.1687,9.1939,9.1564,9.1655,9.1532,9.1411,9.1238,9.1097,9.1289,9.1133,9.0889,9.0617,9.0276,8.952,8.8469,8.7893,8.7686,8.7541,8.7364,8.7291,8.7185,8.7028,8.7028,8.6844,8.6811,8.6713,8.6713,8.6746,8.6821,8.6821,8.6746,8.6746,8.6746,8.6637,8.6637,8.6637,8.7108,8.7447,8.7042,8.667,8.7228,8.7919,8.9135,9.0714,9.3213,9.4889,10.8241,10.8241,10.8241,10.8241,10.8241,10.8241,10.8241,10.8241,10.8241,10.8241,10.8241,10.8241,10.8241,10.8241,10.8241,10.8113,10.7944,10.8156,10.7989,10.7373,10.7907,10.8113,10.7907,10.8076,10.8241,10.8241,10.8241,10.8082,10.765,10.7422,10.7273,10.7222,10.7222,10.7323,10.712,10.7222,10.7459,10.7724,10.791,10.8645,11.0159,11.1497,11.2899,11.4494,11.5254,11.5229,11.4778,11.405,11.3206,11.2378,10.9778,10.9084,11.0127,10.8868,10.8159,11.0989,11.1327,11.1504,11.1719,11.1732,11.0461,10.9036,10.7518,10.4984,10.0321,9.6411,9.3985,9.3943,9.1747,9.0926,9.1212,9.074,9.0344,9.0219,9.0583,9.0493,9.0436,9.0206,8.9853,8.9578,8.9335,8.8802,8.8198,8.7519,8.7275,8.7185,8.7111,8.7004,8.6821,8.6637,8.6637,8.6637,8.6637,8.6637,8.6637,8.6637,8.6637,8.6637,8.6637,8.6637,8.6637,8.6637,8.6637,8.6637,8.6637,8.6637,8.667,8.667,8.6702,8.7557,8.8577,8.953,9.0615,9.3114,9.4626,10.8241,10.8241,10.8166,10.8124,10.8076,10.7951,10.7989,10.7907,10.7862,10.8033,10.7817,10.7907,10.7832,10.7809,10.7815,10.7547,10.7286,10.7422,10.7171,10.6539,10.7222,10.7459,10.7134,10.7696,10.7713,10.7951,10.7877,10.7565,10.7031,10.6388,10.6031,10.6092,10.6249,10.6007,10.6308,10.6271,10.6271,10.6817,10.6948,10.7668,10.8978,10.9877,11.1162,11.2517,11.3464,11.3927,11.4099,11.3425,11.2843,11.2415,10.992,11.0044,11.1608,10.9937,11.0294,11.1559,11.2358,11.1897,11.0558,11.0221,10.922,10.6814,10.5664,10.3428,9.9675,9.5826,9.3758,9.3221,9.1632,9.0861,9.079,9.028,8.9881,8.9642,8.9252,8.9314,8.9444,8.8768,8.8668,8.8512,8.83,8.7615,8.7276,8.6995,8.6637,8.6637,8.6637,8.6746,8.6637,8.6637,8.6637,8.6637,8.6637,8.6637,8.6637,8.6637,8.6637,8.6637,8.6637,8.6637,8.6637,8.6637,8.6637,8.6637,8.6637,8.6637,8.6637,8.667,8.6768,8.7689,8.9089,9.0041,9.0796,9.2358,9.4199,10.8241,10.8203,10.7605,10.7385,10.7199,10.6671,10.6445,10.6388,10.6445,10.6503,10.6425,10.6425,10.6504,10.6453,10.6429,10.6381,10.6212,10.633,10.6271,10.5945,10.6367,10.6388,10.6219,10.6375,10.6786,10.7185,10.6771,10.6338,10.6079,10.5847,10.5883,10.5757,10.5883,10.5945,10.582,10.5694,10.5909,10.6152,10.6166,10.6276,10.6974,10.7988,10.9466,11.0978,11.1828,11.282,11.3747,11.312,11.279,11.2005,11.1256,11.0686,11.2052,11.0952,11.033,11.088,11.1083,11.0253,10.9218,10.8686,10.7238,10.4386,10.3323,10.1133,9.8155,9.6104,9.4692,9.4369,9.2584,9.1039,9.0939,8.9878,8.8865,8.8207,8.7807,8.7536,8.7774,8.7774,8.7648,8.7442,8.7085,8.6986,8.692,8.6637,8.6637,8.6637,8.6637,8.6637,8.6637,8.6637,8.6637,8.6637,8.6637,8.6637,8.6637,8.6637,8.6637,8.6637,8.6637,8.6637,8.6637,8.6637,8.6637,8.6637,8.6637,8.6637,8.6637,8.667,8.6753,8.7621,8.9452,9.058,9.1022,9.2259,9.3113,10.5936,10.5965,10.639,10.6551,10.6485,10.6129,10.5945,10.5945,10.5945,10.5945,10.5977,10.5967,10.5977,10.5938,10.5986,10.5635,10.5574,10.5694,10.5434,10.5065,10.5499,10.5757,10.5324,10.5858,10.6197,10.6055,10.5337,10.4847,10.5264,10.4996,10.4606,10.475,10.475,10.475,10.475,10.4822,10.4887,10.5228,10.5283,10.5289,10.5434,10.5943,10.7577,10.9129,11.0468,11.189,11.3017,11.2878,11.2415,11.1702,11.0846,11.0952,11.1342,11.1326,11.1274,11.0754,11.0664,10.9707,10.7682,10.6407,10.4982,10.2217,10.0509,9.8633,9.6776,9.581,9.5218,9.4811,9.3132,9.2029,9.1897,9.0762,8.9629,8.8807,8.8227,8.7931,8.77,8.7141,8.6943,8.6811,8.6811,8.6811,8.6637,8.6637,8.6637,8.6637,8.6637,8.6637,8.6637,8.6637,8.6637,8.6637,8.6637,8.6637,8.6637,8.6637,8.6637,8.6637,8.6637,8.6637,8.6637,8.6637,8.6637,8.6637,8.6637,8.6637,8.6429,8.5661,8.645,8.7123,8.7759,8.8637,9.0253,9.1415,9.1673,10.2993,10.3128,10.4427,10.4915,10.4905,10.4724,10.4448,10.4761,10.4412,10.4806,10.4973,10.5063,10.5011,10.5401,10.5502,10.5134,10.4497,10.4382,10.4063,10.343,10.4027,10.4847,10.4423,10.4951,10.5145,10.4822,10.3881,10.3569,10.4051,10.3801,10.3722,10.3471,10.3552,10.3552,10.3597,10.3471,10.3934,10.4352,10.4406,10.4442,10.4423,10.4694,10.5656,10.7579,10.9189,11.0663,11.1933,11.2451,11.2165,11.0988,11.0828,11.0703,11.079,11.1595,11.1251,11.0292,10.9671,10.8294,10.6098,10.4541,10.2342,9.9965,9.8465,9.6984,9.5777,9.5284,9.5284,9.4976,9.4205,9.3365,9.3147,9.1996,9.1273,9.0549,8.9596,8.8675,8.8445,8.7623,8.667,8.6637,8.6637,8.6637,8.6637,8.6637,8.6637,8.6637,8.6637,8.6637,8.6637,8.6637,8.6637,8.6637,8.6637,8.6637,8.6637,8.6637,8.6637,8.6637,8.6637,8.6637,8.6637,8.6637,8.6637,8.6385,8.6385,8.6111,8.5309,8.4471,8.4851,8.5535,8.5735,8.6052,8.7948,8.9655,9.0081,10.1405,10.1437,10.0993,10.0812,10.0729,10.027,10.0153,10.0006,9.9787,10.1094,10.1609,10.1788,10.2695,10.3471,10.3736,10.3686,10.3177,10.2625,10.2064,10.1427,10.1988,10.2487,10.3192,10.3347,10.3113,10.1859,10.1516,10.215,10.3025,10.3435,10.2818,10.3246,10.3318,10.3318,10.3389,10.3425,10.3588,10.3829,10.3838,10.3669,10.3714,10.374,10.4424,10.61,10.7635,10.9204,11.0845,11.1916,11.2486,11.2415,11.2394,11.1664,11.0952,11.0702,11.0257,10.8762,10.7692,10.6267,10.4491,10.2799,10.1378,9.9749,9.8144,9.6698,9.5646,9.5284,9.5284,9.5087,9.4889,9.4383,9.3311,9.2884,9.2259,9.1207,8.9793,8.8938,8.8577,8.759,8.6933,8.6768,8.691,8.691,8.6844,8.6637,8.6637,8.6637,8.6637,8.6637,8.6637,8.6637,8.6637,8.6637,8.6637,8.6637,8.6637,8.6637,8.6637,8.6637,8.6637,8.6637,8.6637,8.6637,8.6495,8.6275,8.5681,8.486,8.4197,8.3368,8.3288,8.3879,8.4349,8.5103,8.6296,8.7763,8.856,9.9079,9.9765,9.9479,9.93,9.9256,9.8949,9.8787,9.8787,9.8787,9.9179,9.9714,9.9829,10.0258,10.0963,10.0934,10.0959,10.0756,10.017,9.9857,9.9821,9.9893,10.025,10.0927,10.0856,10.0678,10.0,9.9821,10.0143,10.0749,10.0856,10.1106,10.0963,10.1784,10.2569,10.3282,10.3425,10.377,10.4269,10.3877,10.3425,10.3425,10.3425,10.3924,10.4673,10.6029,10.8063,11.0132,11.1202,11.1416,11.154,11.1465,11.1092,11.0597,11.0579,10.9382,10.7599,10.6341,10.5213,10.303,10.1367,9.9953,9.8473,9.7059,9.604,9.5481,9.5284,9.5284,9.5284,9.5218,9.5087,9.4363,9.4265,9.41,9.2982,9.1338,9.0056,8.9859,8.9399,8.8544,8.7174,8.748,8.7414,8.6943,8.667,8.6637,8.6637,8.6637,8.6637,8.6637,8.6637,8.6637,8.6637,8.6637,8.6637,8.6637,8.6637,8.6637,8.6637,8.6637,8.6637,8.6637,8.6495,8.6385,8.5518,8.4746,8.3954,8.3094,8.2273,8.1836,8.2412,8.3132,8.4143,8.4864,8.5283,8.5939,9.711,9.8216,9.7859,9.7717,9.7717,9.7681,9.7681,9.761,9.7645,9.7717,9.818,9.8294,9.8544,9.893,9.9083,9.8734,9.9038,9.8415,9.8252,9.8216,9.8252,9.8109,9.7717,9.7717,9.7895,9.8287,9.8252,9.8501,9.8858,9.9144,9.8823,9.9144,10.0606,10.1677,10.2818,10.3139,10.4091,10.4756,10.402,10.346,10.3425,10.3425,10.346,10.3639,10.4638,10.685,10.9204,10.9918,11.0096,11.0275,11.0433,11.0615,11.047,11.0223,10.8772,10.6776,10.5867,10.4475,10.2016,10.0479,9.8966,9.7618,9.6336,9.5284,9.5284,9.5284,9.5284,9.5284,9.5284,9.5251,9.5087,9.5218,9.5021,9.4528,9.2884,9.1437,9.1338,9.1042,8.991,8.8675,8.8634,8.8732,8.7447,8.7305,8.6998,8.6637,8.6637,8.6637,8.6637,8.6637,8.6637,8.6637,8.6637,8.6637,8.6637,8.6637,8.6637,8.6637,8.6637,8.6637,8.6527,8.6385,8.5508,8.4666,8.3726,8.2943,8.1994,8.1176,8.0372,8.1079,8.1734,8.188,8.2114,8.2437,8.2937,9.6497,9.6504,9.5041,9.4434,9.4541,9.4434,9.4755,9.4541,9.472,9.5433,9.6473,9.662,9.7187,9.8751,9.8138,9.8601,9.8459,9.7074,9.6646,9.6575,9.6504,9.6004,9.5077,9.5041,9.5612,9.6468,9.6611,9.7288,9.7931,9.8394,9.8609,9.8894,10.0143,10.1106,10.1962,10.2854,10.346,10.3877,10.371,10.346,10.3425,10.3425,10.3425,10.346,10.3889,10.5423,10.7313,10.8348,10.9026,11.0382,11.0377,11.0308,11.0227,10.9065,10.7735,10.6265,10.498,10.3596,10.1695,10.0216,9.8901,9.72,9.582,9.5284,9.4977,9.5131,9.4977,9.458,9.5251,9.5185,9.512,9.5251,9.5251,9.4988,9.3936,9.3015,9.2686,9.1733,9.0878,9.0555,9.0381,8.9967,8.9129,8.8502,8.7907,8.5504,8.5641,8.5554,8.5575,8.5552,8.5617,8.5979,8.6383,8.6439,8.6538,8.6604,8.6604,8.6637,8.6637,8.6637,8.6527,8.5765,8.4792,8.351,8.2041,8.1017,8.0536,7.9969,7.9104,7.9339,8.0066,7.9687,7.9455,8.0503,8.1172,9.6426,9.6218,9.4577,9.3935,9.3935,9.3935,9.3935,9.3935,9.3935,9.4363,9.4791,9.4973,9.533,9.5897,9.5968,9.5968,9.5897,9.5184,9.4934,9.497,9.5005,9.4613,9.4113,9.3935,9.4256,9.4934,9.4934,9.5362,9.5933,9.5968,9.6539,9.7538,9.893,10.0713,10.214,10.3211,10.3853,10.4459,10.3853,10.3425,10.3425,10.3425,10.3425,10.3425,10.3496,10.3817,10.5244,10.6279,10.792,10.9704,10.9635,10.9196,10.9151,10.7804,10.6399,10.5049,10.4424,10.2912,10.0906,9.992,9.8066,9.5416,9.5282,9.4179,9.2889,9.4147,9.399,9.2984,9.4302,9.4463,9.419,9.4704,9.5185,9.4967,9.4002,9.2456,9.0714,9.0812,8.9795,8.8061,8.7557,8.7407,8.4876,8.4638,8.4349,8.4197,8.4309,8.4364,8.4384,8.4171,8.4072,8.4737,8.5132,8.5725,8.5988,8.6275,8.6439,8.6604,8.6637,8.6637,8.6275,8.5428,8.3645,8.1477,8.0076,7.9087,7.887,7.8324,7.783,7.7685,7.838,7.8642,7.8817,7.9368,7.9892,9.6656,9.6789,9.4755,9.3935,9.3935,9.3935,9.3935,9.3935,9.3935,9.3935,9.3971,9.3935,9.4042,9.3971,9.4006,9.3935,9.4113,9.4006,9.3935,9.3935,9.3935,9.3935,9.3935,9.3935,9.3935,9.3971,9.4078,9.3935,9.3935,9.4185,9.4934,9.6397,9.8109,10.0143,10.2497,10.3139,10.3889,10.4245,10.3603,10.3282,10.2961,10.3139,10.3425,10.3425,10.3425,10.346,10.3603,10.4923,10.6957,10.8955,10.8462,10.8257,10.8211,10.7022,10.5642,10.4358,10.3569,10.2189,9.9958,9.8628,9.6398,9.3115,9.3207,9.2665,9.0048,9.2402,9.2274,9.1193,9.196,9.3126,9.2478,9.3446,9.4295,9.4229,9.2179,9.0241,8.9433,8.9599,8.922,8.6077,8.6082,8.5195,8.3558,8.2775,8.2597,8.24,8.2656,8.3003,8.307,8.2982,8.3579,8.4013,8.4052,8.481,8.547,8.5782,8.6068,8.61,8.5694,8.5485,8.4893,8.4041,8.176,7.9731,7.8725,7.7925,7.7483,7.7052,7.6641,7.6148,7.6532,7.6867,7.727,7.6988,7.7336,9.7299,9.8145,9.5219,9.3971,9.3935,9.3935,9.3935,9.3935,9.3935,9.3935,9.3935,9.3935,9.3935,9.3935,9.3935,9.3935,9.3935,9.3935,9.3935,9.3935,9.3935,9.3935,9.3935,9.3935,9.3935,9.3935,9.3935,9.3935,9.3935,9.3935,9.4755,9.6504,9.8073,9.9643,10.1534,10.2783,10.2854,10.214,10.2783,10.2569,10.1463,10.2569,10.3353,10.3425,10.3425,10.3425,10.3603,10.4745,10.5744,10.6194,10.7556,10.8016,10.7905,10.6857,10.5346,10.4063,10.2616,10.1169,9.9278,9.6951,9.4333,9.2179,9.1103,8.9882,8.9653,8.9994,9.0352,8.9373,9.003,9.0319,9.0289,9.1471,9.2217,9.2089,8.9123,8.7568,8.8234,8.8258,8.7541,8.7231,8.6621,8.5102,8.3134,8.2787,8.235,8.1854,8.2359,8.2308,8.215,8.2063,8.3072,8.2954,8.2499,8.3096,8.3497,8.3947,8.4322,8.398,8.3079,8.2996,8.2626,8.1597,7.9972,7.8745,7.7681,7.6988,7.6494,7.6093,7.564,7.4756,7.4459,7.4754,7.4375,7.3659,7.3588,9.7044,9.5754,9.5548,9.4866,9.3971,9.3935,9.3935,9.3935,9.3935,9.3935,9.3935,9.3935,9.3935,9.3935,9.3935,9.3935,9.3935,9.3935,9.3935,9.3935,9.3935,9.3935,9.3935,9.3935,9.3935,9.3935,9.3935,9.3935,9.3935,9.4006,9.5255,9.7503,9.8466,9.9964,10.2426,10.3104,10.264,10.132,10.1614,10.165,10.1356,10.1585,10.2405,10.3235,10.3425,10.3425,10.346,10.396,10.5173,10.6872,10.686,10.6919,10.6803,10.5666,10.4589,10.38,10.2388,10.0459,9.7922,9.5783,9.3187,9.0127,8.9509,8.8908,8.7168,8.8856,8.8402,8.7295,8.823,8.8987,8.7507,8.856,8.8484,8.6926,8.52,8.5011,8.5077,8.4773,8.3928,8.3098,8.2187,8.0978,7.9821,7.9251,7.904,7.8872,7.9272,7.9527,8.0493,8.0382,8.1357,8.1859,8.1006,8.0846,8.155,8.1957,8.2355,8.1313,8.0206,7.967,7.9978,7.8999,7.8008,7.6744,7.5902,7.5027,7.4868,7.4744,7.3872,7.3074,7.2259,7.2098,7.1798,7.085,7.0575,9.6254,9.4827,9.5405,9.4902,9.4006,9.3935,9.3935,9.3935,9.3935,9.3935,9.3935,9.3935,9.3935,9.3935,9.3935,9.3935,9.3935,9.3935,9.3935,9.3935,9.3935,9.3935,9.3935,9.3935,9.3935,9.3935,9.3935,9.3935,9.3935,9.3935,9.554,9.818,9.8751,10.0428,10.3211,10.3353,10.2319,10.0642,10.0801,10.0765,10.0392,10.0837,10.1824,10.32,10.3425,10.3425,10.3425,10.3425,10.4959,10.7849,10.6727,10.6028,10.583,10.4736,10.3997,10.3832,10.1735,9.8896,9.677,9.4068,9.061,8.8157,8.7596,8.6608,8.5015,8.6554,8.6738,8.5132,8.6045,8.6748,8.499,8.5636,8.4827,8.1465,8.1428,8.1617,8.1985,8.1564,8.033,7.9372,7.8705,7.7814,7.695,7.6804,7.7038,7.7133,7.7719,7.8082,7.8584,7.831,7.8677,7.9901,7.8806,7.7924,7.8813,7.9406,7.8869,7.7555,7.6237,7.53,7.6291,7.615,7.5124,7.4148,7.3648,7.322,7.3203,7.2517,7.1371,7.0423,6.9676,6.9294,6.9068,6.8819,6.8388,9.4934,9.5968,9.4613,9.4256,9.4113,9.3971,9.3935,9.3935,9.3935,9.3935,9.3935,9.3935,9.3935,9.3935,9.3935,9.3971,9.4078,9.3971,9.3971,9.4113,9.3971,9.3935,9.3935,9.3935,9.3935,9.3935,9.3935,9.3935,9.3935,9.4185,9.5683,9.8252,9.8858,10.0535,10.3425,10.3318,10.1926,9.9821,10.0265,10.0229,9.9144,10.0151,10.1646,10.32,10.3425,10.3425,10.3425,10.3532,10.4995,10.7549,10.6705,10.5993,10.6083,10.483,10.3866,10.3143,9.9509,9.7193,9.6008,9.1012,8.7839,8.6668,8.5357,8.4657,8.4225,8.4612,8.4612,8.3926,8.3586,8.267,8.2631,8.2778,8.1465,7.758,7.7486,7.8108,7.8876,7.9126,7.9146,7.8719,7.7726,7.6722,7.6635,7.6635,7.6576,7.69,7.7711,7.8403,7.787,7.7677,7.7586,7.7423,7.6645,7.5901,7.6322,7.6653,7.5198,7.394,7.2749,7.2207,7.33,7.3903,7.3089,7.2418,7.1792,7.1822,7.1807,7.0471,6.9237,6.7535,6.698,6.638,6.6065,6.5733,6.5708,9.4863,9.6366,9.6985,9.6588,9.5505,9.4399,9.3935,9.3935,9.3935,9.3935,9.3935,9.3935,9.3935,9.3935,9.3935,9.4434,9.5398,9.4399,9.4506,9.5433,9.4399,9.3935,9.3935,9.3935,9.3935,9.3935,9.3935,9.3935,9.4006,9.5041,9.6682,9.8716,9.9857,10.1391,10.3068,10.3425,10.1891,9.9358,9.9222,9.9294,9.893,9.9287,10.0745,10.295,10.3425,10.3425,10.3425,10.4459,10.5993,10.7554,10.6716,10.6434,10.7261,10.5266,10.3371,10.1703,9.8677,9.5716,9.2942,8.9259,8.6521,8.5236,8.4533,8.4254,8.4254,8.4254,8.3684,8.3183,8.2499,8.1534,8.0213,7.9239,7.8183,7.7008,7.6635,7.6885,7.7352,7.749,7.7449,7.7463,7.6809,7.6635,7.6635,7.6606,7.6576,7.6635,7.6995,7.7889,7.8037,7.7833,7.7217,7.73,7.5767,7.4613,7.3537,7.2879,7.1534,7.1437,7.0708,7.0551,7.1012,7.1469,7.1326,7.0743,7.0382,7.054,6.9887,6.8588,6.679,6.4878,6.4287,6.4042,6.3566,6.29,6.3165,9.5754,9.733,9.7768,9.6978,9.5433,9.4363,9.3935,9.3935,9.3935,9.3935,9.3935,9.3935,9.3935,9.3935,9.3935,9.4791,9.6183,9.5291,9.5362,9.6147,9.5291,9.447,9.4006,9.3935,9.3935,9.3935,9.3935,9.3935,9.4113,9.5576,9.7181,9.8751,10.0285,10.1855,10.3032,10.2854,10.1356,9.9029,9.88,9.8401,9.796,9.9038,10.0816,10.32,10.3425,10.3675,10.4245,10.5209,10.6536,10.8088,10.6716,10.6391,10.7098,10.5349,10.2876,10.0307,9.7401,9.4319,9.0689,8.7718,8.5508,8.4225,8.4254,8.4254,8.4042,8.3684,8.324,8.2422,8.1765,8.0152,7.814,7.7066,7.6635,7.6635,7.6635,7.6635,7.6635,7.6635,7.6635,7.6465,7.6064,7.5692,7.5204,7.5165,7.5413,7.5791,7.5878,7.6578,7.7562,7.6984,7.6209,7.6235,7.5076,7.2963,7.0572,6.9559,6.9044,6.9306,6.9451,6.9509,6.9509,7.0033,7.0265,6.9771,6.9771,6.9684,6.8206,6.6933,6.546,6.3599,6.2334,6.2205,6.1612,6.1188,6.1204,9.736,9.8466,9.7169,9.5744,9.3967,9.3896,9.3899,9.3749,9.3899,9.3935,9.3935,9.3935,9.3935,9.3935,9.4113,9.497,9.6397,9.6539,9.6575,9.6611,9.6361,9.5433,9.4006,9.3935,9.3935,9.3935,9.3935,9.3789,9.3856,9.5495,9.714,9.8514,10.0105,10.1681,10.2452,10.1681,10.0303,9.8799,9.8836,9.831,9.7318,9.9688,10.187,10.3022,10.3353,10.4174,10.5494,10.5779,10.6651,10.8236,10.6963,10.6109,10.6029,10.4851,10.2584,9.9352,9.5887,9.255,8.9186,8.6154,8.4225,8.4254,8.4254,8.4071,8.3926,8.3154,8.248,8.2066,7.9951,7.8224,7.6979,7.6693,7.6635,7.6635,7.6576,7.6431,7.646,7.6198,7.6431,7.6059,7.5171,7.4286,7.2987,7.2673,7.3475,7.425,7.457,7.5085,7.6039,7.5493,7.4941,7.4548,7.2984,7.0614,6.9538,6.9073,6.9015,6.9073,6.9131,6.9073,6.9015,6.8986,6.9073,6.9102,6.8837,6.805,6.6663,6.5136,6.369,6.254,6.1206,6.0131,5.9424,5.9197,5.9683,9.8387,9.8644,9.833,9.6648,9.4375,9.4024,9.345,9.2751,9.3526,9.3935,9.3935,9.3935,9.3935,9.4078,9.5184,9.6575,9.7966,9.8109,9.8109,9.7966,9.6896,9.5505,9.4042,9.3935,9.3935,9.3935,9.3899,9.3485,9.2872,9.4481,9.5481,9.6212,9.8542,9.9516,9.9182,10.0582,9.997,9.7728,9.9455,10.0285,10.0107,10.1703,10.2416,10.1855,10.2854,10.4138,10.5672,10.6814,10.7752,10.8208,10.7899,10.7245,10.6198,10.4753,10.2881,10.0225,9.518,9.0542,8.7239,8.5234,8.4254,8.4254,8.4254,8.3897,8.3125,8.2556,8.1621,7.9892,7.814,7.7066,7.6664,7.6635,7.6635,7.6547,7.5675,7.518,7.5093,7.4279,7.3872,7.3784,7.3533,7.3079,7.2741,7.2586,7.2708,7.3116,7.3261,7.3697,7.4715,7.4861,7.4279,7.3424,7.2841,7.172,7.0591,6.9646,6.9044,6.8986,6.8986,6.8986,6.8986,6.8986,6.8986,6.8293,6.7434,6.6574,6.5462,6.3271,6.1411,6.0552,5.9629,5.8436,5.7711,5.8057,5.8789,9.9679,9.9615,9.9014,9.6746,9.3798,9.3799,9.3182,9.2309,9.3373,9.3935,9.3935,9.3935,9.3935,9.3931,9.5042,9.6754,9.8673,9.8769,9.8769,9.868,9.7788,9.6076,9.4113,9.3935,9.3935,9.3899,9.3373,9.2796,9.2341,9.2722,9.3626,9.5002,9.7823,9.858,9.7401,9.859,9.8559,9.691,9.9018,10.0927,10.2364,10.3479,10.3456,10.2702,10.3097,10.4424,10.6493,10.7528,10.812,10.8278,10.8271,10.7299,10.5409,10.449,10.3045,10.0852,9.5464,9.03,8.5603,8.4662,8.4254,8.4254,8.376,8.3105,8.2412,8.136,8.0037,7.7995,7.7037,7.6635,7.6635,7.6635,7.6373,7.5791,7.5122,7.4424,7.393,7.3174,7.2637,7.2623,7.2258,7.1923,7.1894,7.153,7.1429,7.1923,7.1981,7.2447,7.3639,7.4308,7.4046,7.3011,7.2268,7.1603,7.0288,6.9374,6.9073,6.8986,6.8986,6.8986,6.8859,6.8548,6.785,6.7722,6.6171,6.4883,6.4232,6.1841,6.0253,5.9403,5.8383,5.756,5.673,5.6578,5.6309,10.0994,10.0665,9.93,9.6363,9.3013,9.3366,9.3104,9.2392,9.3373,9.3935,9.3935,9.3935,9.3935,9.3963,9.4387,9.6139,9.8629,9.9018,9.9139,9.9029,9.8965,9.7253,9.4399,9.4185,9.4078,9.3749,9.2751,9.2074,9.1857,9.0894,9.1726,9.4538,9.7523,9.8107,9.6765,9.6849,9.6847,9.6655,9.8191,10.0886,10.4322,10.4562,10.4679,10.4787,10.3952,10.4959,10.8134,10.8098,10.8104,10.8301,10.8242,10.6978,10.4355,10.3767,10.2682,10.0354,9.6231,9.1124,8.5154,8.4313,8.4167,8.3993,8.3004,8.2329,8.1939,7.9747,7.7814,7.6979,7.6664,7.6547,7.646,7.6373,7.5791,7.4628,7.4221,7.3843,7.2767,7.2447,7.2434,7.2394,7.1266,7.0825,7.0631,6.9938,6.9655,7.0643,7.0731,7.1196,7.2359,7.3319,7.3511,7.2594,7.1646,7.0587,6.9713,6.9102,6.8986,6.8986,6.8986,6.8986,6.8576,6.7564,6.6115,6.6435,6.4615,6.2751,6.1576,6.0303,5.9728,5.8631,5.7711,5.6961,5.5233,5.4435,5.3363,10.0432,9.9294,9.8937,9.761,9.5601,9.3476,9.2392,9.2309,9.3408,9.3935,9.3935,9.3935,9.3935,9.4034,9.5444,9.7057,9.8799,10.0146,10.0692,10.0526,10.0535,9.8823,9.604,9.5826,9.5148,9.3856,9.2751,9.1652,9.079,9.0603,9.0956,9.2034,9.475,9.4883,9.25,9.6603,9.7677,9.5799,9.9394,10.2473,10.4498,10.4606,10.5222,10.6162,10.4454,10.5494,10.949,10.8705,10.8104,10.8262,10.8195,10.696,10.4128,10.2487,10.0266,9.7265,9.3829,8.9967,8.6109,8.4807,8.3818,8.2888,8.2509,8.1553,7.9542,7.7936,7.6809,7.6664,7.6635,7.6198,7.5355,7.5122,7.457,7.3261,7.233,7.1588,7.1312,7.0411,6.9869,6.9821,6.9617,6.9403,6.9374,6.9228,6.9189,6.948,6.9451,6.9945,7.1022,7.1516,7.1777,7.1363,7.1099,7.0621,7.0514,6.9675,6.9044,6.8986,6.8986,6.8859,6.8576,6.7305,6.6143,6.5423,6.3383,6.1232,6.0676,5.9478,5.8407,5.7837,5.6377,5.5257,5.4452,5.3341,5.1136,10.0826,9.8834,9.878,9.7901,9.641,9.3386,9.2109,9.2274,9.3408,9.3935,9.3935,9.3935,9.3935,9.4074,9.5796,9.741,9.8815,10.0534,10.1186,10.1106,10.107,9.9393,9.6575,9.6361,9.5505,9.3896,9.2109,9.0886,9.0206,8.9915,9.0176,9.1124,9.318,9.318,9.1403,9.5167,9.6559,9.5198,10.0129,10.3216,10.4417,10.3692,10.3909,10.5312,10.3622,10.4456,10.8098,10.7249,10.6542,10.6327,10.5918,10.4876,10.319,10.0365,9.8017,9.6062,9.2415,8.9061,8.6302,8.4952,8.3702,8.2451,8.1811,8.0417,7.7902,7.7037,7.6635,7.6635,7.6635,7.6053,7.4773,7.4599,7.3901,7.2098,7.0598,6.9352,6.878,6.8065,6.7634,6.7714,6.8452,6.9015,6.8986,6.8986,6.916,6.9771,6.9306,6.9277,6.9916,7.0062,7.0073,7.0094,7.0006,7.0006,6.9948,6.9374,6.9044,6.8986,6.8986,6.8576,6.7592,6.6171,6.4615,6.3632,6.1301,5.96,5.9405,5.7861,5.6648,5.6155,5.4657,5.3444,5.2891,5.1435,4.8861,10.1459,9.9089,9.8851,9.7859,9.6243,9.3573,9.2309,9.2227,9.3373,9.3935,9.3935,9.3935,9.3935,9.3967,9.5536,9.7184,9.8851,10.0287,10.1116,0.0,10.1391,9.9857,9.7074,9.6825,9.5861,9.4141,9.1515,9.0127,9.0054,8.9523,8.976,9.101,9.2621,9.2752,9.1568,9.3877,9.5443,9.5953,10.11,10.4116,10.4726,10.3219,10.3053,10.4185,10.3009,10.3497,10.597,10.5389,10.4643,10.3985,10.2984,10.2156,10.1366,9.7744,9.526,9.4366,9.0435,8.7358,8.5428,8.4313,8.3295,8.2364,8.0968,7.9193,7.6629,7.6431,7.6635,7.6635,7.6635,7.6024,7.457,7.4308,7.329,7.092,6.8897,6.7453,6.6924,6.6407,6.629,6.6691,6.8049,6.8986,6.8986,6.8772,6.9092,7.0091,6.9277,6.8811,6.9015,6.8986,6.8986,6.8986,6.9073,6.9287,6.9559,6.9287,6.9403,6.9247,6.8877,6.7879,6.6567,6.4507,6.2688,6.1041,5.9399,5.8061,5.7306,5.5853,5.494,5.4166,5.2415,5.1128,5.1036,4.9332,4.7228,10.1158,10.0532,9.927,9.7998,9.6563,9.445,9.299,9.2192,0.0,0.0,0.0,9.3935,9.3935,9.3931,9.4474,9.619,9.8744,9.9194,10.0657,10.2997,10.3032,10.2033,10.0214,9.893,9.7467,9.5821,9.2038,9.0127,9.0172,9.0419,9.0714,9.1174,9.3607,9.4166,9.2935,9.5438,9.7638,9.9657,10.4057,10.6481,10.6586,10.6275,10.6726,10.789,10.5457,10.5243,10.7674,10.5799,10.4326,10.3564,10.2431,10.0375,9.7232,9.4173,9.0692,8.6831,8.4235,8.2438,8.1611,8.1497,8.1702,8.2456,8.0212,7.7931,7.5607,7.6089,7.6635,7.6635,7.6635,7.5646,7.3319,7.3057,7.2069,6.9626,6.7617,6.698,6.8193,6.7146,6.6623,6.8209,6.8692,6.8986,6.8957,6.8085,6.7929,6.8859,6.8288,6.7706,6.8724,6.8928,6.8898,6.9044,6.9889,7.0552,7.0611,7.0484,7.0631,7.0353,6.8351,6.6623,6.5717,6.3356,6.1301,6.0609,5.9129,5.7282,5.5621,5.4729,5.412,5.2317,5.0285,4.8777,4.8635,4.7081,4.5498,10.1397,0.0,9.9079,9.7446,0.0,9.4309,9.3526,9.3104,9.3638,9.3935,9.3935,9.3935,9.3935,9.3931,9.4936,9.661,9.8823,9.9645,10.129,10.3425,10.3425,10.2569,10.1034,9.95,9.7589,9.5361,9.1915,8.9849,8.9422,9.0395,9.0582,8.9925,9.3508,9.341,9.0169,9.4062,9.8055,10.1924,10.4468,10.5911,10.6365,10.5489,10.5704,10.7268,0.0,0.0,0.0,0.0,0.0,0.0,0.0,0.0,0.0,0.0,0.0,8.4148,8.041,7.7779,7.6944,7.7691,7.8447,7.8921,7.7837,7.6011,7.3626,7.45,7.5367,7.5803,7.532,7.4281,7.2778,7.2156,7.1051,6.915,6.7276,6.6407,6.7305,6.6698,6.6529,6.7405,6.8414,6.8714,6.8085,6.7457,6.7342,6.7814,6.7415,6.7532,6.8666,6.8462,6.8317,6.8928,7.0162,7.0963,7.0947,7.0934,7.0992,7.0601,6.8261,6.599,6.4885,6.2381,6.032,5.9252,5.7614,5.5989,5.4735,5.3159,5.1622,5.0583,4.8768,4.7343,4.7594,4.6726,4.5616,10.1764,9.9135,9.8851,9.7044,9.4402,9.4042,9.3935,9.3935,9.3935,9.3935,9.3935,9.3935,9.3935,9.3971,9.5041,9.6504,9.8323,9.9286,10.0713,10.2533,10.2533,10.1998,10.0963,9.9179,9.7091,9.481,9.1974,9.0044,8.8904,9.0563,9.0779,8.976,9.341,9.2737,8.8401,0.0,0.0,0.0,10.427,10.5489,10.6134,10.4656,10.4576,10.597,10.5958,0.0,10.759,10.6049,10.4676,10.3773,9.9424,0.0,0.0,0.0,0.0,0.0,0.0,0.0,0.0,0.0,0.0,0.0,7.4411,7.3467,7.157,7.266,7.3795,7.4615,7.3893,7.3003,7.2156,7.1035,6.9928,6.8753,6.6935,6.6051,6.6567,6.6275,6.6257,6.6606,6.8056,6.8472,6.7342,6.6861,6.6675,6.6688,6.6455,6.6985,6.8463,6.7749,6.7655,6.91,6.9957,7.0697,7.1185,7.1347,7.1382,7.0667,6.8242,6.5325,6.3453,6.1535,5.9546,5.7638,5.593,5.4827,5.3564,5.1623,4.9794,4.917,4.7694,4.6683,4.7552,4.6812,4.6014,10.2436,10.0622,9.9316,9.7705,9.598,9.4545,9.3935,9.3935,9.3935,9.3935,9.3935,9.3935,9.3935,9.3864,9.2716,9.3821,9.6575,9.5362,9.6432,9.9322,9.9358,9.9964,10.0927,9.8073,9.671,9.6405,9.3566,9.1519,9.0351,9.2021,9.2785,9.2686,9.4396,9.4092,9.2224,9.6229,9.896,10.0041,10.5132,10.782,10.7942,10.7676,10.7183,10.6535,10.7365,10.7353,10.6254,10.5322,10.4436,10.3384,9.7962,9.3449,9.0373,8.5145,7.9618,0.0,7.147,0.0,0.0,0.0,0.0,0.0,0.0,0.0,0.0,7.155,7.2492,7.2536,7.2939,7.2285,7.0065,6.8632,6.772,6.7299,6.5684,6.5597,6.8177,6.7146,6.667,6.8403,6.8928,6.8472,6.7169,6.6,6.5326,6.5178,6.442,6.4859,6.6965,6.7301,6.8032,7.0515,6.9985,7.0248,7.1875,7.2433,7.2096,7.11,6.8022,6.4798,6.2754,6.0225,5.7711,5.5729,5.5557,5.4467,5.0731,5.0435,4.9845,4.8196,4.759,4.7625,4.8178,4.695,4.5236,10.1926,9.9765,9.907,9.6272,9.2475,9.3046,9.2977,9.2686,9.3543,9.3935,9.3864,9.2936,9.2115,9.1365,9.1434,9.2399,9.3614,9.2936,9.3864,9.604,9.604,9.6932,9.8287,9.5219,9.4007,9.4452,9.2264,9.0242,8.8533,9.0031,9.0319,8.9596,9.1602,9.2436,9.211,9.6073,9.8918,10.0413,10.5164,10.7862,10.8241,10.8241,10.8039,10.7512,10.8806,10.9208,10.8376,10.7353,10.6193,10.4835,9.8942,9.3719,8.9595,8.3463,7.7294,0.0,0.0,0.0,0.0,0.0,0.0,0.0,0.0,0.0,0.0,0.0,6.9102,0.0,7.0316,0.0,6.7525,6.6673,6.6059,6.518,6.3743,6.3563,6.5521,6.5649,6.593,6.6711,6.7515,6.7208,6.5173,6.445,6.3794,6.3081,6.301,6.3911,6.6054,6.7379,6.8614,7.0659,7.0622,7.0875,7.2669,7.192,7.1153,7.0986,6.7093,6.3489,6.3071,6.0752,5.819,5.6527,5.5514,5.399,5.0881,4.9928,4.9467,4.836,4.8254,4.8599,4.9611,4.8645,4.7798,10.0704,9.8216,9.7633,9.441,8.9815,9.1431,9.1737,9.1367,9.2724,9.315,9.2722,9.1974,9.0474,8.8691,8.9154,8.9761,9.0474,9.0046,9.0938,9.2722,9.2758,9.365,9.5077,9.233,9.1225,9.1505,9.0643,8.8794,8.6318,8.8029,8.8271,8.707,8.8164,8.93,9.0574,9.4608,9.8146,10.1112,10.4898,10.7261,10.8241,10.8241,10.8102,10.7742,10.9255,10.9828,10.9326,10.7961,10.6666,10.5497,9.8878,9.3178,8.8974,8.1602,0.0,0.0,0.0,0.0,0.0,0.0,0.0,0.0,0.0,6.0673,6.1035,0.0,6.5169,0.0,6.7844,6.8633,6.7173,6.605,0.0,0.0,6.2211,6.1526,6.2294,6.3458,6.4333,6.4655,6.5458,6.536,6.3397,6.3195,6.2858,6.176,6.2841,6.4293,6.6149,6.7726,6.9142,7.0504,7.0705,7.0969,7.1596,7.1002,7.0825,7.1226,6.6766,6.3077,6.3457,6.1411,5.9116,5.7152,5.5476,5.3589,5.0735,4.97,4.9288,4.9791,4.9847,5.0028,5.0885,5.0536,5.0376,9.814,9.6414,9.4301,9.2375,9.0837,9.0531,9.0341,9.0377,9.1295,9.0974,8.9725,9.101,8.9868,8.6965,8.4221,0.0,0.0,8.5765,8.6728,8.9582,8.9582,9.0439,9.183,9.0189,8.9074,8.8485,8.9646,8.8286,8.4836,8.7764,8.8717,8.7545,8.492,8.5001,8.782,9.2054,9.6591,10.1357,10.4493,10.674,10.8241,10.8241,10.7582,10.6227,10.7669,10.7717,10.6184,10.4857,10.4086,10.3705,9.5565,8.9625,8.6606,0.0,0.0,0.0,0.0,0.0,0.0,0.0,0.0,0.0,0.0,0.0,0.0,0.0,0.0,0.0,6.6796,0.0,7.1373,6.7504,0.0,0.0,0.0,6.0124,5.9947,6.0895,6.1944,6.3157,0.0,0.0,0.0,0.0,6.334,6.2584,6.4289,6.6269,6.8112,6.869,6.9202,7.0097,6.975,6.9126,6.8858,7.0812,7.1903,7.0407,6.7682,6.4678,6.3134,6.1571,5.9266,5.5678,5.5178,5.42,4.9837,4.9683,5.0556,5.2757,5.2734,5.2405,5.2464,5.21,5.1653,9.4395,9.1416,8.9065,8.6982,8.5381,8.6523,8.7368,8.7927,8.8878,8.9044,8.8752,8.7882,8.6888,8.5651,8.2564,0.0,0.0,0.0,8.2911,8.498,8.5016,8.6336,8.8584,8.7121,8.65,8.6694,8.7116,8.6293,8.4113,8.5515,8.4531,8.1468,0.0,0.0,8.5524,9.0075,9.4391,9.8546,10.3386,10.6251,10.6853,10.7792,10.7507,10.6044,10.7486,10.7033,10.4596,10.4043,10.2188,9.878,9.2738,8.6805,0.0,0.0,0.0,0.0,0.0,0.0,0.0,0.0,0.0,0.0,0.0,5.6434,0.0,0.0,0.0,0.0,5.8819,6.0049,6.2777,6.3205,0.0,0.0,0.0,0.0,0.0,0.0,0.0,5.9677,6.1742,6.2946,6.214,6.3311,6.4192,6.4232,6.5188,6.6312,6.7531,0.0,6.9845,7.0536,6.956,6.8835,6.8692,6.9596,6.9526,6.7218,6.4891,6.3582,6.3722,6.2318,6.0108,5.7859,5.7022,5.5712,5.2435,5.2097,5.2643,5.2988,5.3706,5.4106,5.3973,5.4463,5.5069,9.0007,0.0,0.0,0.0,0.0,8.3646,8.4662,8.5322,8.6213,8.6548,8.6306,8.508,0.0,0.0,0.0,0.0,0.0,0.0,8.0485,8.1555,8.2483,8.3839,8.5515,8.4342,8.3998,8.4157,8.4023,8.3095,8.1772,8.1252,7.9274,7.6079,0.0,0.0,0.0,0.0,9.2004,9.6077,10.2063,10.549,10.5952,10.7493,10.7603,10.6271,10.6883,10.587,10.3097,10.19,9.8997,9.4101,8.8733,0.0,0.0,0.0,0.0,0.0,0.0,0.0,0.0,0.0,0.0,0.0,0.0,0.0,0.0,0.0,0.0,0.0,0.0,0.0,5.7366,6.0451,6.0854,0.0,0.0,0.0,0.0,0.0,0.0,0.0,0.0,0.0,6.0973,6.254,6.4262,0.0,0.0,6.7262,6.7884,6.9514,7.0447,6.966,0.0,0.0,0.0,6.7969,6.7411,6.5589,6.4149,6.3471,6.4296,6.2602,6.0653,5.8832,5.8083,5.7083,5.5293,5.5019,5.4969,5.4967,5.5696,5.6363,5.6329,5.6956,5.7745,0.0,0.0,0.0,0.0,0.0,0.0,0.0,0.0,8.371,8.3193,0.0,8.3005,0.0,0.0,0.0,0.0,0.0,0.0,0.0,0.0,8.2911,8.3696,8.2447,8.2173,8.1527,8.0479,8.0211,7.8758,7.6286,7.4635,0.0,0.0,0.0,0.0,0.0,0.0,8.9507,9.4494,10.0481,10.4268,10.5873,10.7414,10.7862,10.7068,10.5528,10.3671,10.132,9.746,9.3995,9.0894,8.2848,0.0,0.0,0.0,0.0,0.0,0.0,0.0,0.0,0.0,0.0,0.0,0.0,0.0,0.0,0.0,0.0,0.0,0.0,0.0,0.0,6.0644,0.0,0.0,0.0,0.0,0.0,0.0,0.0,0.0,0.0,0.0,5.9865,6.1116,6.3159,6.6585,0.0,0.0,0.0,0.0,7.1026,6.7112,6.662,6.6325,6.4921,6.5998,6.7149,6.7557,0.0,0.0,6.3604,6.2296,6.0801,5.8117,5.7844,5.8007,5.7539,5.7548,5.7972,5.938,5.9289,5.9428,5.9718,5.9185,5.8673,0.0,0.0,0.0,0.0,0.0,0.0,0.0,0.0,0.0,0.0,0.0,8.0903,0.0,0.0,0.0,0.0,0.0,0.0,0.0,0.0,7.7988,7.9272,8.0663,7.9601,7.8478,0.0,7.6185,7.4439,0.0,0.0,0.0,0.0,0.0,0.0,0.0,0.0,8.8056,9.2023,9.903,10.2913,10.3586,10.6141,10.7371,10.712,10.5492,10.2361,9.7776,9.3771,8.9382,0.0,0.0,0.0,0.0,0.0,0.0,0.0,0.0,0.0,0.0,0.0,0.0,0.0,0.0,0.0,0.0,0.0,0.0,0.0,0.0,0.0,0.0,0.0,5.9489,0.0,0.0,0.0,0.0,0.0,0.0,0.0,0.0,0.0,5.9172,6.1626,6.4273,6.7,6.8748,7.0218,7.1828,0.0,0.0,0.0,0.0,0.0,0.0,0.0,6.5314,6.4748,6.5023,6.5012,6.4006,6.2212,6.0351,5.878,0.0,0.0,5.85,5.8678,5.8983,5.9531,6.0481,6.0642,5.9606,5.99,5.982,0.0,0.0,0.0,0.0,0.0,0.0,0.0,0.0,0.0,7.9693,7.9805,0.0,0.0,0.0,0.0,0.0,0.0,0.0,0.0,0.0,0.0,0.0,7.7488,7.6428,0.0,0.0,0.0,0.0,0.0,0.0,0.0,0.0,0.0,0.0,0.0,0.0,8.6238,8.9998,9.7745,10.1848,10.1892,10.5275,10.6817,10.6256,10.5161,10.2051,9.6633,0.0,0.0,0.0,0.0,0.0,0.0,0.0,0.0,0.0,0.0,0.0,0.0,0.0,0.0,0.0,0.0,0.0,0.0,0.0,0.0,0.0,0.0,0.0,0.0,0.0,5.7662,0.0,0.0,0.0,0.0,0.0,0.0,0.0,0.0,0.0,0.0,0.0,6.4018,6.7063,6.906,7.0832,7.2733,7.218,7.131,0.0,0.0,0.0,0.0,0.0,0.0,0.0,0.0,0.0,0.0,0.0,0.0,0.0,0.0,5.85,5.9189,5.9389,5.9682,6.0239,0.0,0.0,0.0,0.0,0.0,0.0,0.0,0.0,0.0,0.0,0.0,0.0,0.0,0.0,0.0,0.0,0.0,0.0,0.0,0.0,0.0,0.0,0.0,0.0,0.0,0.0,0.0,0.0,0.0,0.0,0.0,0.0,0.0,0.0,0.0,0.0,0.0,0.0,0.0,0.0,0.0,0.0,8.8353,9.6604,10.0949,10.1167,10.4972,10.6215,10.4678,10.4498,10.2463,9.8049,0.0,0.0,0.0,0.0,0.0,0.0,0.0,0.0,0.0,0.0,0.0,0.0,0.0,0.0,0.0,0.0,0.0,0.0,0.0,0.0,0.0,0.0,0.0,0.0,0.0,0.0,5.6734,5.7775,5.8015,0.0,0.0,0.0,0.0,0.0,0.0,0.0,0.0,0.0,0.0,6.9642,7.1829,7.3119,7.328,7.2205,6.9832,6.7972,6.6486,6.5623,6.5114,6.5182,0.0,0.0,0.0,0.0,0.0,0.0,0.0,0.0,0.0,0.0,0.0,0.0,0.0,0.0,0.0,0.0,0.0,0.0,0.0,0.0,0.0,0.0,0.0,0.0,0.0,0.0,0.0,0.0,0.0,0.0,0.0,0.0,0.0,0.0,0.0,0.0,0.0,0.0,0.0,0.0,0.0,0.0,0.0,0.0,0.0,0.0,0.0,0.0,0.0,0.0,0.0,0.0,0.0,0.0,8.417,8.8088,9.4504,9.8841,10.1052,10.3336,10.4533,10.4534,10.2779,9.9911,0.0,0.0,0.0,0.0,0.0,0.0,0.0,0.0,0.0,0.0,0.0,0.0,0.0,0.0,0.0,0.0,0.0,0.0,0.0,0.0,0.0,0.0,0.0,0.0,0.0,0.0,0.0,0.0,6.1668,6.1234,6.0195,0.0,0.0,0.0,0.0,0.0,0.0,0.0,0.0,0.0,0.0,7.1509,7.3151,7.2843,7.1637,6.9553,6.8122,6.6856,6.5487,6.5822,6.6144,6.5231,0.0,0.0,0.0,0.0,0.0,0.0,0.0,0.0,0.0,0.0,0.0,0.0,0.0,0.0,0.0,0.0,0.0,0.0,0.0,0.0,0.0,0.0,0.0,0.0,0.0,0.0,0.0,0.0,0.0,0.0,0.0,0.0,0.0,0.0,0.0,0.0,0.0,0.0,0.0,0.0,0.0,0.0,0.0,0.0,0.0,0.0,0.0,0.0,0.0,0.0,0.0,0.0,0.0,8.3298,8.7183,9.3013,9.7447,10.0487,10.2146,10.332,10.4123,10.1793,9.8333,0.0,0.0,0.0,0.0,0.0,0.0,0.0,0.0,0.0,0.0,0.0,0.0,0.0,0.0,0.0,0.0,0.0,0.0,0.0,0.0,0.0,0.0,0.0,0.0,0.0,0.0,0.0,0.0,6.0737,6.1234,6.1671,0.0,0.0,0.0,0.0,0.0,0.0,0.0,0.0,0.0,0.0,7.1893,7.2525,7.2299,0.0,0.0,6.8233,6.7087,6.6031,6.6907,6.7124,6.5058,6.4633,0.0,0.0,0.0,0.0,0.0,0.0,0.0,0.0,0.0,0.0,0.0,0.0,0.0,0.0,0.0,0.0,0.0,0.0,0.0,0.0,0.0,0.0,0.0,0.0,0.0,0.0,0.0,0.0,0.0,0.0,0.0,0.0,0.0,0.0,0.0,0.0,0.0,0.0,0.0,0.0,0.0,0.0,0.0,0.0,0.0,0.0,0.0,0.0,0.0,0.0,0.0,0.0,0.0,8.5619,9.1778,9.6527,9.9505,10.1302,10.2578,10.3353,10.1267,9.748,0.0,0.0,0.0,0.0,0.0,0.0,0.0,0.0,0.0,0.0,0.0,0.0,0.0,0.0,0.0,0.0,0.0,0.0,0.0,0.0,0.0,0.0,0.0,0.0,0.0,0.0,0.0,0.0,0.0,0.0,0.0,0.0,0.0,0.0,0.0,0.0,0.0,0.0,0.0,0.0,0.0,7.2701,7.1369,7.1667,7.1311,0.0,0.0,6.7303,6.6946,6.8135,6.8134,6.5597,0.0,0.0,0.0,0.0,0.0,0.0,0.0,0.0,0.0,0.0,0.0,0.0,0.0,0.0,0.0,0.0,0.0,0.0,0.0,0.0,0.0,0.0,0.0,0.0,0.0,0.0,0.0,0.0,0.0,0.0,0.0,0.0,0.0,0.0,0.0,0.0,0.0,0.0,0.0,0.0,0.0,0.0,0.0,0.0,0.0,0.0,0.0,0.0,0.0,0.0,0.0,0.0,0.0,0.0,8.401,9.0165,9.4876,9.7917,10.0683,10.2523,10.3271,10.0189,0.0,0.0,0.0,0.0,0.0,0.0,0.0,0.0,0.0,0.0,0.0,0.0,0.0,0.0,0.0,0.0,0.0,0.0,0.0,0.0,0.0,0.0,0.0,0.0,0.0,0.0,0.0,4.954,0.0,0.0,0.0,0.0,0.0,0.0,0.0,0.0,0.0,0.0,0.0,0.0,0.0,0.0,7.1406,6.9711,7.0285,6.9805,0.0,0.0,6.6252,6.5973,6.7784,6.85,0.0,0.0,0.0,0.0,0.0,0.0,0.0,0.0,0.0,0.0,0.0,0.0,0.0,0.0,0.0,0.0,0.0,0.0,0.0,0.0,0.0,0.0,0.0,0.0,0.0,0.0,0.0,0.0,0.0,0.0,0.0,0.0,0.0,0.0,0.0,0.0,0.0,0.0,0.0,0.0,0.0,0.0,0.0,0.0,0.0,0.0,0.0,0.0,0.0,0.0,0.0,0.0,0.0,0.0,8.1031,8.3502,8.9205,9.3872,9.7302,10.0181,10.2202,10.3425,9.9668,9.5492,0.0,0.0,0.0,0.0,0.0,0.0,0.0,0.0,0.0,0.0,0.0,0.0,0.0,0.0,0.0,0.0,0.0,0.0,0.0,0.0,0.0,0.0,0.0,0.0,0.0,0.0,0.0,0.0,0.0,0.0,0.0,0.0,0.0,0.0,0.0,0.0,0.0,0.0,0.0,0.0,0.0,0.0,6.9427,6.9657,0.0,0.0,0.0,6.5832,6.5672,0.0,0.0,0.0,0.0,0.0,0.0,0.0,0.0,0.0,0.0,0.0,0.0,0.0,0.0,0.0,0.0,0.0,0.0,0.0,0.0,0.0,0.0,0.0,0.0,0.0,0.0,0.0,0.0,0.0,0.0,0.0,0.0,0.0,0.0,0.0,0.0,0.0,0.0,0.0,0.0,0.0,0.0,0.0,0.0,0.0,0.0,0.0,0.0,0.0,0.0,0.0,0.0,0.0,0.0,0.0,0.0,0.0,8.3113,8.8814,9.3514,9.6949,9.9858,10.1998,10.3353,9.9726,9.546,0.0,0.0,0.0,0.0,0.0,0.0,0.0,0.0,0.0,0.0,0.0,0.0,0.0,0.0,0.0,0.0,0.0,0.0,0.0,0.0,0.0,0.0,0.0,0.0,0.0,0.0,0.0,0.0,0.0,0.0,0.0,0.0,0.0,0.0,0.0,0.0,0.0,0.0,0.0,0.0,0.0,7.1073,6.97,6.9246,6.8003,0.0,0.0,0.0,6.6213,6.8451,0.0,0.0,0.0,0.0,0.0,0.0,0.0,0.0,0.0,0.0,0.0,0.0,0.0,0.0,0.0,0.0,0.0,0.0,0.0,0.0,0.0,0.0,0.0,0.0,0.0,0.0,0.0,0.0,0.0,0.0,0.0,0.0,0.0,0.0,0.0,0.0,0.0,0.0,0.0,0.0,0.0,0.0,0.0,0.0,0.0,0.0,0.0,0.0,0.0,0.0,0.0,0.0,0.0,0.0,0.0,0.0,8.0845,8.904,9.38,9.4767,10.0079,10.3104,10.3353,10.1006,9.6823,0.0,0.0,0.0,0.0,0.0,0.0,0.0,0.0,0.0,0.0,0.0,0.0,0.0,0.0,0.0,0.0,0.0,0.0,0.0,0.0,0.0,0.0,0.0,0.0,0.0,0.0,0.0,0.0,0.0,0.0,0.0,0.0,0.0,0.0,0.0,0.0,0.0,0.0,0.0,0.0,0.0,6.9391,6.8246,6.8047,0.0,0.0,0.0,0.0,6.8324,7.0365,0.0,0.0,0.0,0.0,0.0,0.0,0.0,0.0,0.0,0.0,0.0,0.0,0.0,0.0,0.0,0.0,0.0,0.0,0.0,0.0,0.0,0.0,0.0,0.0,0.0,0.0,0.0,0.0,0.0,0.0,0.0,0.0,0.0,0.0,0.0,0.0,0.0,0.0,0.0,0.0,0.0,0.0,0.0,0.0,0.0,0.0,0.0,0.0,0.0,0.0,0.0,0.0,0.0,0.0,0.0,0.0,8.0385,8.915,9.3869,9.4105,10.0134,10.3425,10.3307,10.0795,9.6668,0.0,0.0,0.0,0.0,0.0,0.0,0.0,0.0,0.0,0.0,0.0,0.0,0.0,0.0,0.0,0.0,0.0,0.0,0.0,0.0,0.0,0.0,0.0,0.0,0.0,0.0,0.0,0.0,0.0,0.0,0.0,0.0,0.0,0.0,0.0,0.0,0.0,0.0,0.0,0.0,6.8569,6.8146,6.771,0.0,0.0,0.0,0.0,0.0,0.0,7.0398,7.1996,0.0,0.0,0.0,0.0,0.0,0.0,0.0,0.0,0.0,0.0,0.0,0.0,0.0,0.0,0.0,0.0,0.0,0.0,0.0,0.0,0.0,0.0,0.0,0.0,0.0,0.0,0.0,0.0,0.0,0.0,0.0,0.0,0.0,0.0,0.0,0.0,0.0,0.0,0.0,0.0,0.0,0.0,0.0,0.0,0.0,0.0,0.0,0.0,0.0,0.0,0.0,0.0,0.0,0.0,0.0,7.9965,8.915,9.394,9.3983,10.0089,10.3425,10.3307,10.0323,9.6115,9.0836,0.0,0.0,0.0,0.0,0.0,0.0,0.0,0.0,0.0,0.0,0.0,0.0,0.0,0.0,0.0,0.0,0.0,0.0,0.0,0.0,0.0,0.0,0.0,0.0,0.0,0.0,0.0,0.0,0.0,0.0,0.0,0.0,0.0,0.0,0.0,0.0,0.0,0.0,0.0,6.7986,6.7259,0.0,0.0,0.0,0.0,0.0,0.0,0.0,0.0,7.2402,0.0,0.0,0.0,0.0,0.0,0.0,0.0,0.0,0.0,0.0,0.0,0.0,0.0,0.0,0.0,0.0,0.0,0.0,0.0,0.0,0.0,0.0,0.0,0.0,0.0,0.0,0.0,0.0,0.0,0.0,0.0,0.0,0.0,0.0,0.0,0.0,0.0,0.0,0.0,0.0,0.0,0.0,0.0,0.0,0.0,0.0,0.0,0.0,0.0,0.0,0.0,0.0,0.0,0.0,0.0,0.0,8.915,9.394,9.4089,10.0125,10.3425,10.3425,10.1001,9.6491,0.0,0.0,0.0,0.0,0.0,0.0,0.0,0.0,0.0,0.0,0.0,0.0,0.0,0.0,0.0,0.0,0.0,0.0,0.0,0.0,0.0,0.0,0.0,0.0,0.0,0.0,0.0,0.0,0.0,0.0,0.0,0.0,0.0,0.0,0.0,0.0,0.0,0.0,0.0,6.7406,6.6534,0.0,0.0,0.0,0.0,0.0,0.0,0.0,0.0,7.3437,0.0,0.0,0.0,0.0,0.0,0.0,0.0,0.0,0.0,0.0,0.0,0.0,0.0,0.0,0.0,0.0,0.0,0.0,0.0,0.0,0.0,0.0,0.0,0.0,0.0,0.0,0.0,0.0,0.0,0.0,0.0,0.0,0.0,0.0,0.0,0.0,0.0,0.0,0.0,0.0,0.0,0.0,0.0,0.0,0.0,0.0,0.0,0.0,0.0,0.0,0.0,0.0,0.0,0.0,0.0,0.0,0.0,0.0,9.3047,9.3983,9.935,10.2569,10.32,9.9324,9.4263,0.0,0.0,0.0,0.0,0.0,0.0,0.0,0.0,0.0,0.0,0.0,0.0,0.0,0.0,0.0,0.0,0.0,0.0,0.0,0.0,0.0,0.0,0.0,0.0,0.0,0.0,0.0,0.0,0.0,0.0,0.0,0.0,0.0,0.0,0.0,0.0,0.0,0.0,0.0,0.0,0.0,0.0,0.0,0.0,0.0,0.0,0.0,0.0,0.0,0.0,0.0,0.0,0.0,0.0,0.0,0.0,0.0,0.0,0.0,0.0,0.0,0.0,0.0,0.0,0.0,0.0,0.0,0.0,0.0,0.0,0.0,0.0,0.0,0.0,0.0,0.0,0.0,0.0,0.0,0.0,0.0,0.0,0.0,0.0,0.0,0.0,0.0,0.0,0.0,0.0,0.0,0.0,0.0,0.0,0.0,0.0,0.0,0.0,0.0,0.0,0.0,0.0,0.0,0.0,0.0,0.0,0.0,0.0,9.2297,9.3918,9.8601,10.1721,10.2854,9.6658,9.1056,0.0,0.0,0.0,0.0,0.0,0.0,0.0,0.0,0.0,0.0,0.0,0.0,0.0,0.0,0.0,0.0,0.0,0.0,0.0,0.0,0.0,0.0,0.0,0.0,0.0,0.0,0.0,0.0,0.0,0.0,0.0,0.0,0.0,0.0,0.0,0.0,0.0,0.0,0.0,0.0,0.0,0.0,0.0,0.0,0.0,0.0,0.0,0.0,7.0982,0.0,0.0,0.0,0.0,0.0,0.0,0.0,0.0,0.0,0.0,0.0,0.0,0.0,0.0,0.0,0.0,0.0,0.0,0.0,0.0,0.0,0.0,0.0,0.0,0.0,0.0,0.0,0.0,0.0,0.0,0.0,0.0,0.0,0.0,0.0,0.0,0.0,0.0,0.0,0.0,0.0,0.0,0.0,0.0,0.0,0.0,0.0,0.0,0.0,0.0,0.0,0.0,0.0,0.0,0.0,0.0,0.0,0.0,0.0,9.2294,9.3896,9.8573,10.1106,10.1106,9.3246,8.7039,0.0,0.0,0.0,0.0,0.0,0.0,0.0,0.0,0.0,0.0,0.0,0.0,0.0,0.0,0.0,0.0,0.0,0.0,0.0,0.0,0.0,0.0,0.0,0.0,0.0,0.0,0.0,0.0,0.0,0.0,0.0,0.0,0.0,0.0,0.0,0.0,0.0,0.0,0.0,0.0,0.0,0.0,0.0,0.0,0.0,0.0,0.0,0.0,0.0,0.0,0.0,0.0,0.0,0.0,0.0,0.0,0.0,0.0,0.0,0.0,0.0,0.0,0.0,0.0,0.0,0.0,0.0,0.0,0.0,0.0,0.0,0.0,0.0,0.0,0.0,0.0,0.0,0.0,0.0,0.0,0.0,0.0,0.0,0.0,0.0,0.0,0.0,0.0,0.0,0.0,0.0,0.0,0.0,0.0,0.0,0.0,0.0,0.0,0.0,0.0,0.0,0.0,0.0,0.0,0.0,0.0,0.0,0.0,8.9654,9.1188,9.4934,9.6504,9.5576,8.9992,8.5257,0.0,0.0,0.0,0.0,0.0,0.0,0.0,0.0,0.0,0.0,0.0,0.0,0.0,0.0,0.0,0.0,0.0,0.0,0.0,0.0,0.0,0.0,0.0,0.0,0.0,0.0,0.0,0.0,0.0,0.0,0.0,0.0,0.0,0.0,0.0,0.0,0.0,0.0,0.0,0.0,0.0,0.0,0.0,0.0,0.0,0.0,0.0,0.0,0.0,0.0,0.0,0.0,0.0,0.0,0.0,0.0,0.0,0.0,0.0,0.0,0.0,0.0,0.0,0.0,0.0,0.0,0.0,0.0,0.0,0.0,0.0,0.0,0.0,0.0,0.0,0.0,0.0,0.0,0.0,0.0,0.0,0.0,0.0,0.0,0.0,0.0,0.0,0.0,0.0,0.0,0.0,0.0,0.0,0.0,0.0,0.0,0.0,0.0,0.0,0.0,0.0,0.0,0.0,0.0,0.0,0.0,0.0,0.0,0.0,8.919,9.1081,9.108,8.9119,8.6341,8.2899,0.0,0.0,0.0,0.0,0.0,0.0,0.0,0.0,0.0,0.0,0.0,0.0,0.0,0.0,0.0,0.0,0.0,0.0,0.0,0.0,0.0,0.0,0.0,0.0,0.0,0.0,0.0,0.0,0.0,0.0,0.0,0.0,0.0,0.0,0.0,0.0,0.0,0.0,0.0,0.0,0.0,0.0,0.0,0.0,0.0,0.0,0.0,0.0,0.0,0.0,0.0,0.0,0.0,0.0,0.0,0.0,0.0,0.0,0.0,0.0,0.0,0.0,0.0,0.0,0.0,0.0,0.0,0.0,0.0,0.0,0.0,0.0,0.0,0.0,0.0,0.0,0.0,0.0,0.0,0.0,0.0,0.0,0.0,0.0,0.0,0.0,0.0,0.0,0.0,0.0,0.0,0.0,0.0,0.0,0.0,0.0,0.0,0.0,0.0,0.0,0.0,0.0,0.0,0.0,0.0,0.0,0.0,0.0,0.0,8.919,8.7941,8.5875,8.2819,8.1985,7.9097,0.0,0.0,0.0,0.0,0.0,0.0,0.0,0.0,0.0,0.0,0.0,0.0,0.0,0.0,0.0,0.0,0.0,0.0,0.0,0.0,0.0,0.0,0.0,0.0,0.0,0.0,0.0,0.0,0.0,0.0,0.0,0.0,0.0,0.0,0.0,0.0,0.0,0.0,0.0,0.0,0.0,0.0,0.0,0.0,0.0,0.0,0.0,0.0,0.0,0.0,0.0,0.0,0.0,0.0,0.0,0.0,0.0,0.0,0.0,0.0,0.0,0.0,0.0,0.0,0.0,0.0,0.0,0.0,0.0,0.0,0.0,0.0,0.0,0.0,0.0,0.0,0.0,0.0,0.0,0.0,0.0,0.0,0.0,0.0,0.0,0.0,0.0,0.0,0.0,0.0,0.0,0.0,0.0,0.0,0.0,0.0,0.0,0.0,0.0,0.0,0.0,0.0,0.0,0.0,0.0,0.0,0.0,0.0,0.0,8.6229,8.5729,8.4806,8.3462,8.1205,7.8288,7.4928,0.0,0.0,0.0,0.0,0.0,0.0,0.0,0.0,0.0,0.0,0.0,0.0,0.0,0.0,0.0,0.0,0.0,0.0,0.0,0.0,0.0,0.0,0.0,0.0,0.0,0.0,0.0,0.0,0.0,0.0,0.0,0.0,0.0,0.0,0.0,0.0,0.0,0.0,0.0,0.0,0.0,0.0,0.0,0.0,0.0,0.0,0.0,0.0,0.0,0.0,0.0,0.0,0.0,0.0,0.0,0.0,0.0,0.0,0.0,0.0,0.0,0.0,0.0,0.0,0.0,0.0,0.0,0.0,0.0,0.0,0.0,0.0,0.0,0.0,0.0,0.0,0.0,0.0,0.0,0.0,0.0,0.0,0.0,0.0,0.0,0.0,0.0,0.0,0.0,0.0,0.0,0.0,0.0,0.0,0.0,0.0,0.0,0.0,0.0,0.0,0.0,0.0,0.0,0.0,0.0,0.0,0.0,0.0,8.4516,8.4516,8.4271,8.3465,8.0605,7.7692,0.0,0.0,0.0,0.0,0.0,0.0,0.0,0.0,0.0,0.0,0.0,0.0,0.0,0.0,0.0,0.0,0.0,0.0,0.0,0.0,0.0,0.0,0.0,0.0,0.0,0.0,0.0,0.0,0.0,0.0,0.0,0.0,0.0,0.0,0.0,0.0,0.0,0.0,0.0,0.0,0.0,0.0,0.0,0.0,0.0,0.0,0.0,0.0,0.0,0.0,0.0,0.0,0.0,0.0,0.0,0.0,0.0,0.0,0.0,0.0,0.0,0.0,0.0,0.0,0.0,0.0,0.0,0.0,0.0,0.0,0.0,0.0,0.0,0.0,0.0,0.0,0.0,0.0,0.0,0.0,0.0,0.0,0.0,0.0,0.0,0.0,0.0,0.0,0.0,0.0,0.0,0.0,0.0,0.0,0.0,0.0,0.0,0.0,0.0,0.0,0.0,0.0,0.0,0.0,0.0,0.0,0.0,0.0,0.0,8.4516,8.4516,8.3705,8.1734,7.9973,7.6991,0.0,0.0,0.0,0.0,0.0,0.0,0.0,0.0,0.0,0.0,0.0,0.0,0.0,0.0,0.0,0.0,0.0,0.0,0.0,0.0,0.0,0.0,0.0,0.0,0.0,0.0,0.0,0.0,0.0,0.0,0.0,0.0,0.0,0.0,0.0,0.0,0.0,0.0,0.0,0.0,0.0,0.0,0.0,0.0,0.0,0.0,0.0,0.0,0.0,0.0,0.0,0.0,0.0,0.0,0.0,0.0,0.0,0.0,0.0,0.0,0.0,0.0,0.0,0.0,0.0,0.0,0.0,0.0,0.0,0.0,0.0,0.0,0.0,0.0,0.0,0.0,0.0,0.0,0.0,0.0,0.0,0.0,0.0,0.0,0.0,0.0,0.0,0.0,0.0,0.0,0.0,0.0,0.0,0.0,0.0,0.0,0.0,0.0,0.0,0.0,0.0,0.0,0.0,0.0,0.0,0.0,0.0,0.0,0.0,8.4481,0.0,8.4271,0.0,8.0537,7.7622,0.0,0.0,0.0,0.0,0.0,0.0,0.0,0.0,0.0,0.0,0.0,0.0,0.0,0.0,0.0,0.0,0.0,0.0,0.0,0.0,0.0,0.0,0.0,0.0,0.0,0.0,0.0,0.0,0.0,0.0,0.0,0.0,0.0,0.0,0.0,0.0,0.0,0.0,0.0,0.0,0.0,0.0,0.0,0.0,0.0,0.0,0.0,0.0,0.0,0.0,0.0,0.0,0.0,0.0,0.0,0.0,0.0,0.0,0.0,0.0,0.0,0.0,0.0,0.0,0.0,0.0,0.0,0.0,0.0,0.0,0.0,0.0,0.0,0.0,0.0,0.0,0.0,0.0,0.0,0.0,0.0,0.0,0.0,0.0,0.0,0.0,0.0,0.0,0.0,0.0,0.0,0.0,0.0,0.0,0.0,0.0,0.0,0.0,0.0,0.0,0.0,0.0,0.0,0.0,0.0,0.0,0.0,0.0,0.0,8.4481,8.4516,8.452,0.0,8.0888,7.8149,0.0,0.0,0.0,0.0,0.0,0.0,0.0,0.0,0.0,0.0,0.0,0.0,0.0,0.0,0.0,0.0,0.0,0.0,0.0,0.0,0.0,0.0,0.0,0.0,0.0,0.0,0.0,0.0,0.0,0.0,0.0,0.0,0.0,0.0,0.0,0.0,0.0,0.0,0.0,0.0,0.0,0.0,0.0,0.0,0.0,0.0,0.0,0.0,0.0,0.0,0.0,0.0,0.0,0.0,0.0,0.0,0.0,0.0,0.0,0.0,0.0,0.0,0.0,0.0,0.0,0.0,0.0,0.0,0.0,0.0,0.0,0.0,0.0,0.0,0.0,0.0,0.0,0.0,0.0,0.0,0.0,0.0,0.0,0.0,0.0,0.0,0.0,0.0,0.0,0.0,0.0,0.0,0.0,0.0,0.0,0.0,0.0,0.0,0.0,0.0,0.0,0.0,0.0,0.0,0.0,0.0,0.0,0.0,0.0,0.0,8.4445,8.4414,8.428,8.0957,7.864,0.0,0.0,0.0,0.0,0.0,0.0,0.0,0.0,0.0,0.0,0.0,0.0,0.0,0.0,0.0,0.0,0.0,0.0,0.0,0.0,0.0,0.0,0.0,0.0,0.0,0.0,0.0,0.0,0.0,0.0,0.0,0.0,0.0,0.0,0.0,0.0,0.0,0.0,0.0,0.0,0.0,0.0,0.0,0.0,0.0,0.0,0.0,0.0,0.0,0.0,0.0,0.0,0.0,0.0,0.0,0.0,0.0,0.0,0.0,0.0,0.0,0.0,0.0,0.0,0.0,0.0,0.0,0.0,0.0,0.0,0.0,0.0,0.0,0.0,0.0,0.0,0.0,0.0,0.0,0.0,0.0,0.0,0.0,0.0,0.0,0.0,0.0,0.0,0.0,0.0,0.0,0.0,0.0,0.0,0.0,0.0,0.0,0.0,0.0,0.0,0.0,0.0,0.0,0.0,0.0,0.0,0.0,0.0,0.0,0.0,8.3446,0.0,8.4271,8.0989,7.8849,7.8252,0.0,0.0,0.0,0.0,0.0,0.0,0.0,0.0,0.0,0.0,0.0,0.0,0.0,0.0,0.0,0.0,0.0,0.0,0.0,0.0,0.0,0.0,0.0,0.0,0.0,0.0,0.0,0.0,0.0,0.0,0.0,0.0,0.0,0.0,0.0,0.0,0.0,0.0,0.0,0.0,0.0,0.0,0.0,0.0,0.0,0.0,0.0,0.0,0.0,0.0,0.0,0.0,0.0,0.0,0.0,0.0,0.0,0.0,0.0,0.0,0.0,0.0,0.0,0.0,0.0,0.0,0.0,0.0,0.0,0.0,0.0,0.0,0.0,0.0,0.0,0.0,0.0,0.0,0.0,0.0,0.0,0.0,0.0,0.0,0.0,0.0,0.0,0.0,0.0,0.0,0.0,0.0,0.0,0.0,0.0,0.0,0.0,0.0,0.0,0.0,0.0,0.0,0.0,0.0,0.0,0.0,0.0,0.0,0.0,0.0,0.0,8.4516,8.2467,8.0499,0.0,0.0,0.0,0.0,0.0,0.0,0.0,0.0,0.0,0.0,0.0,0.0,0.0,0.0,0.0,0.0,0.0,0.0,0.0,0.0,0.0,0.0,0.0,0.0,0.0,0.0,0.0,0.0,0.0,0.0,0.0,0.0,0.0,0.0,0.0,0.0,0.0,0.0,0.0,0.0,0.0,0.0,0.0,0.0,0.0,0.0,0.0,0.0,0.0,0.0,0.0,0.0,0.0,0.0,0.0,0.0,0.0,0.0,0.0,0.0,0.0,0.0,0.0,0.0,0.0,0.0,0.0,0.0,0.0,0.0,0.0,0.0,0.0,0.0,0.0,0.0,0.0,0.0,0.0,0.0,0.0,0.0,0.0,0.0,0.0,0.0,0.0,0.0,0.0,0.0,0.0,0.0,0.0,0.0,0.0,0.0,0.0,0.0,0.0,0.0,0.0,0.0,0.0,0.0,0.0,0.0,0.0,0.0,0.0,0.0,0.0,8.4659,8.4516,8.4516,0.0,7.8781,0.0,0.0,0.0,0.0,0.0,0.0,0.0,0.0,0.0,0.0,0.0,0.0,0.0,0.0,0.0,0.0,0.0,0.0,0.0,0.0,0.0,0.0,0.0,0.0,0.0,0.0,0.0,0.0,0.0,0.0,0.0,0.0,0.0,0.0,0.0,0.0,0.0,0.0,0.0,0.0,0.0,0.0,0.0,0.0,0.0,0.0,0.0,0.0,0.0,0.0,0.0,0.0,0.0,0.0,0.0,0.0,0.0,0.0,0.0,0.0,0.0,0.0,0.0,0.0,0.0,0.0,0.0,0.0,0.0,0.0,0.0,0.0,0.0,0.0,0.0,0.0,0.0,0.0,0.0,0.0,0.0,0.0,0.0,0.0,0.0,0.0,0.0,0.0,0.0,0.0,0.0,0.0,0.0,0.0,0.0,0.0,0.0,0.0,0.0,0.0,0.0,0.0,0.0,0.0,0.0,0.0,0.0,0.0,0.0,0.0,0.0,0.0,8.4516,8.2957,7.9496,0.0,0.0,0.0,0.0,0.0,0.0,0.0,0.0,0.0,0.0,0.0,0.0,0.0,0.0,0.0,0.0,0.0,0.0,0.0,0.0,0.0,0.0,0.0,0.0,0.0,0.0,0.0,0.0,0.0,0.0,0.0,0.0,0.0,0.0,0.0,0.0,0.0,0.0,0.0,0.0,0.0,0.0,0.0,0.0,0.0,0.0,0.0,0.0,0.0,0.0,0.0,0.0,0.0,0.0,0.0,0.0,0.0,0.0,0.0,0.0,0.0,0.0,0.0,0.0,0.0,0.0,0.0,0.0,0.0,0.0,0.0,0.0,0.0,0.0,0.0,0.0,0.0,0.0,0.0,0.0,0.0,0.0,0.0,0.0,0.0,0.0,0.0,0.0,0.0,0.0,0.0,0.0,0.0,0.0,0.0,0.0,0.0,0.0,0.0,0.0,0.0,0.0,0.0,0.0,0.0,0.0,0.0,0.0,0.0,0.0,8.6254,8.4624,8.4516,8.3089,7.9929,0.0,0.0,0.0,0.0,0.0,0.0,0.0,0.0,0.0,0.0,0.0,0.0,0.0,0.0,0.0,0.0,0.0,0.0,0.0,0.0,0.0,0.0,0.0,0.0,0.0,0.0,0.0,0.0,0.0,0.0,0.0,0.0,0.0,0.0,0.0,0.0,0.0,0.0,0.0,0.0,0.0,0.0,0.0,0.0,0.0,0.0,0.0,0.0,0.0,0.0,0.0,0.0,0.0,0.0,0.0,0.0,0.0,0.0,0.0,0.0,0.0,0.0,0.0,0.0,0.0,0.0,0.0,0.0,0.0,0.0,0.0,0.0,0.0,0.0,0.0,0.0,0.0,0.0,0.0,0.0,0.0,0.0,0.0,0.0,0.0,0.0,0.0,0.0,0.0,0.0,0.0,0.0,0.0,0.0,0.0,0.0,0.0,0.0,0.0,0.0,0.0,0.0,0.0,0.0,0.0,0.0,0.0,0.0,0.0,0.0,0.0,0.0,0.0,0.0,7.9993,0.0,0.0,0.0,0.0,0.0,0.0,0.0,0.0,0.0,0.0,0.0,0.0,0.0,0.0,0.0,0.0,0.0,0.0,0.0,0.0,0.0,0.0,0.0,0.0,0.0,0.0,0.0,0.0,0.0,0.0,0.0,0.0,0.0,0.0,0.0,0.0,0.0,0.0,0.0,0.0,0.0,0.0,0.0,0.0,0.0,0.0,0.0,0.0,0.0,0.0,0.0,0.0,0.0,0.0,0.0,0.0,0.0,0.0,0.0,0.0,0.0,0.0,0.0,0.0,0.0,0.0,0.0,0.0,0.0,0.0,0.0,0.0,0.0,0.0,0.0,0.0,0.0,0.0,0.0,0.0,0.0,0.0,0.0,0.0,0.0,0.0,0.0,0.0,0.0,0.0,0.0,0.0,0.0,0.0,0.0,0.0,0.0,0.0,0.0,0.0,0.0,0.0,0.0,0.0,0.0,0.0,0.0,0.0,0.0,0.0,0.0,0.0,0.0,0.0,0.0,0.0,0.0,0.0,0.0,0.0,0.0,0.0,0.0,0.0,0.0,0.0,0.0,0.0,0.0,0.0,0.0,0.0,0.0,0.0,0.0,0.0,0.0,0.0,0.0,0.0,0.0,0.0,0.0,0.0,0.0,0.0,0.0,0.0,0.0,0.0,0.0,0.0,0.0,0.0,0.0,0.0,0.0,0.0,0.0,0.0,0.0,0.0,0.0,0.0,0.0,0.0,0.0,0.0,0.0,0.0,0.0,0.0,0.0,0.0,0.0,0.0,0.0,0.0,0.0,0.0,0.0,0.0,0.0,0.0,0.0,0.0,0.0,0.0,0.0,0.0,0.0,0.0,0.0,0.0,0.0,0.0,0.0,0.0,0.0,0.0,0.0,0.0,0.0,0.0,0.0,0.0,0.0,0.0,0.0,0.0,0.0,0.0,0.0,0.0,0.0,0.0,0.0,0.0,0.0,0.0,0.0,0.0,0.0,0.0,0.0,0.0,0.0,0.0,0.0,0.0,0.0,0.0,0.0,0.0,0.0,0.0,0.0,0.0,0.0,0.0,0.0,0.0,0.0,0.0,0.0,0.0,0.0,0.0,0.0,0.0,0.0,0.0,0.0,0.0,0.0,0.0,0.0,0.0,0.0,0.0,0.0,0.0,0.0,0.0,0.0,0.0,0.0,0.0,0.0,0.0,0.0,0.0,0.0,0.0,0.0,0.0,0.0,0.0,0.0,0.0,0.0,0.0,0.0,0.0,0.0,0.0,0.0,0.0,0.0,0.0,0.0,0.0,0.0,0.0,0.0,0.0,0.0,0.0,0.0,0.0,0.0,0.0,0.0,0.0,0.0,0.0,0.0,0.0,0.0,0.0,0.0,0.0,0.0,0.0,0.0,0.0,0.0,0.0,0.0,0.0,0.0,0.0,0.0,0.0,0.0,0.0,0.0,0.0,0.0,0.0,0.0,0.0,0.0,0.0,0.0,0.0,0.0,0.0,0.0,0.0,0.0,0.0,0.0,0.0,0.0,0.0,0.0,0.0,0.0,0.0,0.0,0.0,0.0,0.0,0.0,0.0,0.0,0.0,0.0,0.0,0.0,0.0,0.0,0.0,0.0,0.0,0.0,0.0,0.0,0.0,0.0,0.0,0.0,0.0,0.0,0.0,0.0,0.0,0.0,0.0,0.0,0.0,0.0,0.0,0.0,0.0,0.0,0.0,0.0,0.0,0.0,0.0,0.0,0.0,0.0,0.0,0.0,0.0,0.0,0.0,0.0,0.0,0.0,0.0,0.0,0.0,0.0,0.0,0.0,0.0,0.0,0.0,0.0,0.0,0.0,0.0,0.0,0.0,0.0,0.0,0.0,0.0,0.0,0.0,0.0,0.0,0.0,0.0,0.0,0.0,0.0,0.0,0.0,0.0,0.0,0.0,0.0,0.0,0.0,0.0,0.0,0.0,0.0,0.0,0.0,0.0,0.0,0.0,0.0,0.0,0.0,0.0,0.0,0.0,0.0,0.0,0.0,0.0,0.0,0.0,0.0,0.0,0.0,0.0,0.0,0.0,0.0,0.0,0.0,0.0,0.0,0.0,0.0,0.0,0.0,0.0,0.0,0.0,0.0,0.0,0.0,0.0,0.0,0.0,0.0,0.0,0.0,0.0,0.0,0.0,0.0,0.0,0.0,0.0,0.0,0.0,0.0,0.0,0.0,0.0,0.0,0.0,0.0,0.0,0.0,0.0,0.0,0.0,0.0,0.0,0.0,0.0,0.0,0.0,0.0,0.0,0.0,0.0,0.0,0.0,0.0,0.0,0.0,0.0,0.0,0.0,0.0,0.0,0.0,0.0,0.0,0.0,0.0,0.0,0.0,0.0,0.0,0.0,0.0,0.0,0.0,0.0,0.0,0.0,0.0,0.0,0.0,0.0,0.0,0.0,0.0,0.0,0.0,0.0,0.0,0.0,0.0,0.0,0.0,0.0,0.0,0.0,0.0,0.0,0.0,0.0,0.0,0.0,0.0,0.0,0.0,0.0,0.0,0.0,0.0,0.0,0.0,0.0,0.0,0.0,0.0,0.0,0.0,0.0,0.0,0.0,0.0,0.0,0.0,0.0,0.0,0.0,0.0,0.0,0.0,0.0,0.0,0.0,0.0,0.0,0.0,0.0,0.0,0.0,0.0,0.0,0.0,0.0,0.0,0.0,0.0,0.0,0.0,0.0,0.0,0.0,0.0,0.0,0.0,0.0,0.0,0.0,0.0,0.0,0.0,0.0,0.0,0.0,0.0,0.0,0.0,0.0,0.0,0.0,0.0,0.0,0.0,0.0,0.0,0.0,0.0,0.0,0.0,0.0,0.0,0.0,0.0,0.0,0.0,0.0,0.0,0.0,0.0,0.0,0.0,0.0,0.0,0.0,0.0,0.0,0.0,0.0,0.0,0.0,0.0,0.0,0.0,0.0,0.0,0.0,0.0,0.0,0.0,0.0,0.0,0.0,0.0,0.0,0.0,0.0,0.0,0.0,0.0,0.0,0.0,0.0,0.0,0.0,0.0,0.0,0.0,0.0,0.0,0.0,0.0,0.0,0.0,0.0,0.0,0.0,0.0,0.0,0.0,0.0,0.0,0.0,0.0,0.0,0.0,0.0,0.0,0.0,0.0,0.0,0.0,0.0,0.0,0.0,0.0,0.0,0.0,0.0,0.0,0.0,0.0,0.0,0.0,0.0,0.0,0.0,0.0,0.0,0.0,0.0,0.0,0.0,0.0,0.0,0.0,0.0,0.0,0.0,0.0,0.0,0.0,0.0,0.0,0.0,0.0,0.0,0.0,0.0,0.0,0.0,0.0,0.0,0.0,0.0,0.0,0.0,0.0,0.0,0.0,0.0,0.0,0.0,0.0,0.0,0.0,0.0,0.0,0.0,0.0,0.0,0.0,0.0,0.0,0.0,0.0,0.0,0.0,0.0,0.0,0.0,0.0,0.0,0.0,0.0,0.0,0.0,0.0,0.0,0.0,0.0,0.0,0.0,0.0,0.0,0.0,0.0,0.0,0.0,0.0,0.0,0.0,0.0,0.0,0.0,0.0,0.0,0.0,0.0,0.0,0.0,0.0,0.0,0.0,0.0,0.0,0.0,0.0,0.0,0.0,0.0,0.0,0.0,0.0,0.0,0.0,0.0,0.0,0.0,0.0,0.0,0.0,0.0,0.0,0.0,0.0,0.0,0.0,0.0,0.0,0.0,0.0,0.0,0.0,0.0,0.0,0.0,0.0,0.0,0.0,0.0,0.0,0.0,0.0,0.0,0.0,0.0,0.0,0.0,0.0,0.0,0.0,0.0,0.0,0.0,0.0,0.0,0.0,0.0,0.0,0.0,0.0,0.0,0.0,0.0,0.0,0.0,0.0,0.0,0.0,0.0,0.0,0.0,0.0,0.0,0.0,0.0,0.0,0.0,0.0,0.0,0.0,0.0,0.0,0.0,0.0,0.0,0.0,0.0,0.0,0.0,0.0,0.0,0.0,0.0,0.0,0.0,0.0,0.0,0.0,0.0,0.0,0.0,0.0,0.0,0.0,0.0,0.0,0.0,0.0,0.0,0.0,0.0,0.0,0.0,0.0,0.0,0.0,0.0,0.0,0.0,0.0,0.0,0.0,0.0,0.0,0.0,0.0,0.0,0.0,0.0,0.0,0.0,0.0,0.0,0.0,0.0,0.0,0.0,0.0,0.0,0.0,0.0,0.0,0.0,0.0,0.0,0.0,0.0,0.0,0.0,0.0,0.0,0.0,0.0,0.0,0.0,0.0,0.0,0.0,0.0,0.0,0.0,0.0,0.0,0.0,0.0,0.0,0.0,0.0,0.0,0.0,0.0,0.0,0.0]}],[{"header":{"parameterUnit":"kt","parameterCategory":2,"dx":1,"dy":1,"la1":29.587661999999998,"la2":31.0,"lo1":-88.76705300000003,"lo2":-86.6583820000003,"nx":115,"ny":88,"refTime":"2022-10-01T06:00:00:Z","depth":0,"parameterNumber":2,"parameterNumberName":"V-component_of_WINDS"},"data":[0.0,0.0,0.0,0.0,0.0,0.0,-0.1044,0.0,-1.5444,-2.0731,-2.0912,-2.0892,-2.0879,-2.0839,-2.0839,-2.0839,-2.0839,-2.0839,-2.0839,-2.0839,-2.0839,-2.0839,-2.0839,-2.0839,-2.0839,-2.0839,-2.0839,-2.0839,-2.0839,-2.0839,-2.0839,-2.0839,-2.0839,-2.0839,-2.0839,-2.0839,-2.0839,-2.0839,-2.0839,-2.0839,-2.0839,-2.0839,-2.0839,-2.0839,-2.0839,-2.0839,-2.0839,-2.0839,-2.0839,-2.0839,-2.0839,-2.0839,-2.0839,-2.0839,-2.153,-2.1697,-2.2052,-2.2348,-2.3264,-2.2897,-2.2877,-2.2945,-2.5139,-2.6989,-3.0158,-3.457,-3.4887,-3.5415,-3.5858,-3.6966,-3.7192,-3.7644,-3.7644,-3.7644,-3.7644,-3.7644,-3.7644,-3.7644,-3.7738,-3.7727,-3.7529,-3.7372,-3.7421,-3.6393,-3.5631,-3.5436,-3.5176,-3.4839,-3.4514,-3.4371,-3.4254,-3.4254,-3.4267,-3.419,-3.419,-3.419,-3.419,-3.419,-3.419,-3.419,-3.419,-3.419,-3.4203,-3.4203,-3.4268,-3.4293,-3.4212,-3.4813,-3.496,-3.5675,-3.5943,-3.655,-3.7124,-3.7869,-3.8505,0.0,0.0,0.0,0.0,0.0,0.0,-0.4686,-1.1963,-1.8268,-2.0899,-2.0853,-2.0846,-2.0839,-2.0839,-2.0839,-2.0839,-2.0839,-2.0839,-2.0839,-2.0839,-2.0839,-2.0839,-2.0839,-2.0839,-2.0839,-2.0839,-2.0839,-2.0839,-2.0839,-2.0839,-2.0839,-2.0839,-2.0839,-2.0839,-2.0839,-2.0839,-2.0839,-2.0839,-2.0839,-2.0839,-2.0839,-2.0839,-2.0839,-2.0839,-2.0839,-2.0839,-2.0839,-2.0839,-2.0839,-2.0839,-2.0839,-2.1091,-2.1348,-2.1064,-2.2229,-2.4037,-2.4617,-2.5497,-2.6294,-2.6473,-2.6458,-2.7662,-3.0536,-3.2822,-3.5296,-3.698,-3.7055,-3.7192,-3.7192,-3.7644,-3.7644,-3.7644,-3.7644,-3.7644,-3.7644,-3.7644,-3.7644,-3.7631,-3.7766,-3.7619,-3.7421,-3.6978,-3.6354,-3.5553,-3.5202,-3.5034,-3.4774,-3.4436,-3.4203,-3.419,-3.419,-3.419,-3.419,-3.419,-3.419,-3.419,-3.419,-3.419,-3.419,-3.419,-3.419,-3.419,-3.419,-3.4216,-3.4241,-3.4191,-3.4333,-3.428,-3.5107,-3.593,-3.6623,-3.7726,-3.8462,-3.9164,-3.9361,0.0,0.0,0.0,0.0,0.0,-0.835,-1.3824,-1.7727,-1.9845,-2.0879,-2.0846,-2.0839,-2.0839,-2.0839,-2.0839,-2.0839,-2.0839,-2.0839,-2.0839,-2.0839,-2.0839,-2.0839,-2.0839,-2.0839,-2.0839,-2.0839,-2.0839,-2.0839,-2.0839,-2.0839,-2.0839,-2.0839,-2.0839,-2.0839,-2.0839,-2.0839,-2.0839,-2.0839,-2.0839,-2.0839,-2.0839,-2.0839,-2.0839,-2.0839,-2.0839,-2.0839,-2.0839,-2.0839,-2.0839,-2.0839,-2.0839,-2.1348,-2.2592,-2.2022,-2.3608,-2.6364,-2.7796,-2.7971,-2.8213,-2.8331,-2.8099,-2.8708,-3.1141,-3.4239,-3.6968,-3.7812,-3.7657,-3.7644,-3.7644,-3.7644,-3.7644,-3.7644,-3.7644,-3.7644,-3.7644,-3.7579,-3.754,-3.7582,-3.7398,-3.6964,-3.6302,-3.5865,-3.5527,-3.4759,-3.4722,-3.4566,-3.4514,-3.4203,-3.419,-3.419,-3.419,-3.419,-3.419,-3.419,-3.419,-3.419,-3.419,-3.419,-3.419,-3.419,-3.419,-3.419,-3.419,-3.419,-3.4216,-3.4267,-3.4126,-3.4281,-3.4823,-3.7406,-3.8611,-3.9243,-3.9893,-4.0449,-4.3047,-0.3074,-0.4396,-0.2841,-0.3361,-0.6223,-1.6448,-2.0679,-2.0892,-2.0892,-2.0872,-2.0846,-2.0839,-2.0839,-2.0839,-2.0839,-2.0839,-2.0839,-2.0839,-2.0839,-2.0839,-2.0839,-2.0839,-2.0839,-2.0839,-2.0839,-2.0839,-2.0839,-2.0839,-2.0839,-2.0839,-2.0839,-2.0839,-2.0839,-2.0839,-2.0839,-2.0839,-2.0839,-2.0839,-2.0839,-2.0839,-2.0839,-2.0839,-2.0839,-2.0839,-2.0839,-2.0839,-2.0839,-2.0839,-2.0839,-2.0839,-2.0839,-2.2078,-2.4825,-2.3907,-2.6174,-2.953,-3.06,-3.1174,-3.1447,-3.184,-3.1927,-3.209,-3.3016,-3.5439,-3.6639,-3.7469,-3.7657,-3.7657,-3.7644,-3.7644,-3.7644,-3.7644,-3.7644,-3.7644,-3.7644,-3.7514,-3.7397,-3.7203,-3.6746,-3.5968,-3.4934,-3.4428,-3.4408,-3.432,-3.4267,-3.419,-3.419,-3.419,-3.419,-3.419,-3.419,-3.419,-3.419,-3.419,-3.419,-3.419,-3.419,-3.419,-3.419,-3.419,-3.419,-3.419,-3.419,-3.419,-3.4216,-3.428,-3.4152,-3.4669,-3.7097,-3.9989,-4.147,-4.1729,-4.2115,-4.3544,-4.6925,-1.2032,-1.6632,-1.1283,-1.2136,-1.821,-1.9738,-2.0866,-2.0846,-2.0793,-2.0833,-2.08,-2.0813,-2.0787,-2.0767,-2.0773,-2.078,-2.0839,-2.0839,-2.0839,-2.0839,-2.0839,-2.0839,-2.0839,-2.0839,-2.0839,-2.0839,-2.0839,-2.0839,-2.0839,-2.0787,-2.0767,-2.0839,-2.0813,-2.082,-2.0826,-2.0839,-2.0839,-2.0839,-2.0839,-2.0839,-2.0839,-2.0839,-2.0839,-2.0839,-2.0839,-2.0839,-2.0839,-2.0839,-2.0839,-2.0839,-2.1077,-2.1267,-2.4184,-2.6267,-2.9891,-3.2619,-3.3303,-3.4098,-3.5152,-3.5403,-3.5796,-3.6249,-3.7179,-3.7218,-3.7243,-3.7657,-3.7657,-3.7644,-3.7644,-3.7644,-3.7553,-3.7527,-3.7449,-3.741,-3.7254,-3.7059,-3.6864,-3.6514,-3.6046,-3.5088,-3.4352,-3.4293,-3.4281,-3.4217,-3.419,-3.419,-3.419,-3.419,-3.419,-3.419,-3.419,-3.419,-3.419,-3.419,-3.419,-3.419,-3.419,-3.419,-3.419,-3.419,-3.419,-3.419,-3.419,-3.4203,-3.4216,-3.4293,-3.534,-3.7357,-3.9478,-4.2053,-4.3474,-4.3957,-4.5411,-4.7227,-4.991,-1.6908,-1.857,-1.6285,-1.7088,-2.0002,-2.049,-2.0483,-2.0338,-2.0319,-2.0325,-2.0319,-2.0338,-2.0424,-2.0804,-2.0582,-2.0655,-2.0793,-2.078,-2.078,-2.078,-2.0839,-2.0813,-2.0826,-2.0839,-2.0826,-2.0839,-2.0839,-2.0833,-2.078,-2.0714,-2.0688,-2.0767,-2.0622,-2.0694,-2.0773,-2.0806,-2.0813,-2.082,-2.0833,-2.0839,-2.0839,-2.0839,-2.0839,-2.0839,-2.0839,-2.0839,-2.0839,-2.0839,-2.2106,-2.3624,-2.3881,-2.4586,-2.7794,-3.0699,-3.4052,-3.5923,-3.6098,-3.6954,-3.7307,-3.7644,-3.7644,-3.7644,-3.7644,-3.7644,-3.7644,-3.7644,-3.7644,-3.7843,-3.7631,-3.7592,-3.7488,-3.7371,-3.7241,-3.7124,-3.6838,-3.6566,-3.628,-3.5994,-3.534,-3.4428,-3.4305,-3.423,-3.4306,-3.4241,-3.419,-3.419,-3.419,-3.419,-3.419,-3.419,-3.419,-3.419,-3.419,-3.419,-3.419,-3.419,-3.419,-3.419,-3.419,-3.419,-3.419,-3.4381,-3.479,-3.4599,-3.4612,-3.542,-3.6599,-3.8992,-4.2039,-4.3266,-4.4811,-4.6803,-4.8875,-5.029,-5.1953,-1.9128,-1.9056,-1.9069,-1.9359,-1.991,-1.9982,-1.9963,-1.989,-1.9956,-1.9976,-1.9729,-1.9982,-2.0127,-2.053,-2.0286,-2.0404,-2.051,-2.0595,-2.0602,-2.0569,-2.0503,-2.0615,-2.0668,-2.0694,-2.0773,-2.08,-2.0839,-2.0833,-2.076,-2.0543,-2.0543,-2.0563,-2.0358,-2.0477,-2.0595,-2.0708,-2.0688,-2.0701,-2.0793,-2.082,-2.0839,-2.0839,-2.0839,-2.0839,-2.0839,-2.0839,-2.1341,-2.1856,-2.3368,-2.5901,-2.6656,-2.9991,-3.2692,-3.4388,-3.583,-3.7817,-3.8332,-3.8124,-3.7747,-3.7644,-3.7644,-3.7644,-3.7644,-3.7644,-3.7644,-3.7644,-3.7644,-3.7778,-3.7712,-3.7543,-3.7163,-3.6864,-3.6605,-3.6514,-3.6397,-3.6085,-3.5735,-3.5449,-3.4965,-3.4318,-3.4281,-3.4254,-3.4241,-3.419,-3.419,-3.419,-3.419,-3.419,-3.419,-3.419,-3.419,-3.419,-3.419,-3.419,-3.419,-3.419,-3.419,-3.419,-3.419,-3.419,-3.4777,-3.5172,-3.5376,-3.6176,-3.7578,-3.8225,-3.89,-4.1882,-4.57,-4.6681,-4.711,-4.9798,-5.1973,-5.2552,-5.3802,-1.9112,-1.9119,-1.9119,-1.931,-1.9736,-1.933,-1.9343,-1.9567,-1.9837,-1.9689,-1.9183,-1.9657,-1.9936,-1.9982,-1.9996,-2.0035,-2.0094,-2.0094,-2.0101,-2.0094,-2.0167,-2.0259,-2.0358,-2.0424,-2.051,-2.0694,-2.0747,-2.0642,-2.076,-2.0457,-2.0187,-2.0081,-2.0015,-2.0134,-2.0259,-2.0338,-2.0106,-2.0223,-2.0347,-2.0734,-2.0767,-2.0806,-2.0839,-2.0839,-2.0839,-2.0839,-2.1599,-2.3376,-2.5136,-2.7419,-2.9429,-3.4346,-3.6839,-3.6389,-3.6622,-3.6995,-3.7667,-3.7929,-3.7721,-3.767,-3.7657,-3.7644,-3.7644,-3.7644,-3.7618,-3.7791,-3.7725,-3.7634,-3.7804,-3.7411,-3.6748,-3.6358,-3.5981,-3.5904,-3.5852,-3.554,-3.5176,-3.4956,-3.4709,-3.4514,-3.428,-3.4203,-3.419,-3.419,-3.419,-3.419,-3.419,-3.419,-3.419,-3.419,-3.419,-3.419,-3.4381,-3.4177,-3.419,-3.419,-3.419,-3.419,-3.419,-3.5376,-3.5769,-3.6162,-3.7347,-3.874,-4.0321,-4.267,-4.4853,-4.7204,-4.9104,-4.9427,-4.9652,-5.1638,-5.2373,-5.338,-5.3987,-1.9086,-1.9086,-1.9086,-1.9158,-1.9218,-1.9138,-1.9138,-1.9244,-1.9349,-1.9396,-1.9162,-1.9169,-1.9508,-1.9909,-1.9712,-1.9745,-1.9976,-1.9976,-1.9976,-1.9982,-1.9976,-2.0015,-2.0081,-2.0141,-2.0226,-2.022,-2.0272,-2.0299,-2.0319,-2.0187,-1.9982,-1.9778,-1.9699,-1.9765,-1.9811,-1.9903,-1.9696,-1.9917,-2.0126,-2.0556,-2.0622,-2.0714,-2.082,-2.0839,-2.0839,-2.0839,-2.1849,-2.3873,-2.6911,-3.0234,-3.402,-3.8836,-3.9284,-3.8604,-3.7738,-3.7458,-3.7857,-3.7955,-3.7955,-3.7929,-3.7734,-3.7682,-3.7644,-3.7644,-3.7618,-3.7819,-3.7713,-3.7725,-3.7766,-3.709,-3.6393,-3.5683,-3.5384,-3.5241,-3.5111,-3.48,-3.4527,-3.454,-3.4358,-3.4345,-3.419,-3.419,-3.419,-3.419,-3.419,-3.419,-3.419,-3.419,-3.419,-3.419,-3.419,-3.4381,-3.4368,-3.4507,-3.4481,-3.4455,-3.4251,-3.4164,-3.5579,-3.7174,-3.7549,-3.894,-3.9908,-4.1099,-4.2557,-4.4716,-4.8967,-5.072,-4.9939,-5.0096,-5.0979,-5.1797,-5.2753,-5.3399,-5.4025,-1.9086,-1.9086,-1.9086,-1.9086,-1.9086,-1.9086,-1.9092,-1.9086,-1.9086,-1.9092,-1.9086,-1.9086,-1.9224,-1.9569,-1.9409,-1.9475,-1.964,-1.9679,-1.9686,-1.9659,-1.9633,-1.9725,-1.9818,-1.9844,-1.9903,-1.9956,-1.9989,-2.0029,-1.9956,-1.9864,-1.9699,-1.9541,-1.9462,-1.9396,-1.9402,-1.9527,-1.9357,-1.9585,-1.9839,-2.0312,-2.0152,-2.0569,-2.0721,-2.0839,-2.0839,-2.0839,-2.1091,-2.5901,-2.8416,-3.0962,-3.6824,-4.0192,-4.0586,-3.978,-3.8534,-3.7782,-3.8012,-3.8137,-3.8228,-3.8228,-3.7942,-3.7877,-3.7812,-3.7644,-3.7817,-3.7635,-3.7385,-3.7201,-3.6623,-3.6202,-3.5792,-3.5111,-3.4852,-3.4709,-3.4605,-3.4293,-3.419,-3.419,-3.419,-3.419,-3.419,-3.419,-3.419,-3.419,-3.419,-3.419,-3.419,-3.419,-3.5769,-3.5769,-3.6217,-3.6203,-3.6623,-3.6079,-3.4838,-3.441,-3.4169,-3.6275,-3.8036,-3.9095,-4.052,-4.1905,-4.2888,-4.3459,-4.4712,-4.6158,-4.8553,-5.0264,-5.0215,-5.0446,-5.1154,-5.1861,-5.2867,-5.3645,-5.4158,-1.9086,-1.9086,-1.9086,-1.9086,-1.9086,-1.9086,-1.9086,-1.9086,-1.9086,-1.9086,-1.9086,-1.9086,-1.9112,-1.9125,-1.9165,-1.9198,-1.9231,-1.9204,-1.9198,-1.9231,-1.927,-1.933,-1.9442,-1.9547,-1.9613,-1.9883,-1.9857,-1.9798,-1.9877,-1.964,-1.9541,-1.9409,-1.9264,-1.9158,-1.9132,-1.9376,-1.926,-1.9318,-1.9824,-2.0094,-2.0286,-2.0404,-2.0622,-2.0767,-2.0839,-2.1341,-2.2863,-2.7156,-3.0429,-3.2411,-3.7995,-4.0669,-4.0884,-3.9903,-3.886,-3.8051,-3.8218,-3.8475,-3.8527,-3.8527,-3.8501,-3.8475,-3.8059,-3.8013,-3.7804,-3.7595,-3.7394,-3.6011,-3.5178,-3.4901,-3.4656,-3.4605,-3.441,-3.4293,-3.4306,-3.419,-3.419,-3.419,-3.419,-3.419,-3.419,-3.4177,-3.4177,-3.4164,-3.4151,-3.4777,-3.4381,-3.5579,-3.775,-3.8784,-3.966,-4.0521,-4.2304,-4.0628,-3.759,-3.5958,-3.6086,-3.8589,-4.0667,-4.1612,-4.3068,-4.4662,-4.5649,-4.6246,-4.709,-4.7746,-4.8951,-4.9984,-5.0559,-5.1098,-5.15,-5.1703,-5.3038,-5.3892,-5.4253,-1.9086,-1.9086,-1.9086,-1.9086,-1.9086,-1.9086,-1.9086,-1.9086,-1.9086,-1.9086,-1.9086,-1.9086,-1.9086,-1.9086,-1.9086,-1.9086,-1.9086,-1.9086,-1.9086,-1.9086,-1.9086,-1.9138,-1.9198,-1.9257,-1.9316,-1.9316,-1.9356,-1.9382,-1.9415,-1.9277,-1.9251,-1.9224,-1.9138,-1.9099,-1.9112,-1.9185,-1.9218,-1.9045,-1.9514,-1.9811,-2.0108,-2.0286,-2.0523,-2.0787,-2.1091,-2.1849,-2.4888,-2.8416,-3.1939,-3.4888,-3.7928,-4.0521,-4.0263,-3.9502,-3.8838,-3.8617,-3.8783,-3.8695,-3.8955,-3.9072,-3.9072,-3.8994,-3.8527,-3.8756,-3.8531,-3.8021,-3.7016,-3.5417,-3.4511,-3.4217,-3.441,-3.4345,-3.4216,-3.419,-3.419,-3.419,-3.419,-3.419,-3.419,-3.4316,-3.4138,-3.4316,-3.4277,-3.4198,-3.5417,-3.8109,-3.8124,-3.9125,-4.052,-4.1558,-4.2855,-4.4627,-4.6418,-4.3608,-4.0817,-4.048,-4.0598,-4.2887,-4.3505,-4.4628,-4.5649,-4.7435,-4.8826,-4.8426,-4.8654,-4.9527,-5.0152,-5.0627,-5.1199,-5.16,-5.1337,-5.1113,-5.2561,-5.3645,-5.4101,-1.9086,-1.9086,-1.9086,-1.9086,-1.9086,-1.9086,-1.9086,-1.9086,-1.9086,-1.9086,-1.9086,-1.9086,-1.9086,-1.9086,-1.9086,-1.9086,-1.9086,-1.9086,-1.9086,-1.9086,-1.9086,-1.9086,-1.9086,-1.9106,-1.9086,-1.9112,-1.9106,-1.9092,-1.9086,-1.9125,-1.9092,-1.9086,-1.9099,-1.9086,-1.9086,-1.9106,-1.9112,-1.9158,-1.929,-1.96,-1.9897,-2.0187,-2.0431,-2.1044,-2.1599,-2.3873,-2.6147,-3.0429,-3.3455,-3.613,-3.9284,-4.0202,-4.0051,-3.9238,-3.8654,-3.8398,-3.915,-3.9345,-3.9617,-3.9656,-3.9656,-3.9513,-4.0067,-3.9854,-3.9182,-4.0206,-3.8477,-3.557,-3.4306,-3.5132,-3.5132,-3.4995,-3.4586,-3.4394,-3.419,-3.419,-3.419,-3.419,-3.4355,-3.4526,-3.4539,-3.5025,-3.4945,-3.4838,-3.8319,-4.1431,-4.1857,-4.2479,-4.3068,-4.4112,-4.5594,-4.7355,-4.8199,-4.6456,-4.572,-4.5369,-4.5227,-4.6018,-4.6613,-4.7243,-4.7835,-4.9641,-4.9831,-4.9831,-4.9849,-4.9867,-5.0209,-5.1008,-5.1066,-5.0837,-5.0734,-5.0841,-5.1985,-5.3285,-5.4025,-1.9086,-1.9086,-1.9086,-1.9086,-1.9086,-1.9086,-1.9086,-1.9086,-1.9086,-1.9086,-1.9086,-1.9086,-1.9086,-1.9086,-1.9086,-1.9086,-1.9086,-1.9086,-1.9086,-1.9086,-1.9086,-1.9086,-1.9086,-1.9086,-1.9086,-1.9086,-1.9086,-1.9086,-1.9086,-1.9086,-1.9086,-1.9086,-1.9086,-1.9086,-1.9086,-1.9086,-1.9086,-1.9099,-1.9125,-1.9422,-1.9771,-2.0035,-2.0266,-2.1428,-2.385,-2.6147,-2.6656,-3.219,-3.5973,-3.6968,-3.9682,-4.0725,-3.9689,-3.9155,-3.9001,-3.8924,-3.9457,-3.9981,-4.0189,-4.0241,-4.0482,-4.1096,-4.1886,-4.2454,-4.3256,-4.4311,-4.1465,-3.6891,-3.6434,-3.6803,-3.716,-3.6581,-3.6365,-3.6365,-3.6756,-3.6756,-3.6756,-3.6365,-3.5849,-3.516,-3.5735,-3.7463,-3.7833,-3.933,-4.2367,-4.44,-4.5051,-4.5438,-4.6035,-4.6456,-4.8154,-4.8993,-4.9773,-4.9735,-4.9433,-4.9016,-4.7835,-4.8027,-4.8236,-4.8844,-4.9452,-4.9641,-4.9831,-5.002,-4.9868,-4.9999,-5.0033,-5.038,-5.0569,-5.0077,-5.0284,-5.1073,-5.21,-5.3437,-5.4348,-1.9086,-1.9086,-1.9086,-1.9086,-1.9086,-1.9086,-1.9086,-1.9086,-1.9086,-1.9086,-1.9086,-1.9086,-1.9086,-1.9086,-1.9086,-1.9086,-1.9086,-1.9086,-1.9086,-1.9086,-1.9086,-1.9086,-1.9322,-1.9086,-1.9086,-1.9086,-1.9086,-1.9322,-1.9086,-1.9322,-1.9787,-1.9086,-2.0023,-1.9551,-1.9322,-1.9551,-1.9551,-1.9558,-1.9558,-1.9774,-1.9876,-2.0109,-2.0673,-2.1714,-2.3976,-2.7165,-2.9681,-3.4216,-3.7747,-3.8849,-4.0736,-4.042,-3.9501,-3.9406,-3.9371,-3.9994,-4.0098,-4.0396,-4.113,-4.1466,-4.2249,-4.3455,-4.4542,-4.5857,-4.8872,-5.1247,-4.9124,-4.088,-3.9946,-4.0582,-4.1416,-4.0767,-3.9615,-3.9325,-3.951,-3.9908,-4.0321,-4.0168,-3.9862,-4.0229,-4.1297,-4.1857,-4.222,-4.3868,-4.5511,-4.7362,-4.8027,-4.8426,-4.8635,-4.8826,-4.9489,-4.9489,-4.9887,-4.9868,-4.9812,-4.9812,-4.9831,-4.9622,-4.9622,-4.9831,-4.9831,-4.9831,-5.002,-5.002,-5.002,-5.0039,-4.998,-5.0001,-5.0039,-5.0361,-5.076,-5.1462,-5.2374,-5.3816,-5.4784,-1.9086,-1.9086,-1.9086,-1.9086,-1.9086,-1.9086,-1.9086,-1.9086,-1.9086,-1.9086,-1.9086,-1.9086,-1.9086,-1.9086,-1.9086,-1.9794,-2.0494,-1.9558,-2.0258,-2.2578,-2.0487,-1.9794,-2.0487,-1.9787,-1.9086,-1.9086,-1.9086,-1.9544,-2.1413,-2.2344,-2.3046,-2.328,-2.328,-2.2812,-2.3748,-2.328,-2.2351,-2.1428,-2.1465,-2.1857,-2.2412,-2.3445,-2.4513,-2.4859,-2.8469,-3.1145,-3.3455,-3.6234,-3.9256,-4.0348,-4.1044,-4.0514,-3.954,-3.9894,-4.017,-4.0946,-4.0795,-4.1413,-4.2885,-4.317,-4.4629,-4.6283,-4.7309,-4.8676,-5.2224,-5.3717,-5.1829,-4.6073,-4.4253,-4.3858,-4.4487,-4.3281,-4.2609,-4.207,-4.1281,-4.1479,-4.1692,-4.2544,-4.4067,-4.6136,-4.75,-4.6721,-4.6403,-4.7272,-4.788,-4.8826,-4.9034,-4.9224,-4.9622,-5.002,-5.002,-5.002,-5.002,-5.002,-5.002,-5.002,-5.002,-5.002,-5.002,-5.002,-5.002,-5.002,-5.002,-5.002,-5.002,-5.002,-5.0039,-5.0039,-5.0058,-5.0551,-5.114,-5.169,-5.2317,-5.3759,-5.4633,-1.9086,-1.9086,-1.9073,-1.9309,-1.9787,-2.0251,-2.0258,-2.0487,-2.0722,-2.0023,-2.0957,-2.0487,-2.0473,-1.9981,-1.9739,-2.1149,-2.2804,-2.2344,-2.3514,-2.607,-2.328,-2.2351,-2.3506,-2.1178,-2.0694,-2.0251,-2.0237,-2.164,-2.3973,-2.6525,-2.7916,-2.7684,-2.7231,-2.8157,-2.6999,-2.6989,-2.6989,-2.4906,-2.5183,-2.5601,-2.6163,-2.7905,-2.9007,-3.0412,-3.2803,-3.5103,-3.5702,-3.8503,-4.0515,-4.0916,-4.1097,-4.0325,-3.9797,-4.0286,-4.0963,-4.1156,-4.173,-4.2953,-4.5795,-4.6503,-4.749,-4.9242,-4.9553,-5.0445,-5.2719,-5.4216,-5.3859,-5.0615,-4.7701,-4.6796,-4.7262,-4.5258,-4.3838,-4.3721,-4.4256,-4.4045,-4.3867,-4.5719,-4.6651,-4.8308,-4.8694,-4.9067,-4.9128,-4.947,-5.002,-5.002,-5.002,-4.9831,-5.002,-5.002,-5.002,-5.002,-5.002,-5.002,-5.002,-5.002,-5.002,-5.002,-5.002,-5.002,-5.002,-5.002,-5.002,-5.002,-5.002,-5.002,-5.002,-5.0039,-5.0096,-5.0627,-5.1695,-5.2247,-5.2686,-5.3323,-5.4386,-1.9086,-1.9079,-1.8974,-2.0388,-2.303,-2.5363,-2.6293,-2.6525,-2.6293,-2.6061,-2.6535,-2.6535,-2.5569,-2.36,-2.1895,-2.2127,-2.7221,-2.6758,-2.6989,-2.8388,-2.6767,-2.6525,-2.673,-2.5293,-2.3674,-2.3272,-2.3915,-2.5284,-2.7434,-2.8609,-2.8619,-2.9081,-2.8619,-2.8388,-2.885,-2.9311,-2.8378,-2.7453,-2.7704,-2.7732,-2.7914,-2.8683,-2.9331,-2.9996,-3.339,-3.5843,-3.6684,-3.9503,-4.0774,-4.1043,-4.0769,-4.056,-3.968,-4.0383,-4.0977,-4.1456,-4.3477,-4.6233,-4.8627,-4.9531,-5.0577,-5.2615,-5.2362,-5.3209,-5.4408,-5.465,-5.4671,-5.3937,-5.185,-5.0723,-5.0668,-5.0077,-4.9006,-4.8392,-4.8173,-4.8272,-4.8154,-4.8154,-4.9085,-4.9221,-4.9773,-4.9717,-4.9679,-5.002,-5.002,-5.002,-5.002,-5.002,-5.002,-5.002,-5.002,-5.002,-5.002,-5.002,-5.002,-5.002,-5.002,-5.002,-5.002,-5.002,-5.002,-5.002,-5.002,-5.002,-5.002,-5.002,-5.002,-5.0039,-5.1101,-5.1871,-5.2429,-5.3356,-5.4692,-5.5435,-5.6225,-1.9873,-2.1318,-1.9718,-2.1678,-2.5811,-2.7694,-2.8388,-2.8388,-2.8388,-2.8388,-2.9141,-3.1389,-3.2148,-3.0127,-2.5935,-2.6093,-2.903,-2.9311,-3.0233,-3.1621,-3.0003,-2.9081,-3.0201,-3.1356,-2.9202,-2.7675,-2.946,-3.1555,-3.0682,-3.185,-3.3233,-3.2777,-3.2777,-3.2777,-3.2777,-3.2548,-3.1817,-3.0671,-3.1687,-3.219,-3.0233,-3.239,-3.3404,-3.467,-3.6694,-3.7709,-3.8639,-4.0528,-4.0916,-4.0656,-4.0893,-4.0383,-3.9976,-4.0244,-4.1051,-4.1685,-4.4431,-4.8272,-5.194,-5.2474,-5.3203,-5.5211,-5.4856,-5.4955,-5.5312,-5.5316,-5.4974,-5.4464,-5.3499,-5.2599,-5.3057,-5.2138,-5.1747,-5.1273,-5.0682,-5.0511,-5.0379,-5.0058,-4.9944,-4.9868,-4.9868,-4.9868,-5.002,-5.002,-5.002,-5.002,-5.002,-5.002,-5.002,-5.002,-5.002,-5.002,-5.002,-5.002,-5.002,-5.002,-5.002,-5.002,-5.002,-5.002,-5.002,-5.002,-5.002,-5.002,-5.002,-5.002,-5.0151,-5.071,-5.2202,-5.3651,-5.4572,-5.5387,-5.667,-5.7958,-5.8966,-2.3069,-2.4997,-2.2912,-2.4704,-2.86,-2.9535,-2.995,-2.9546,-2.994,-2.9805,-3.0597,-3.4899,-3.6929,-3.6036,-3.1752,-3.1392,-3.2697,-3.1913,-3.2811,-3.511,-3.3049,-3.1555,-3.3929,-3.5116,-3.4164,-3.2548,-3.3753,-3.5409,-3.4815,-3.6249,-3.6475,-3.7405,-3.7179,-3.7179,-3.694,-3.7405,-3.5281,-3.3655,-3.5187,-3.5199,-3.3929,-3.5284,-3.7155,-3.8096,-3.8666,-3.9732,-4.0464,-4.0929,-4.0825,-4.0396,-4.0612,-4.0292,-4.0051,-4.0617,-4.1872,-4.3723,-4.7118,-5.1364,-5.4937,-5.5293,-5.5857,-5.6846,-5.6563,-5.5712,-5.5297,-5.5012,-5.5012,-5.4558,-5.3842,-5.3092,-5.3778,-5.3114,-5.2696,-5.2279,-5.1728,-5.1197,-5.1064,-5.0589,-5.0039,-5.002,-5.002,-5.002,-5.002,-5.002,-5.002,-5.002,-5.002,-5.002,-5.002,-5.002,-5.002,-5.002,-5.002,-5.002,-5.002,-5.002,-5.002,-5.002,-5.002,-5.002,-5.002,-5.002,-5.002,-5.0378,-5.0378,-5.047,-5.1006,-5.1511,-5.3279,-5.6079,-5.7016,-5.7498,-5.8488,-5.9623,-6.0761,-3.1003,-2.9566,-3.3302,-3.3243,-3.1518,-3.355,-3.4486,-3.4679,-3.4847,-3.4317,-3.5732,-3.5795,-3.6871,-3.7405,-3.5973,-3.6463,-3.6537,-3.5587,-3.4646,-3.6916,-3.4869,-3.5289,-3.6036,-3.6851,-3.6261,-3.582,-3.6448,-3.6927,-3.6736,-3.7392,-3.7423,-3.7579,-3.7605,-3.7605,-3.7631,-3.7644,-3.7192,-3.6513,-3.7282,-3.6966,-3.6727,-3.6991,-3.8007,-3.8617,-3.9176,-3.9747,-4.0344,-4.0734,-4.0942,-4.0916,-4.0077,-4.0091,-4.0383,-4.139,-4.2877,-4.8994,-5.1655,-5.5025,-5.7623,-5.8161,-5.7357,-5.73,-5.6664,-5.5828,-5.5221,-5.5012,-5.5012,-5.4898,-5.4784,-5.4218,-5.3873,-5.3626,-5.3266,-5.2658,-5.1842,-5.1349,-5.114,-5.057,-5.0191,-5.0096,-4.9925,-4.9925,-4.9887,-5.002,-5.002,-5.002,-5.002,-5.002,-5.002,-5.002,-5.002,-5.002,-5.002,-5.002,-5.002,-5.002,-5.002,-5.002,-5.002,-5.002,-5.002,-5.002,-5.019,-5.0566,-5.0975,-5.1748,-5.2103,-5.4399,-5.6709,-5.846,-6.0166,-6.1265,-6.1555,-6.1452,-6.2299,-3.3874,-3.3623,-3.5717,-3.5652,-3.4177,-3.5283,-3.5955,-3.5955,-3.5955,-3.6098,-3.6293,-3.6088,-3.6243,-3.6748,-3.7487,-3.7747,-3.7421,-3.6706,-3.6345,-3.6332,-3.6358,-3.6488,-3.6735,-3.6709,-3.6644,-3.6397,-3.6332,-3.6449,-3.667,-3.6709,-3.68,-3.6748,-3.7046,-3.7332,-3.7592,-3.7644,-3.8026,-3.8209,-3.8065,-3.7644,-3.7644,-3.7644,-3.7825,-3.8098,-3.8591,-3.9332,-4.0085,-4.0474,-4.0552,-4.0322,-3.9746,-3.9886,-4.0801,-4.1069,-4.6148,-5.3062,-5.5949,-5.6533,-5.8292,-5.8524,-5.7708,-5.6854,-5.6037,-5.5449,-5.5126,-5.5012,-5.5012,-5.5012,-5.4974,-5.4898,-5.4481,-5.4424,-5.4329,-5.3683,-5.2734,-5.1994,-5.188,-5.1614,-5.1121,-5.0076,-4.9999,-4.9961,-4.9944,-5.0039,-5.002,-5.002,-5.002,-5.002,-5.002,-5.002,-5.002,-5.002,-5.002,-5.002,-5.002,-5.002,-5.002,-5.002,-5.002,-5.002,-5.002,-5.019,-5.0378,-5.0878,-5.1425,-5.2206,-5.6047,-5.8956,-6.1668,-6.2667,-6.3789,-6.5151,-6.5709,-6.4851,-6.5054,-3.5345,-3.5748,-3.5618,-3.5566,-3.5566,-3.5553,-3.5553,-3.5527,-3.554,-3.5566,-3.5735,-3.5533,-3.5624,-3.6007,-3.68,-3.7407,-3.7029,-3.6307,-3.5761,-3.5748,-3.5761,-3.5709,-3.5566,-3.5566,-3.5631,-3.5774,-3.5761,-3.5852,-3.5981,-3.6085,-3.5968,-3.6085,-3.6618,-3.7007,-3.7423,-3.754,-3.8143,-3.8646,-3.8117,-3.7657,-3.7644,-3.7644,-3.7657,-3.7721,-3.8085,-3.889,-3.9747,-4.0007,-4.0072,-4.0137,-3.9922,-4.0534,-4.2959,-4.4813,-5.0433,-5.7073,-5.7481,-5.7021,-5.8307,-5.8011,-5.7138,-5.636,-5.562,-5.5012,-5.5012,-5.5012,-5.5012,-5.5012,-5.5012,-5.4993,-5.4898,-5.4974,-5.486,-5.4576,-5.3626,-5.2791,-5.2734,-5.2563,-5.2171,-5.1197,-5.0659,-4.9947,-4.998,-5.0152,-5.0229,-5.002,-5.002,-5.002,-5.002,-5.002,-5.002,-5.002,-5.002,-5.002,-5.002,-5.002,-5.002,-5.002,-5.002,-5.002,-5.0209,-5.0378,-5.1633,-5.2138,-5.2572,-5.6474,-6.0949,-6.3708,-6.393,-6.5657,-6.7077,-6.6899,-6.6792,-6.7956,-6.8065,-3.6559,-3.5124,-3.4592,-3.4371,-3.441,-3.4371,-3.4488,-3.441,-3.4475,-3.4735,-3.4875,-3.469,-3.5133,-3.5943,-3.5962,-3.6132,-3.6079,-3.5332,-3.5176,-3.515,-3.5124,-3.4943,-3.4605,-3.4592,-3.48,-3.5111,-3.5163,-3.541,-3.5644,-3.5813,-3.5891,-3.5994,-3.6449,-3.68,-3.7111,-3.7436,-3.7657,-3.8065,-3.7747,-3.7657,-3.7644,-3.7644,-3.7644,-3.7657,-3.7812,-3.8371,-3.9059,-3.9435,-3.9682,-4.0176,-3.9629,-4.1792,-4.7073,-5.4378,-5.8495,-5.9511,-5.9395,-5.891,-5.8714,-5.786,-5.71,-5.6401,-5.5601,-5.5012,-5.5389,-5.5201,-5.5389,-5.599,-5.4993,-5.4955,-5.4917,-5.4993,-5.4993,-5.4841,-5.4234,-5.3702,-5.3513,-5.2962,-5.2998,-5.4142,-5.1657,-5.0384,-5.017,-5.0583,-5.1009,-5.1123,-5.0446,-5.0144,-4.9656,-4.9393,-4.9431,-4.964,-4.9623,-4.9906,-4.9963,-5.0001,-5.0001,-5.002,-5.002,-5.002,-5.0209,-5.1278,-5.2727,-5.5012,-5.7446,-6.1051,-6.4637,-6.5337,-6.579,-6.6869,-6.7184,-6.7163,-6.6967,-6.755,-6.8111,-3.6533,-3.5021,-3.4423,-3.419,-3.419,-3.419,-3.419,-3.419,-3.419,-3.4345,-3.4501,-3.4333,-3.4462,-3.4904,-3.493,-3.493,-3.4904,-3.4644,-3.4553,-3.4566,-3.4579,-3.4436,-3.4254,-3.419,-3.4306,-3.4553,-3.4553,-3.4709,-3.4917,-3.493,-3.5137,-3.5501,-3.6007,-3.6657,-3.7176,-3.7566,-3.7799,-3.802,-3.7799,-3.7644,-3.7644,-3.7644,-3.7644,-3.7644,-3.767,-3.7786,-3.8306,-3.8682,-3.928,-3.9929,-4.0447,-4.2464,-4.746,-5.5523,-5.9892,-6.004,-5.9986,-5.9416,-5.8258,-5.7689,-5.7478,-5.7332,-5.5846,-5.6589,-5.8326,-5.6569,-5.6755,-5.8103,-5.6383,-5.5366,-5.493,-5.4953,-5.4955,-5.5106,-5.4272,-5.338,-5.2374,-5.2431,-5.2893,-5.2912,-5.235,-5.1487,-5.1504,-5.3403,-5.322,-5.2103,-5.1412,-5.0441,-4.9211,-4.8596,-4.8539,-4.8677,-4.8904,-4.9244,-4.9396,-4.9811,-4.9906,-5.0001,-5.002,-5.002,-5.0566,-5.1839,-5.432,-5.7849,-6.1722,-6.4617,-6.5596,-6.66,-6.6768,-6.6937,-6.6943,-6.687,-6.6429,-6.6598,-6.7037,-3.6138,-3.5228,-3.4488,-3.419,-3.419,-3.419,-3.419,-3.419,-3.419,-3.419,-3.4203,-3.419,-3.4228,-3.4203,-3.4216,-3.419,-3.4254,-3.4216,-3.419,-3.419,-3.419,-3.419,-3.419,-3.419,-3.419,-3.4203,-3.4241,-3.419,-3.419,-3.428,-3.4553,-3.5085,-3.5709,-3.6449,-3.7306,-3.754,-3.7812,-3.7942,-3.7708,-3.7592,-3.7475,-3.754,-3.7644,-3.7644,-3.7644,-3.7657,-3.7708,-3.8189,-3.8929,-3.9656,-4.0552,-4.319,-4.8462,-5.5712,-6.0074,-5.9948,-5.9796,-5.8999,-5.8002,-5.8096,-5.8496,-5.8751,-5.796,-5.8467,-6.1888,-6.0006,-5.9924,-5.8939,-5.9151,-5.6789,-5.5292,-5.5595,-5.6099,-5.6061,-5.5935,-5.5029,-5.3207,-5.2252,-5.1771,-5.2233,-5.3529,-5.4014,-5.4523,-5.557,-5.6239,-5.4281,-5.2912,-5.1866,-5.0161,-4.9124,-4.8254,-4.8261,-4.804,-4.8473,-4.885,-4.9526,-4.9942,-4.9961,-5.073,-5.0858,-5.1768,-5.3282,-5.6719,-5.9538,-6.2341,-6.4237,-6.5595,-6.6392,-6.7212,-6.737,-6.6528,-6.4499,-6.4551,-6.4887,-6.5181,-3.4934,-3.5722,-3.4657,-3.4203,-3.419,-3.419,-3.419,-3.419,-3.419,-3.419,-3.419,-3.419,-3.419,-3.419,-3.419,-3.419,-3.419,-3.419,-3.419,-3.419,-3.419,-3.419,-3.419,-3.419,-3.419,-3.419,-3.419,-3.419,-3.419,-3.419,-3.4488,-3.5124,-3.5696,-3.6267,-3.6955,-3.741,-3.7436,-3.7176,-3.741,-3.7332,-3.6929,-3.7332,-3.7618,-3.7644,-3.7644,-3.7644,-3.7708,-3.8124,-3.8488,-3.8914,-4.0481,-4.4191,-5.0317,-5.6518,-6.021,-6.0081,-5.9245,-5.841,-5.8188,-5.9121,-5.9808,-5.9862,-6.0873,-6.2063,-6.2194,-6.5385,-6.5344,-5.9155,-6.0156,-6.0065,-5.6968,-5.7157,-5.8466,-5.8667,-5.8431,-5.7686,-5.5672,-5.2508,-5.2081,-5.2155,-5.545,-5.8763,-5.7404,-5.7968,-5.793,-5.6784,-5.5031,-5.3451,-5.1583,-4.9552,-4.8446,-4.7894,-4.7391,-4.7494,-4.7481,-4.8223,-4.9917,-5.071,-5.2672,-5.2874,-5.3658,-5.5818,-5.8638,-6.0151,-6.2067,-6.3464,-6.4471,-6.4417,-6.4889,-6.4984,-6.3876,-6.2173,-6.1857,-6.2357,-6.285,-3.5082,-3.4852,-3.4305,-3.4294,-3.4203,-3.419,-3.419,-3.419,-3.419,-3.419,-3.419,-3.419,-3.419,-3.419,-3.419,-3.419,-3.419,-3.419,-3.419,-3.419,-3.419,-3.419,-3.419,-3.419,-3.419,-3.419,-3.419,-3.419,-3.419,-3.4216,-3.467,-3.5488,-3.5839,-3.6384,-3.728,-3.7527,-3.7358,-3.6877,-3.6734,-3.6747,-3.689,-3.7477,-3.7779,-3.783,-3.7644,-3.7644,-3.7657,-3.7838,-3.828,-3.9162,-4.1556,-4.6213,-5.2959,-5.7372,-6.008,-5.9929,-5.9412,-5.9175,-6.0007,-6.0143,-6.1096,-6.3107,-6.3259,-6.3711,-6.6886,-6.849,-6.969,-6.489,-6.3809,-6.2021,-6.0424,-6.0298,-6.0813,-6.1718,-6.0213,-5.8426,-5.7656,-5.558,-5.5551,-5.8186,-6.0816,-6.1856,-6.1804,-6.1918,-6.1199,-5.9165,-5.7859,-5.6465,-5.2273,-5.0472,-4.8884,-4.7739,-4.7241,-4.6912,-4.6374,-4.7796,-4.9729,-5.2052,-5.4354,-5.5269,-5.5225,-5.7396,-5.905,-6.05,-6.1191,-6.2676,-6.3101,-6.2718,-6.1986,-6.1046,-6.0364,-6.0497,-6.1321,-6.1318,-6.2439,-3.5034,-3.4514,-3.4254,-3.4307,-3.4216,-3.419,-3.419,-3.419,-3.419,-3.419,-3.419,-3.419,-3.419,-3.419,-3.419,-3.419,-3.419,-3.419,-3.419,-3.419,-3.419,-3.419,-3.419,-3.419,-3.419,-3.419,-3.419,-3.419,-3.419,-3.419,-3.4774,-3.5735,-3.5943,-3.6553,-3.7566,-3.7618,-3.7241,-3.6631,-3.6191,-3.6178,-3.654,-3.7201,-3.7817,-3.7817,-3.7644,-3.7644,-3.7644,-3.7644,-3.8202,-3.9254,-4.231,-4.7484,-5.4214,-5.8355,-6.0043,-5.9948,-5.9628,-6.0307,-6.1353,-6.1967,-6.3741,-6.583,-6.6009,-6.7362,-7.0081,-7.0718,-7.0553,-7.0177,-6.7528,-6.5369,-6.4921,-6.3367,-6.2482,-6.3647,-6.164,-6.0118,-5.9292,-5.8448,-6.0259,-6.3418,-6.4304,-6.4431,-6.4283,-6.4161,-6.3223,-6.1354,-6.0177,-5.8573,-5.477,-5.2821,-5.0607,-4.8724,-4.7821,-4.7518,-4.759,-4.866,-5.073,-5.3053,-5.5899,-5.778,-5.7229,-5.8169,-5.9489,-6.0581,-6.0711,-6.1167,-6.1424,-6.1119,-5.9887,-5.8831,-5.9772,-6.0503,-6.1106,-6.2238,-6.3773,-3.4553,-3.493,-3.4436,-3.4306,-3.4254,-3.4203,-3.419,-3.419,-3.419,-3.419,-3.419,-3.419,-3.419,-3.419,-3.419,-3.4203,-3.4241,-3.4203,-3.4203,-3.4254,-3.4203,-3.419,-3.419,-3.419,-3.419,-3.419,-3.419,-3.419,-3.419,-3.428,-3.4826,-3.5761,-3.5981,-3.6592,-3.7644,-3.7605,-3.7098,-3.6332,-3.5999,-3.5986,-3.6085,-3.7196,-3.7751,-3.7817,-3.7644,-3.7644,-3.7644,-3.7682,-3.8215,-3.9411,-4.2571,-4.7746,-5.4052,-5.8108,-6.0269,-6.0453,-6.0979,-6.1324,-6.2051,-6.4619,-6.6191,-6.7409,-6.9121,-7.0097,-7.0674,-7.0684,-7.0684,-7.0735,-7.0137,-6.9986,-6.9029,-6.5845,-6.3647,-6.4237,-6.3874,-6.2688,-6.1348,-6.0715,-6.1558,-6.3745,-6.4358,-6.4377,-6.4304,-6.4304,-6.4255,-6.3391,-6.2091,-6.0161,-5.8413,-5.5919,-5.3075,-5.1002,-5.0251,-5.0,-4.9564,-4.9542,-5.1924,-5.4215,-5.735,-5.8996,-5.8305,-5.8523,-5.9716,-5.9697,-5.9975,-5.9999,-6.0253,-5.9658,-5.8354,-5.8707,-6.0309,-6.1361,-6.242,-6.3756,-6.5137,-3.4527,-3.4836,-3.4344,-3.4441,-3.4761,-3.4358,-3.419,-3.419,-3.419,-3.419,-3.419,-3.419,-3.419,-3.419,-3.419,-3.4371,-3.4722,-3.4358,-3.4397,-3.4735,-3.4358,-3.419,-3.419,-3.419,-3.419,-3.419,-3.419,-3.419,-3.4216,-3.4592,-3.5189,-3.593,-3.6345,-3.6903,-3.7514,-3.7644,-3.7085,-3.6163,-3.5869,-3.5895,-3.6007,-3.7122,-3.7667,-3.7725,-3.7644,-3.7644,-3.7644,-3.802,-3.8578,-3.9945,-4.475,-4.9067,-5.2025,-5.7155,-6.089,-6.2629,-6.196,-6.3053,-6.6295,-6.6957,-6.7598,-6.9331,-7.0305,-7.0698,-7.0698,-7.0698,-7.0844,-7.0731,-7.0772,-6.933,-6.7009,-6.503,-6.4163,-6.4331,-6.4304,-6.3945,-6.3199,-6.303,-6.3561,-6.414,-6.4451,-6.4304,-6.4304,-6.428,-6.4255,-6.4304,-6.3753,-6.2233,-6.0696,-5.8652,-5.6617,-5.3625,-5.3299,-5.3221,-5.3673,-5.3928,-5.5638,-5.6316,-5.8547,-5.8677,-5.8537,-5.9176,-5.9585,-5.9098,-5.9057,-5.8928,-5.8642,-5.8064,-5.806,-5.8161,-6.0211,-6.2934,-6.3844,-6.5135,-6.6562,-3.4852,-3.5185,-3.4862,-3.4819,-3.4735,-3.4345,-3.419,-3.419,-3.419,-3.419,-3.419,-3.419,-3.419,-3.419,-3.419,-3.4501,-3.5008,-3.4683,-3.4709,-3.4995,-3.4683,-3.4384,-3.4216,-3.419,-3.419,-3.419,-3.419,-3.419,-3.4254,-3.4787,-3.5371,-3.5943,-3.6501,-3.7072,-3.7501,-3.7436,-3.689,-3.6288,-3.5473,-3.5572,-3.5897,-3.7029,-3.7694,-3.7817,-3.7644,-3.7734,-3.7942,-3.8293,-3.9303,-4.1221,-4.6679,-5.1031,-5.3982,-5.7796,-6.1205,-6.3289,-6.3253,-6.4521,-6.8339,-6.8532,-6.8935,-7.0674,-7.0698,-7.0698,-7.0833,-7.0844,-7.0781,-7.0395,-6.9526,-6.7554,-6.4989,-6.438,-6.4304,-6.4304,-6.4304,-6.4304,-6.4304,-6.4304,-6.4304,-6.4447,-6.4393,-6.4362,-6.4231,-6.3632,-6.3279,-6.3596,-6.367,-6.3126,-6.1973,-6.1236,-5.9274,-5.6669,-5.6317,-5.7262,-5.8175,-5.7851,-5.7935,-5.8154,-5.8276,-5.8325,-5.8325,-5.8764,-5.896,-5.8545,-5.8545,-5.8472,-5.8511,-5.8184,-6.0511,-6.0882,-6.2606,-6.4697,-6.521,-6.7363,-6.8574,-3.5436,-3.5839,-3.5847,-3.5322,-3.4434,-3.4407,-3.4177,-3.4586,-3.4177,-3.419,-3.419,-3.419,-3.419,-3.419,-3.4254,-3.4566,-3.5085,-3.5137,-3.515,-3.5163,-3.5073,-3.4735,-3.4216,-3.419,-3.419,-3.419,-3.419,-3.4368,-3.4625,-3.523,-3.5596,-3.6588,-3.7428,-3.7764,-3.8305,-3.7764,-3.7004,-3.6694,-3.5486,-3.4813,-3.5661,-3.7024,-3.7582,-3.7752,-3.7618,-3.7916,-3.8397,-3.8501,-4.0406,-4.4556,-4.7903,-5.2904,-5.9076,-5.9927,-6.0729,-6.2384,-6.4373,-6.632,-6.8435,-6.9766,-7.0674,-7.0698,-7.0698,-7.0857,-7.0735,-7.0707,-7.0444,-7.0401,-6.679,-6.477,-6.4307,-6.4353,-6.4304,-6.4304,-6.4255,-6.4133,-6.4158,-6.3938,-6.4133,-6.4104,-6.3919,-6.3727,-6.4008,-6.2343,-6.1927,-6.2303,-6.2571,-6.2725,-6.3241,-6.3066,-6.123,-5.9298,-5.9365,-6.031,-5.835,-5.7959,-5.791,-5.7959,-5.8008,-5.7959,-5.791,-5.7886,-5.7959,-5.7984,-5.8533,-5.8635,-5.8205,-5.9686,-6.2588,-6.448,-6.6213,-6.6782,-6.7463,-6.9618,-7.05,-3.6053,-3.5904,-3.5546,-3.6376,-3.7413,-3.5154,-3.5172,-3.677,-3.4968,-3.419,-3.419,-3.419,-3.419,-3.4241,-3.4644,-3.515,-3.5657,-3.5709,-3.5709,-3.5657,-3.5267,-3.4761,-3.4228,-3.419,-3.419,-3.419,-3.4177,-3.5185,-3.7287,-3.9862,-4.1764,-4.2084,-4.3103,-4.3529,-4.2869,-4.1406,-3.9884,-3.8742,-3.7432,-3.6501,-3.6436,-3.7268,-3.7529,-3.7072,-3.7436,-3.7903,-3.8462,-3.8877,-4.0823,-4.4821,-4.8322,-5.3179,-5.9474,-6.0175,-6.03,-6.1117,-6.5415,-6.9162,-7.096,-7.0888,-7.0698,-7.0698,-7.0698,-7.071,-7.0682,-7.0822,-6.9403,-6.6741,-6.4989,-6.438,-6.4329,-6.4304,-6.4304,-6.4231,-6.3499,-6.3084,-6.3011,-6.2327,-6.1986,-6.1913,-6.1975,-6.1866,-6.1853,-6.1449,-6.101,-6.1351,-6.1473,-6.1839,-6.2693,-6.2815,-6.2327,-6.1338,-6.0851,-6.018,-5.845,-5.7924,-5.7935,-5.7886,-5.7886,-5.7886,-5.7886,-5.7886,-5.7886,-5.8586,-5.9399,-5.9681,-5.9723,-6.3548,-6.7313,-6.8442,-6.8595,-6.842,-6.9083,-6.9189,-7.0062,-3.628,-3.6011,-3.555,-3.6654,-3.8135,-3.5537,-3.5769,-3.7765,-3.5376,-3.419,-3.419,-3.419,-3.419,-3.4421,-3.6008,-3.6416,-3.6158,-3.742,-3.742,-3.5917,-3.5592,-3.4969,-3.4254,-3.419,-3.419,-3.4177,-3.5376,-3.6553,-3.8485,-4.1525,-4.3658,-4.43,-4.5616,-4.5969,-4.4902,-4.2613,-4.1329,-4.1136,-3.8258,-3.6735,-3.7005,-3.6136,-3.5623,-3.5363,-3.6762,-3.8007,-3.876,-3.9137,-4.1774,-4.68,-4.9342,-5.3497,-5.9638,-6.0024,-6.0094,-6.0299,-6.4999,-6.8977,-7.1512,-7.104,-7.0698,-7.0698,-7.0283,-7.0353,-7.0698,-6.9182,-6.7159,-6.4867,-6.4356,-6.4304,-6.4304,-6.4304,-6.4084,-6.3596,-6.3035,-6.2449,-6.2035,-6.14,-6.068,-5.9866,-5.983,-5.9818,-5.9794,-5.9756,-5.9936,-6.0351,-6.0399,-6.079,-6.1791,-6.2352,-6.2132,-6.1535,-6.1179,-6.0082,-5.8458,-5.7954,-5.7959,-5.7886,-5.7886,-5.7886,-5.8036,-5.8287,-5.8981,-5.9129,-6.0635,-6.1571,-6.1758,-6.6608,-6.9008,-6.8941,-6.8964,-6.9208,-6.9744,-6.9867,-7.0474,-3.5764,-3.5895,-3.5652,-3.6269,-3.7344,-3.5606,-3.5972,-3.7563,-3.5376,-3.419,-3.419,-3.419,-3.419,-3.4665,-3.7895,-3.8113,-3.6386,-3.9504,-3.9302,-3.6288,-3.602,-3.5397,-3.4358,-3.428,-3.4241,-3.4586,-3.677,-3.8138,-3.8755,-4.1423,-4.3506,-4.484,-4.6255,-4.6795,-4.5637,-4.2615,-4.1859,-4.3794,-3.8185,-3.5726,-3.6942,-3.4479,-3.3005,-3.3039,-3.6047,-3.8202,-3.9358,-3.9345,-4.2856,-4.9641,-5.0762,-5.3629,-5.9342,-6.0515,-6.0787,-6.1197,-6.3996,-6.7121,-7.0508,-7.0747,-7.0625,-7.0478,-6.9649,-6.9389,-6.9674,-6.6619,-6.4431,-6.4307,-6.4329,-6.4231,-6.4158,-6.4084,-6.3596,-6.262,-6.2279,-6.1961,-6.1058,-6.079,-5.9976,-5.8102,-5.8227,-5.7867,-5.8224,-5.8167,-5.8447,-5.9277,-5.935,-5.9741,-6.0717,-6.1522,-6.1411,-6.0376,-6.0385,-5.9756,-5.8496,-5.7984,-5.7886,-5.7886,-5.7886,-5.7886,-5.8312,-5.9252,-6.0583,-6.0345,-6.2126,-6.4698,-6.6905,-6.9066,-6.9012,-6.8952,-6.9083,-6.9408,-7.0695,-7.1263,-7.2116,-3.5072,-3.5895,-3.5766,-3.5527,-3.5269,-3.6586,-3.7563,-3.7765,-3.5389,-3.419,-3.419,-3.419,-3.419,-3.4691,-3.832,-3.8477,-3.6694,-3.9954,-3.9918,-3.6837,-3.6592,-3.5968,-3.4956,-3.4878,-3.4631,-3.4625,-3.677,-3.914,-4.1375,-4.4435,-4.7601,-5.0492,-5.2251,-5.2324,-5.0747,-4.6856,-4.503,-4.4926,-3.7162,-3.2802,-3.2948,-3.2982,-3.3176,-3.3728,-3.6221,-3.8397,-3.9851,-3.9565,-4.2856,-4.9909,-5.2187,-5.5088,-5.9816,-6.2804,-6.5114,-6.6536,-6.7858,-6.966,-7.1616,-7.1162,-7.0332,-6.9551,-6.9234,-6.8129,-6.6154,-6.4819,-6.4451,-6.4329,-6.4304,-6.3938,-6.323,-6.3035,-6.2571,-6.1473,-6.0692,-6.0336,-5.9838,-5.9082,-5.8368,-5.807,-5.79,-5.7979,-5.7954,-5.7833,-5.8057,-5.8301,-5.8276,-5.8691,-5.9594,-6.0009,-5.9696,-5.8827,-5.861,-5.8474,-5.8127,-5.7948,-5.7935,-5.7886,-5.7886,-5.8036,-5.8312,-5.9546,-6.0609,-6.1275,-6.3383,-6.6241,-6.8281,-6.9027,-6.8993,-6.8928,-6.9003,-6.9467,-7.0963,-7.2086,-7.3712,-3.521,-3.6707,-3.6197,-3.5391,-3.4377,-3.7021,-3.8153,-3.775,-3.5389,-3.419,-3.419,-3.419,-3.419,-3.4473,-3.8461,-3.8616,-3.621,-4.0109,-4.0114,-3.68,-3.6787,-3.6176,-3.515,-3.5073,-3.4761,-3.4407,-3.8153,-4.0703,-4.2544,-4.6807,-5.0243,-5.2346,-5.3797,-5.3797,-5.2241,-4.7708,-4.554,-4.5662,-3.5703,-2.984,-2.8223,-2.9,-3.0041,-3.1195,-3.442,-3.7246,-3.9345,-3.9566,-4.2776,-4.9299,-5.2521,-5.5471,-5.8085,-6.2411,-6.7051,-7.206,-7.0274,-6.9896,-7.2096,-7.1284,-7.0234,-6.9185,-6.8648,-6.7179,-6.4503,-6.4356,-6.4304,-6.4304,-6.4304,-6.3816,-6.2742,-6.2596,-6.201,-6.0497,-6.0563,-6.0553,-6.0053,-5.9429,-5.9575,-6.0172,-5.8982,-5.791,-5.7886,-5.7886,-5.8032,-5.8545,-5.8154,-5.813,-5.8667,-5.8789,-5.8538,-5.8038,-5.7966,-5.7966,-5.7917,-5.7954,-5.7935,-5.7886,-5.7886,-5.8312,-5.9277,-6.0635,-6.2126,-6.3079,-6.545,-6.7662,-6.8639,-6.8957,-6.9026,-6.9037,-6.9022,-6.9965,-7.1805,-7.3457,-7.5239,-3.5928,-3.7541,-3.6223,-3.5618,-3.5506,-3.6859,-3.7765,-3.7966,-3.5376,-3.419,-3.419,-3.419,-3.419,-3.4434,-3.8599,-3.8773,-3.6223,-4.0011,-4.0086,0.0,-3.6903,-3.6345,-3.5332,-3.5241,-3.4891,-3.473,-3.9555,-4.2267,-4.2954,-4.8355,-5.1823,-5.2544,-5.3475,-5.3551,-5.2335,-4.7061,-4.4252,-4.4235,-3.3582,-2.6684,-2.4178,-2.4781,-2.5933,-2.7916,-3.1985,-3.5385,-3.8308,-3.9665,-4.2811,-4.8213,-5.219,-5.4603,-5.5899,-6.1374,-6.7948,-7.5062,-7.0974,-6.8868,-7.1366,-7.0747,-6.9893,-6.9112,-6.794,-6.6157,-6.4015,-6.4133,-6.4304,-6.4304,-6.4304,-6.3792,-6.2571,-6.2352,-6.1498,-5.9773,-6.0955,-6.1539,-6.0258,-6.032,-6.101,-6.1919,-5.9677,-5.7886,-5.7886,-5.7963,-5.8232,-5.8813,-5.813,-5.7739,-5.791,-5.7886,-5.7886,-5.7886,-5.7959,-5.7881,-5.7851,-5.7881,-5.7979,-5.8106,-5.8309,-5.9006,-6.02,-6.2293,-6.407,-6.5745,-6.7434,-6.8888,-6.9518,-6.9281,-6.9379,-7.0273,-7.0834,-7.1349,-7.3227,-7.4886,-7.632,-3.7319,-3.7587,-3.5397,-3.6884,-4.0492,-3.6492,-3.6162,-3.7952,0.0,0.0,0.0,-3.419,-3.419,-3.4421,-3.8891,-3.9108,-3.6184,-3.9575,-3.9904,-3.7488,-3.7501,-3.7137,-3.6475,-3.6007,-3.5475,-3.5113,-3.9781,-4.2267,-4.2528,-4.9093,-5.2374,-5.2639,-5.4044,-5.4367,-5.3386,-4.7844,-4.2708,-3.7757,-2.9102,-2.4339,-2.3874,-2.4047,-2.5131,-2.7401,-3.1238,-3.4959,-3.8394,-4.0084,-4.348,-4.8844,-5.0236,-5.253,-5.642,-6.352,-6.8964,-7.1578,-6.8517,-6.7055,-6.8177,-6.7781,-6.795,-6.8883,-6.7306,-6.4528,-6.0952,-6.3002,-6.4304,-6.4304,-6.4304,-6.3474,-6.1522,-6.1302,-6.0473,-5.8423,-5.9823,-6.0309,-5.8759,-5.9668,-6.0251,-5.9032,-5.841,-5.7886,-5.7861,-5.7893,-5.8017,-5.8036,-5.73,-5.6812,-5.7666,-5.7837,-5.7813,-5.7935,-5.7869,-5.7901,-5.7949,-5.8103,-5.8224,-5.9033,-5.9679,-6.0251,-6.1015,-6.3356,-6.545,-6.6143,-6.7722,-6.9488,-7.0873,-7.0365,-7.0213,-7.3346,-7.5256,-7.6197,-7.5612,-7.6455,-7.7628,-3.7659,0.0,-3.5817,-3.6192,0.0,-3.5261,-3.4968,-3.5972,-3.4777,-3.419,-3.419,-3.419,-3.419,-3.4421,-3.6919,-3.7327,-3.5968,-3.8001,-3.8375,-3.7644,-3.7644,-3.7332,-3.6774,-3.6215,-3.6244,-3.7084,-4.0443,-4.2856,-4.4341,-4.9849,-5.2298,-5.1918,-5.3987,-5.393,-5.1797,-4.8705,-4.2128,-3.1892,-2.6531,-2.3238,-2.164,-2.1942,-2.4161,-2.7991,0.0,0.0,0.0,0.0,0.0,0.0,0.0,0.0,0.0,0.0,0.0,-6.8142,-6.5698,-6.4116,-6.3993,-6.4043,-6.438,-6.5058,-6.4164,-6.2381,-5.9356,-6.0869,-6.2682,-6.4172,-6.4329,-6.3442,-6.1339,-6.0546,-5.9619,-5.8281,-5.9521,-6.032,-5.9546,-6.0055,-5.9903,-5.8336,-5.7917,-5.7914,-5.7893,-5.7869,-5.777,-5.7155,-5.6568,-5.6666,-5.7617,-5.7447,-5.7325,-5.7837,-5.7837,-5.8238,-5.9269,-5.9521,-5.957,-5.9504,-6.0127,-6.1,-6.1844,-6.4316,-6.6407,-6.7564,-6.8966,-7.0388,-7.1655,-7.2832,-7.4068,-7.6061,-7.8045,-7.9183,-7.9209,-7.8931,-7.9009,-3.7543,-3.7312,-3.6223,-3.5082,-3.4126,-3.4228,-3.419,-3.419,-3.419,-3.419,-3.419,-3.419,-3.419,-3.4203,-3.4592,-3.5124,-3.5787,-3.6137,-3.6657,-3.7319,-3.7319,-3.7124,-3.6748,-3.6098,-3.7027,-3.9271,-4.1431,-4.3675,-4.6281,-5.0718,-5.2412,-5.1823,-5.393,-5.3272,-4.9761,0.0,0.0,0.0,-2.4793,-2.1942,-1.9431,-2.0106,-2.2945,-2.8147,-2.9634,0.0,-3.8629,-4.3386,-4.6879,-4.8666,-5.4546,0.0,0.0,0.0,0.0,0.0,0.0,0.0,0.0,0.0,0.0,0.0,-6.0257,-5.9492,-5.8215,-5.9102,-6.0832,-6.3166,-6.3951,-6.3181,-6.0546,-5.9342,-5.8417,-5.7691,-5.9219,-6.026,-6.02,-6.0465,-5.992,-5.8155,-5.7869,-5.7966,-5.777,-5.7105,-5.6445,-5.5958,-5.5763,-5.5958,-5.6436,-5.6346,-5.6518,-5.7215,-5.7668,-5.8798,-6.1337,-6.1206,-6.0697,-6.089,-6.1176,-6.2263,-6.4009,-6.57,-6.7305,-6.8995,-7.0629,-7.1776,-7.3053,-7.5819,-7.8161,-7.8689,-8.0167,-8.1679,-8.2362,-8.108,-7.9699,-3.7031,-3.6127,-3.4926,-3.4359,-3.4224,-3.4178,-3.419,-3.419,-3.419,-3.419,-3.419,-3.419,-3.419,-3.4164,-3.4205,-3.4612,-3.515,-3.4709,-3.5098,-3.615,-3.6163,-3.6384,-3.6735,-3.5696,-3.664,-3.9686,-4.2148,-4.4637,-4.7284,-5.1534,-5.3569,-5.3513,-5.45,-5.2964,-4.8779,-4.4362,-3.7987,-2.9871,-2.3067,-1.9497,-1.9033,-1.9228,-2.1807,-2.6562,-2.8517,-3.2054,-3.7627,-4.3357,-4.7319,-4.9312,-5.599,-6.2146,-6.7178,-6.6522,-6.39,0.0,-5.609,0.0,0.0,0.0,0.0,0.0,0.0,0.0,0.0,-5.872,-6.0024,-6.0328,-6.2848,-6.256,-5.8014,-5.6828,-5.6322,-5.647,-5.8112,-5.9064,-5.8487,-5.9668,-6.003,-5.8164,-5.7837,-5.7966,-5.7621,-5.4649,-5.3136,-5.4449,-5.4054,-5.3228,-5.2791,-5.4499,-5.5585,-5.5092,-5.6673,-5.8685,-6.1931,-6.1864,-6.1849,-6.43,-6.4551,-6.5081,-6.7002,-6.8072,-6.9083,-7.0691,-7.2077,-7.3944,-7.6646,-7.8787,-8.0549,-8.1414,-8.2428,-8.3327,-8.3447,-8.0912,-7.8351,-3.7098,-3.5819,-3.4597,-3.3856,-3.3202,-3.2038,-3.2469,-3.3735,-3.4047,-3.419,-3.4164,-3.3826,-3.3527,-3.348,-3.3732,-3.3859,-3.4073,-3.3826,-3.4164,-3.4956,-3.4956,-3.528,-3.5774,-3.4657,-3.6794,-4.156,-4.2534,-4.4993,-4.8822,-5.1197,-5.2146,-5.1728,-5.1038,-4.8376,-4.3934,-4.0287,-3.5029,-2.8319,-2.3796,-2.0722,-1.9086,-1.9086,-2.1981,-2.7805,-2.9154,-3.2608,-3.8911,-4.5293,-4.8956,-4.9443,-5.6264,-6.1738,-6.5095,-6.4043,-6.0661,0.0,0.0,0.0,0.0,0.0,0.0,0.0,0.0,0.0,0.0,0.0,-5.7984,0.0,-5.6687,0.0,-5.5664,-5.5206,-5.4697,-5.421,-5.4442,-5.4769,-5.5223,-5.6069,-5.6559,-5.6226,-5.7156,-5.7401,-5.6157,-5.3365,-5.1891,-5.2697,-5.1711,-5.0837,-5.0685,-5.1702,-5.2649,-5.2524,-5.3459,-5.5125,-5.6775,-5.9286,-6.2126,-6.5046,-6.622,-6.7197,-6.883,-6.958,-7.0904,-7.3006,-7.4681,-7.6395,-7.8726,-8.1078,-8.2735,-8.3342,-8.3579,-8.3335,-8.216,-7.9771,-7.7619,-3.6902,-3.5748,-3.4334,-3.2739,-3.0926,-2.9928,-3.0695,-3.2355,-3.352,-3.3904,-3.3748,-3.3249,-3.293,-3.25,-3.245,-3.267,-3.293,-3.2774,-3.3099,-3.3748,-3.3761,-3.4086,-3.4605,-3.3605,-3.6395,-4.2184,-4.2508,-4.4999,-4.9585,-5.0568,-5.0451,-4.9262,-4.5895,-4.2594,-3.9148,-3.7029,-3.2839,-2.6621,-2.4942,-2.2555,-1.9086,-1.9086,-2.2239,-2.8869,-2.953,-3.3054,-3.9522,-4.6384,-4.9739,-4.9194,-5.5374,-5.9361,-6.0297,-5.956,0.0,0.0,0.0,0.0,0.0,0.0,0.0,0.0,0.0,-4.6346,-4.6623,0.0,-5.2304,0.0,-5.0202,-5.3863,-5.2955,-5.2539,0.0,0.0,-5.0829,-5.0944,-5.204,-5.2778,-5.3269,-5.3773,-5.5414,-5.5823,-5.4146,-5.2559,-5.1357,-5.1138,-4.9986,-4.9112,-4.8725,-4.9206,-4.9775,-4.9827,-4.9739,-5.0156,-5.2018,-5.6985,-6.2385,-6.613,-6.7941,-6.9442,-7.0786,-7.1271,-7.2354,-7.5159,-7.7061,-7.8706,-8.08,-8.3126,-8.4515,-8.3691,-8.255,-8.1239,-7.9491,-7.7819,-7.6472,-3.6937,-3.5808,-3.3394,-3.0461,-2.7123,-2.8762,-2.9354,-2.9365,-3.2329,-3.3112,-3.2657,-3.3125,-3.2487,-3.0796,-3.0238,0.0,0.0,-3.1216,-3.1567,-3.2605,-3.2605,-3.2917,-3.3423,-3.2826,-3.5537,-4.1027,-4.2041,-4.4742,-4.8734,-4.9654,-4.943,-4.7781,-3.9599,-3.5862,-3.6601,-3.5106,-3.1617,-2.5977,-2.5328,-2.3176,-1.9086,-1.9086,-2.2132,-2.8215,-2.885,-3.2163,-3.8386,-4.505,-4.8536,-4.8634,-5.2973,-5.4654,-5.3332,0.0,0.0,0.0,0.0,0.0,0.0,0.0,0.0,0.0,0.0,0.0,0.0,0.0,0.0,0.0,-4.4632,0.0,-4.9513,-4.815,0.0,0.0,0.0,-4.9123,-4.9637,-5.0871,-5.1748,-5.1831,0.0,0.0,0.0,0.0,-5.1064,-5.0005,-4.9554,-4.8369,-4.5942,-4.7652,-4.8907,-4.7952,-4.5948,-4.6407,-5.1888,-5.7342,-6.3057,-6.8588,-7.0702,-7.1833,-7.3595,-7.3377,-7.3844,-7.6634,-7.8437,-8.0355,-8.3354,-8.4768,-8.54,-8.1627,-7.8551,-7.625,-7.5979,-7.4753,-7.3768,-3.459,-2.9483,-2.5749,-2.4327,-2.4684,-2.3995,-2.464,-2.6254,-2.9308,-3.001,-2.8837,-3.0475,-3.0556,-2.9492,-2.8429,0.0,0.0,0.0,-3.0177,-3.093,-3.0943,-3.1424,-3.2242,-3.1709,-3.451,-4.0196,-4.1087,-4.2789,-4.5907,-4.619,-4.4239,-3.9955,0.0,0.0,-3.3258,-2.992,-2.796,-2.7098,-2.3394,-2.0653,-1.9082,-1.9007,-2.2117,-2.8167,-2.8801,-3.2979,-4.0675,-4.578,-4.8468,-4.8713,-5.2736,-5.2934,0.0,0.0,0.0,0.0,0.0,0.0,0.0,0.0,0.0,0.0,0.0,-4.0068,0.0,0.0,0.0,0.0,-4.1955,-4.5662,-4.6453,-4.7845,0.0,0.0,0.0,0.0,0.0,0.0,0.0,-4.5585,-4.9112,-5.1429,-5.1453,-5.104,-5.0605,-5.0184,-4.8237,-4.6217,-4.4486,0.0,-4.6011,-4.6687,-4.5823,-4.7309,-5.391,-5.8398,-6.3153,-6.9303,-7.1127,-7.2502,-7.494,-7.394,-7.3897,-7.6434,-7.706,-7.8106,-8.1519,-8.0607,-7.9159,-7.8929,-7.5992,-7.3455,-7.294,-7.1623,-7.0485,-2.9028,0.0,0.0,0.0,0.0,-2.0275,-2.0913,-2.3062,-2.6152,-2.6874,-2.5975,-2.7234,0.0,0.0,0.0,0.0,0.0,0.0,-2.9294,-2.9684,-3.0021,-3.0515,-3.1125,-3.0907,-3.33,-3.8353,-3.8735,-4.008,-4.189,-4.0732,-3.76,-3.2686,0.0,0.0,0.0,0.0,-2.6382,-2.6194,-2.3563,-2.0983,-1.9159,-1.8954,-2.1648,-2.6989,-2.914,-3.4144,-4.2178,-4.5369,-4.7485,-4.8465,-5.0715,0.0,0.0,0.0,0.0,0.0,0.0,0.0,0.0,0.0,0.0,0.0,0.0,0.0,0.0,0.0,0.0,0.0,0.0,0.0,-4.4418,-4.6386,-4.6484,0.0,0.0,0.0,0.0,0.0,0.0,0.0,0.0,0.0,-5.2307,-5.1325,-5.0207,0.0,0.0,-4.5369,-4.3665,-4.3648,-4.4234,-4.5671,0.0,0.0,0.0,-5.7795,-6.2315,-6.8815,-7.0314,-7.174,-7.4949,-7.3948,-7.3252,-7.5302,-7.5355,-7.5068,-7.541,-7.3012,-7.2288,-7.4283,-7.2257,-6.9602,-6.8944,-6.8179,-6.7313,0.0,0.0,0.0,0.0,0.0,0.0,0.0,0.0,-2.2626,-2.4052,0.0,-2.3605,0.0,0.0,0.0,0.0,0.0,0.0,0.0,0.0,-3.0177,-3.0463,-3.0008,-3.0315,-3.1909,-3.4369,-3.5085,-3.61,-3.7414,-3.3425,0.0,0.0,0.0,0.0,0.0,0.0,-2.8222,-2.225,-2.6924,-2.6239,-1.9384,-1.9182,-2.0722,-2.3982,-2.9762,-3.5697,-4.1709,-4.3392,-4.4833,-4.6814,-4.5923,0.0,0.0,0.0,0.0,0.0,0.0,0.0,0.0,0.0,0.0,0.0,0.0,0.0,0.0,0.0,0.0,0.0,0.0,0.0,0.0,-4.3057,0.0,0.0,0.0,0.0,0.0,0.0,0.0,0.0,0.0,0.0,-5.414,-5.2198,-5.0014,-4.7934,0.0,0.0,0.0,0.0,-4.4382,-4.4843,-4.8403,-5.0893,-5.0722,-5.489,-6.0461,-6.7262,0.0,0.0,-7.3491,-7.3262,-7.214,-7.2089,-7.3375,-7.2275,-6.4467,-6.3078,-6.4384,-6.8309,-6.672,-6.4289,-6.376,-6.4307,-6.4312,0.0,0.0,0.0,0.0,0.0,0.0,0.0,0.0,0.0,0.0,0.0,-1.9984,0.0,0.0,0.0,0.0,0.0,0.0,0.0,0.0,-2.8385,-2.8853,-2.9359,-2.9169,-3.0321,0.0,-3.2535,-3.1789,0.0,0.0,0.0,0.0,0.0,0.0,0.0,0.0,-2.8399,-2.8574,-2.6767,-2.3759,-1.9432,-2.1595,-2.3312,-2.3748,-2.9752,-3.5997,-4.2008,-4.2981,-4.4078,0.0,0.0,0.0,0.0,0.0,0.0,0.0,0.0,0.0,0.0,0.0,0.0,0.0,0.0,0.0,0.0,0.0,0.0,0.0,0.0,0.0,0.0,0.0,-4.4828,0.0,0.0,0.0,0.0,0.0,0.0,0.0,0.0,0.0,-5.2122,-4.9682,-4.7559,-4.7351,-4.6153,-4.4949,-4.3586,0.0,0.0,0.0,0.0,0.0,0.0,0.0,-5.7785,-6.1713,-6.3342,-6.5297,-6.8638,-6.8791,-6.8215,-6.7321,0.0,0.0,-5.7739,-5.9973,-6.3252,-6.4401,-6.2086,-6.0378,-6.1455,-6.1221,-6.114,0.0,0.0,0.0,0.0,0.0,0.0,0.0,0.0,0.0,-1.7303,-1.6963,0.0,0.0,0.0,0.0,0.0,0.0,0.0,0.0,0.0,0.0,0.0,-2.8203,-2.8007,0.0,0.0,0.0,0.0,0.0,0.0,0.0,0.0,0.0,0.0,0.0,0.0,-2.9064,-3.1209,-2.7567,-2.3982,-2.0962,-2.3821,-2.5891,-2.6739,-3.0901,-3.5388,-4.0522,0.0,0.0,0.0,0.0,0.0,0.0,0.0,0.0,0.0,0.0,0.0,0.0,0.0,0.0,0.0,0.0,0.0,0.0,0.0,0.0,0.0,0.0,0.0,0.0,0.0,-4.5457,0.0,0.0,0.0,0.0,0.0,0.0,0.0,0.0,0.0,0.0,0.0,-4.5453,-4.5662,-4.5062,-4.4476,-4.3703,-4.5542,-4.7648,0.0,0.0,0.0,0.0,0.0,0.0,0.0,0.0,0.0,0.0,0.0,0.0,0.0,0.0,-5.7739,-5.3528,-5.6605,-5.9943,-5.9976,0.0,0.0,0.0,0.0,0.0,0.0,0.0,0.0,0.0,0.0,0.0,0.0,0.0,0.0,0.0,0.0,0.0,0.0,0.0,0.0,0.0,0.0,0.0,0.0,0.0,0.0,0.0,0.0,0.0,0.0,0.0,0.0,0.0,0.0,0.0,0.0,0.0,0.0,0.0,0.0,0.0,0.0,-2.9563,-2.9304,-2.7522,-2.4055,-2.4959,-2.7964,-3.2754,-3.3199,-3.4533,-3.7392,0.0,0.0,0.0,0.0,0.0,0.0,0.0,0.0,0.0,0.0,0.0,0.0,0.0,0.0,0.0,0.0,0.0,0.0,0.0,0.0,0.0,0.0,0.0,0.0,0.0,0.0,-4.179,-4.2169,-4.1382,0.0,0.0,0.0,0.0,0.0,0.0,0.0,0.0,0.0,0.0,-4.4581,-4.5102,-4.3501,-4.579,-4.8018,-4.867,-5.3106,-5.6784,-5.755,-5.488,-5.3732,0.0,0.0,0.0,0.0,0.0,0.0,0.0,0.0,0.0,0.0,0.0,0.0,0.0,0.0,0.0,0.0,0.0,0.0,0.0,0.0,0.0,0.0,0.0,0.0,0.0,0.0,0.0,0.0,0.0,0.0,0.0,0.0,0.0,0.0,0.0,0.0,0.0,0.0,0.0,0.0,0.0,0.0,0.0,0.0,0.0,0.0,0.0,0.0,0.0,0.0,0.0,0.0,0.0,0.0,-2.8777,-2.6511,-2.9797,-2.7876,-2.033,-2.9144,-3.3713,-3.321,-3.5139,-3.6859,0.0,0.0,0.0,0.0,0.0,0.0,0.0,0.0,0.0,0.0,0.0,0.0,0.0,0.0,0.0,0.0,0.0,0.0,0.0,0.0,0.0,0.0,0.0,0.0,0.0,0.0,0.0,0.0,-4.3582,-4.3276,-4.1178,0.0,0.0,0.0,0.0,0.0,0.0,0.0,0.0,0.0,0.0,-4.4036,-4.571,-4.7531,-4.9465,-5.1466,-5.3223,-5.4624,-5.5439,-5.4744,-5.5011,-5.8221,0.0,0.0,0.0,0.0,0.0,0.0,0.0,0.0,0.0,0.0,0.0,0.0,0.0,0.0,0.0,0.0,0.0,0.0,0.0,0.0,0.0,0.0,0.0,0.0,0.0,0.0,0.0,0.0,0.0,0.0,0.0,0.0,0.0,0.0,0.0,0.0,0.0,0.0,0.0,0.0,0.0,0.0,0.0,0.0,0.0,0.0,0.0,0.0,0.0,0.0,0.0,0.0,0.0,-2.8276,-2.5825,-3.0222,-2.9793,-2.4125,-3.2452,-3.6587,-3.4839,-3.6798,-3.824,0.0,0.0,0.0,0.0,0.0,0.0,0.0,0.0,0.0,0.0,0.0,0.0,0.0,0.0,0.0,0.0,0.0,0.0,0.0,0.0,0.0,0.0,0.0,0.0,0.0,0.0,0.0,0.0,-4.2331,-4.248,-4.2583,0.0,0.0,0.0,0.0,0.0,0.0,0.0,0.0,0.0,0.0,-4.3626,-4.6204,-4.8081,0.0,0.0,-5.2832,-5.3125,-5.4432,-5.5399,-5.6324,-5.7559,-5.6433,0.0,0.0,0.0,0.0,0.0,0.0,0.0,0.0,0.0,0.0,0.0,0.0,0.0,0.0,0.0,0.0,0.0,0.0,0.0,0.0,0.0,0.0,0.0,0.0,0.0,0.0,0.0,0.0,0.0,0.0,0.0,0.0,0.0,0.0,0.0,0.0,0.0,0.0,0.0,0.0,0.0,0.0,0.0,0.0,0.0,0.0,0.0,0.0,0.0,0.0,0.0,0.0,0.0,-2.679,-3.0931,-3.2532,-3.1612,-3.4881,-3.7082,-3.7618,-3.8114,-3.8644,0.0,0.0,0.0,0.0,0.0,0.0,0.0,0.0,0.0,0.0,0.0,0.0,0.0,0.0,0.0,0.0,0.0,0.0,0.0,0.0,0.0,0.0,0.0,0.0,0.0,0.0,0.0,0.0,0.0,0.0,0.0,0.0,0.0,0.0,0.0,0.0,0.0,0.0,0.0,0.0,0.0,-4.3683,-4.5686,-4.7661,-4.9933,0.0,0.0,-5.2111,-5.4212,-5.6416,-5.7425,-5.5778,0.0,0.0,0.0,0.0,0.0,0.0,0.0,0.0,0.0,0.0,0.0,0.0,0.0,0.0,0.0,0.0,0.0,0.0,0.0,0.0,0.0,0.0,0.0,0.0,0.0,0.0,0.0,0.0,0.0,0.0,0.0,0.0,0.0,0.0,0.0,0.0,0.0,0.0,0.0,0.0,0.0,0.0,0.0,0.0,0.0,0.0,0.0,0.0,0.0,0.0,0.0,0.0,0.0,0.0,-2.6086,-3.0607,-3.2437,-3.1343,-3.516,-3.7569,-3.7843,-3.7958,0.0,0.0,0.0,0.0,0.0,0.0,0.0,0.0,0.0,0.0,0.0,0.0,0.0,0.0,0.0,0.0,0.0,0.0,0.0,0.0,0.0,0.0,0.0,0.0,0.0,0.0,0.0,-3.7842,0.0,0.0,0.0,0.0,0.0,0.0,0.0,0.0,0.0,0.0,0.0,0.0,0.0,0.0,-4.333,-4.7911,-4.808,-4.9105,0.0,0.0,-5.1298,-5.3424,-5.6126,-5.7224,0.0,0.0,0.0,0.0,0.0,0.0,0.0,0.0,0.0,0.0,0.0,0.0,0.0,0.0,0.0,0.0,0.0,0.0,0.0,0.0,0.0,0.0,0.0,0.0,0.0,0.0,0.0,0.0,0.0,0.0,0.0,0.0,0.0,0.0,0.0,0.0,0.0,0.0,0.0,0.0,0.0,0.0,0.0,0.0,0.0,0.0,0.0,0.0,0.0,0.0,0.0,0.0,0.0,0.0,-2.8099,-2.5928,-3.0716,-3.2552,-3.1147,-3.4985,-3.7451,-3.7644,-3.8259,-3.931,0.0,0.0,0.0,0.0,0.0,0.0,0.0,0.0,0.0,0.0,0.0,0.0,0.0,0.0,0.0,0.0,0.0,0.0,0.0,0.0,0.0,0.0,0.0,0.0,0.0,0.0,0.0,0.0,0.0,0.0,0.0,0.0,0.0,0.0,0.0,0.0,0.0,0.0,0.0,0.0,0.0,0.0,-4.8388,-4.8323,0.0,0.0,0.0,-5.0287,-5.2708,0.0,0.0,0.0,0.0,0.0,0.0,0.0,0.0,0.0,0.0,0.0,0.0,0.0,0.0,0.0,0.0,0.0,0.0,0.0,0.0,0.0,0.0,0.0,0.0,0.0,0.0,0.0,0.0,0.0,0.0,0.0,0.0,0.0,0.0,0.0,0.0,0.0,0.0,0.0,0.0,0.0,0.0,0.0,0.0,0.0,0.0,0.0,0.0,0.0,0.0,0.0,0.0,0.0,0.0,0.0,0.0,0.0,-2.6405,-3.0798,-3.2657,-3.15,-3.4872,-3.7124,-3.7618,-3.8531,-3.9785,0.0,0.0,0.0,0.0,0.0,0.0,0.0,0.0,0.0,0.0,0.0,0.0,0.0,0.0,0.0,0.0,0.0,0.0,0.0,0.0,0.0,0.0,0.0,0.0,0.0,0.0,0.0,0.0,0.0,0.0,0.0,0.0,0.0,0.0,0.0,0.0,0.0,0.0,0.0,0.0,0.0,-4.5935,-4.8128,-4.8712,-4.9407,0.0,0.0,0.0,-5.1965,-5.5431,0.0,0.0,0.0,0.0,0.0,0.0,0.0,0.0,0.0,0.0,0.0,0.0,0.0,0.0,0.0,0.0,0.0,0.0,0.0,0.0,0.0,0.0,0.0,0.0,0.0,0.0,0.0,0.0,0.0,0.0,0.0,0.0,0.0,0.0,0.0,0.0,0.0,0.0,0.0,0.0,0.0,0.0,0.0,0.0,0.0,0.0,0.0,0.0,0.0,0.0,0.0,0.0,0.0,0.0,0.0,0.0,-2.8629,-3.1531,-3.3216,-3.3559,-3.6179,-3.7527,-3.7618,-3.8268,-3.9365,0.0,0.0,0.0,0.0,0.0,0.0,0.0,0.0,0.0,0.0,0.0,0.0,0.0,0.0,0.0,0.0,0.0,0.0,0.0,0.0,0.0,0.0,0.0,0.0,0.0,0.0,0.0,0.0,0.0,0.0,0.0,0.0,0.0,0.0,0.0,0.0,0.0,0.0,0.0,0.0,0.0,-4.6147,-5.004,-4.8762,0.0,0.0,0.0,0.0,-5.102,-5.4482,0.0,0.0,0.0,0.0,0.0,0.0,0.0,0.0,0.0,0.0,0.0,0.0,0.0,0.0,0.0,0.0,0.0,0.0,0.0,0.0,0.0,0.0,0.0,0.0,0.0,0.0,0.0,0.0,0.0,0.0,0.0,0.0,0.0,0.0,0.0,0.0,0.0,0.0,0.0,0.0,0.0,0.0,0.0,0.0,0.0,0.0,0.0,0.0,0.0,0.0,0.0,0.0,0.0,0.0,0.0,0.0,-2.9457,-3.1789,-3.3702,-3.4717,-3.6693,-3.7644,-3.7856,-3.945,-4.0536,0.0,0.0,0.0,0.0,0.0,0.0,0.0,0.0,0.0,0.0,0.0,0.0,0.0,0.0,0.0,0.0,0.0,0.0,0.0,0.0,0.0,0.0,0.0,0.0,0.0,0.0,0.0,0.0,0.0,0.0,0.0,0.0,0.0,0.0,0.0,0.0,0.0,0.0,0.0,0.0,-4.56,-4.6836,-4.8969,0.0,0.0,0.0,0.0,0.0,0.0,-5.1147,-5.2308,0.0,0.0,0.0,0.0,0.0,0.0,0.0,0.0,0.0,0.0,0.0,0.0,0.0,0.0,0.0,0.0,0.0,0.0,0.0,0.0,0.0,0.0,0.0,0.0,0.0,0.0,0.0,0.0,0.0,0.0,0.0,0.0,0.0,0.0,0.0,0.0,0.0,0.0,0.0,0.0,0.0,0.0,0.0,0.0,0.0,0.0,0.0,0.0,0.0,0.0,0.0,0.0,0.0,0.0,0.0,-2.9501,-3.1789,-3.3728,-3.5373,-3.6925,-3.7644,-3.7856,-4.0533,-4.1543,-4.0443,0.0,0.0,0.0,0.0,0.0,0.0,0.0,0.0,0.0,0.0,0.0,0.0,0.0,0.0,0.0,0.0,0.0,0.0,0.0,0.0,0.0,0.0,0.0,0.0,0.0,0.0,0.0,0.0,0.0,0.0,0.0,0.0,0.0,0.0,0.0,0.0,0.0,0.0,0.0,-4.5857,-4.7314,0.0,0.0,0.0,0.0,0.0,0.0,0.0,0.0,-4.976,0.0,0.0,0.0,0.0,0.0,0.0,0.0,0.0,0.0,0.0,0.0,0.0,0.0,0.0,0.0,0.0,0.0,0.0,0.0,0.0,0.0,0.0,0.0,0.0,0.0,0.0,0.0,0.0,0.0,0.0,0.0,0.0,0.0,0.0,0.0,0.0,0.0,0.0,0.0,0.0,0.0,0.0,0.0,0.0,0.0,0.0,0.0,0.0,0.0,0.0,0.0,0.0,0.0,0.0,0.0,0.0,-3.1789,-3.3728,-3.5413,-3.6938,-3.7644,-3.7644,-3.9024,-3.9475,0.0,0.0,0.0,0.0,0.0,0.0,0.0,0.0,0.0,0.0,0.0,0.0,0.0,0.0,0.0,0.0,0.0,0.0,0.0,0.0,0.0,0.0,0.0,0.0,0.0,0.0,0.0,0.0,0.0,0.0,0.0,0.0,0.0,0.0,0.0,0.0,0.0,0.0,0.0,-4.3565,-4.5089,0.0,0.0,0.0,0.0,0.0,0.0,0.0,0.0,-4.8838,0.0,0.0,0.0,0.0,0.0,0.0,0.0,0.0,0.0,0.0,0.0,0.0,0.0,0.0,0.0,0.0,0.0,0.0,0.0,0.0,0.0,0.0,0.0,0.0,0.0,0.0,0.0,0.0,0.0,0.0,0.0,0.0,0.0,0.0,0.0,0.0,0.0,0.0,0.0,0.0,0.0,0.0,0.0,0.0,0.0,0.0,0.0,0.0,0.0,0.0,0.0,0.0,0.0,0.0,0.0,0.0,0.0,0.0,-3.3407,-3.5373,-3.6406,-3.7332,-3.7817,-3.8625,-3.8804,0.0,0.0,0.0,0.0,0.0,0.0,0.0,0.0,0.0,0.0,0.0,0.0,0.0,0.0,0.0,0.0,0.0,0.0,0.0,0.0,0.0,0.0,0.0,0.0,0.0,0.0,0.0,0.0,0.0,0.0,0.0,0.0,0.0,0.0,0.0,0.0,0.0,0.0,0.0,0.0,0.0,0.0,0.0,0.0,0.0,0.0,0.0,0.0,0.0,0.0,0.0,0.0,0.0,0.0,0.0,0.0,0.0,0.0,0.0,0.0,0.0,0.0,0.0,0.0,0.0,0.0,0.0,0.0,0.0,0.0,0.0,0.0,0.0,0.0,0.0,0.0,0.0,0.0,0.0,0.0,0.0,0.0,0.0,0.0,0.0,0.0,0.0,0.0,0.0,0.0,0.0,0.0,0.0,0.0,0.0,0.0,0.0,0.0,0.0,0.0,0.0,0.0,0.0,0.0,0.0,0.0,0.0,0.0,-3.3138,-3.5114,-3.6132,-3.6772,-3.7436,-3.7831,-3.7717,0.0,0.0,0.0,0.0,0.0,0.0,0.0,0.0,0.0,0.0,0.0,0.0,0.0,0.0,0.0,0.0,0.0,0.0,0.0,0.0,0.0,0.0,0.0,0.0,0.0,0.0,0.0,0.0,0.0,0.0,0.0,0.0,0.0,0.0,0.0,0.0,0.0,0.0,0.0,0.0,0.0,0.0,0.0,0.0,0.0,0.0,0.0,0.0,-4.5657,0.0,0.0,0.0,0.0,0.0,0.0,0.0,0.0,0.0,0.0,0.0,0.0,0.0,0.0,0.0,0.0,0.0,0.0,0.0,0.0,0.0,0.0,0.0,0.0,0.0,0.0,0.0,0.0,0.0,0.0,0.0,0.0,0.0,0.0,0.0,0.0,0.0,0.0,0.0,0.0,0.0,0.0,0.0,0.0,0.0,0.0,0.0,0.0,0.0,0.0,0.0,0.0,0.0,0.0,0.0,0.0,0.0,0.0,0.0,-3.3592,-3.4407,-3.5878,-3.68,-3.68,-3.6027,-3.5608,0.0,0.0,0.0,0.0,0.0,0.0,0.0,0.0,0.0,0.0,0.0,0.0,0.0,0.0,0.0,0.0,0.0,0.0,0.0,0.0,0.0,0.0,0.0,0.0,0.0,0.0,0.0,0.0,0.0,0.0,0.0,0.0,0.0,0.0,0.0,0.0,0.0,0.0,0.0,0.0,0.0,0.0,0.0,0.0,0.0,0.0,0.0,0.0,0.0,0.0,0.0,0.0,0.0,0.0,0.0,0.0,0.0,0.0,0.0,0.0,0.0,0.0,0.0,0.0,0.0,0.0,0.0,0.0,0.0,0.0,0.0,0.0,0.0,0.0,0.0,0.0,0.0,0.0,0.0,0.0,0.0,0.0,0.0,0.0,0.0,0.0,0.0,0.0,0.0,0.0,0.0,0.0,0.0,0.0,0.0,0.0,0.0,0.0,0.0,0.0,0.0,0.0,0.0,0.0,0.0,0.0,0.0,0.0,-3.2631,-3.319,-3.4553,-3.5124,-3.4787,-3.4545,-3.4446,0.0,0.0,0.0,0.0,0.0,0.0,0.0,0.0,0.0,0.0,0.0,0.0,0.0,0.0,0.0,0.0,0.0,0.0,0.0,0.0,0.0,0.0,0.0,0.0,0.0,0.0,0.0,0.0,0.0,0.0,0.0,0.0,0.0,0.0,0.0,0.0,0.0,0.0,0.0,0.0,0.0,0.0,0.0,0.0,0.0,0.0,0.0,0.0,0.0,0.0,0.0,0.0,0.0,0.0,0.0,0.0,0.0,0.0,0.0,0.0,0.0,0.0,0.0,0.0,0.0,0.0,0.0,0.0,0.0,0.0,0.0,0.0,0.0,0.0,0.0,0.0,0.0,0.0,0.0,0.0,0.0,0.0,0.0,0.0,0.0,0.0,0.0,0.0,0.0,0.0,0.0,0.0,0.0,0.0,0.0,0.0,0.0,0.0,0.0,0.0,0.0,0.0,0.0,0.0,0.0,0.0,0.0,0.0,0.0,-3.2463,-3.3151,-3.3375,-3.2657,-3.3143,-3.3493,0.0,0.0,0.0,0.0,0.0,0.0,0.0,0.0,0.0,0.0,0.0,0.0,0.0,0.0,0.0,0.0,0.0,0.0,0.0,0.0,0.0,0.0,0.0,0.0,0.0,0.0,0.0,0.0,0.0,0.0,0.0,0.0,0.0,0.0,0.0,0.0,0.0,0.0,0.0,0.0,0.0,0.0,0.0,0.0,0.0,0.0,0.0,0.0,0.0,0.0,0.0,0.0,0.0,0.0,0.0,0.0,0.0,0.0,0.0,0.0,0.0,0.0,0.0,0.0,0.0,0.0,0.0,0.0,0.0,0.0,0.0,0.0,0.0,0.0,0.0,0.0,0.0,0.0,0.0,0.0,0.0,0.0,0.0,0.0,0.0,0.0,0.0,0.0,0.0,0.0,0.0,0.0,0.0,0.0,0.0,0.0,0.0,0.0,0.0,0.0,0.0,0.0,0.0,0.0,0.0,0.0,0.0,0.0,0.0,-3.2463,-3.2008,-3.1468,-3.0759,-3.1882,-3.236,0.0,0.0,0.0,0.0,0.0,0.0,0.0,0.0,0.0,0.0,0.0,0.0,0.0,0.0,0.0,0.0,0.0,0.0,0.0,0.0,0.0,0.0,0.0,0.0,0.0,0.0,0.0,0.0,0.0,0.0,0.0,0.0,0.0,0.0,0.0,0.0,0.0,0.0,0.0,0.0,0.0,0.0,0.0,0.0,0.0,0.0,0.0,0.0,0.0,0.0,0.0,0.0,0.0,0.0,0.0,0.0,0.0,0.0,0.0,0.0,0.0,0.0,0.0,0.0,0.0,0.0,0.0,0.0,0.0,0.0,0.0,0.0,0.0,0.0,0.0,0.0,0.0,0.0,0.0,0.0,0.0,0.0,0.0,0.0,0.0,0.0,0.0,0.0,0.0,0.0,0.0,0.0,0.0,0.0,0.0,0.0,0.0,0.0,0.0,0.0,0.0,0.0,0.0,0.0,0.0,0.0,0.0,0.0,0.0,-3.1385,-3.1203,-3.1076,-3.1205,-3.1375,-3.1829,-3.2191,0.0,0.0,0.0,0.0,0.0,0.0,0.0,0.0,0.0,0.0,0.0,0.0,0.0,0.0,0.0,0.0,0.0,0.0,0.0,0.0,0.0,0.0,0.0,0.0,0.0,0.0,0.0,0.0,0.0,0.0,0.0,0.0,0.0,0.0,0.0,0.0,0.0,0.0,0.0,0.0,0.0,0.0,0.0,0.0,0.0,0.0,0.0,0.0,0.0,0.0,0.0,0.0,0.0,0.0,0.0,0.0,0.0,0.0,0.0,0.0,0.0,0.0,0.0,0.0,0.0,0.0,0.0,0.0,0.0,0.0,0.0,0.0,0.0,0.0,0.0,0.0,0.0,0.0,0.0,0.0,0.0,0.0,0.0,0.0,0.0,0.0,0.0,0.0,0.0,0.0,0.0,0.0,0.0,0.0,0.0,0.0,0.0,0.0,0.0,0.0,0.0,0.0,0.0,0.0,0.0,0.0,0.0,0.0,-3.0761,-3.0761,-3.088,-3.1414,-3.1346,-3.1785,0.0,0.0,0.0,0.0,0.0,0.0,0.0,0.0,0.0,0.0,0.0,0.0,0.0,0.0,0.0,0.0,0.0,0.0,0.0,0.0,0.0,0.0,0.0,0.0,0.0,0.0,0.0,0.0,0.0,0.0,0.0,0.0,0.0,0.0,0.0,0.0,0.0,0.0,0.0,0.0,0.0,0.0,0.0,0.0,0.0,0.0,0.0,0.0,0.0,0.0,0.0,0.0,0.0,0.0,0.0,0.0,0.0,0.0,0.0,0.0,0.0,0.0,0.0,0.0,0.0,0.0,0.0,0.0,0.0,0.0,0.0,0.0,0.0,0.0,0.0,0.0,0.0,0.0,0.0,0.0,0.0,0.0,0.0,0.0,0.0,0.0,0.0,0.0,0.0,0.0,0.0,0.0,0.0,0.0,0.0,0.0,0.0,0.0,0.0,0.0,0.0,0.0,0.0,0.0,0.0,0.0,0.0,0.0,0.0,-3.0761,-3.0761,-3.088,-3.1375,-3.1502,-3.2088,0.0,0.0,0.0,0.0,0.0,0.0,0.0,0.0,0.0,0.0,0.0,0.0,0.0,0.0,0.0,0.0,0.0,0.0,0.0,0.0,0.0,0.0,0.0,0.0,0.0,0.0,0.0,0.0,0.0,0.0,0.0,0.0,0.0,0.0,0.0,0.0,0.0,0.0,0.0,0.0,0.0,0.0,0.0,0.0,0.0,0.0,0.0,0.0,0.0,0.0,0.0,0.0,0.0,0.0,0.0,0.0,0.0,0.0,0.0,0.0,0.0,0.0,0.0,0.0,0.0,0.0,0.0,0.0,0.0,0.0,0.0,0.0,0.0,0.0,0.0,0.0,0.0,0.0,0.0,0.0,0.0,0.0,0.0,0.0,0.0,0.0,0.0,0.0,0.0,0.0,0.0,0.0,0.0,0.0,0.0,0.0,0.0,0.0,0.0,0.0,0.0,0.0,0.0,0.0,0.0,0.0,0.0,0.0,0.0,-3.0749,0.0,-3.088,0.0,-3.1521,-3.1954,0.0,0.0,0.0,0.0,0.0,0.0,0.0,0.0,0.0,0.0,0.0,0.0,0.0,0.0,0.0,0.0,0.0,0.0,0.0,0.0,0.0,0.0,0.0,0.0,0.0,0.0,0.0,0.0,0.0,0.0,0.0,0.0,0.0,0.0,0.0,0.0,0.0,0.0,0.0,0.0,0.0,0.0,0.0,0.0,0.0,0.0,0.0,0.0,0.0,0.0,0.0,0.0,0.0,0.0,0.0,0.0,0.0,0.0,0.0,0.0,0.0,0.0,0.0,0.0,0.0,0.0,0.0,0.0,0.0,0.0,0.0,0.0,0.0,0.0,0.0,0.0,0.0,0.0,0.0,0.0,0.0,0.0,0.0,0.0,0.0,0.0,0.0,0.0,0.0,0.0,0.0,0.0,0.0,0.0,0.0,0.0,0.0,0.0,0.0,0.0,0.0,0.0,0.0,0.0,0.0,0.0,0.0,0.0,0.0,-3.0749,-3.0761,-3.0972,0.0,-3.1456,-3.1971,0.0,0.0,0.0,0.0,0.0,0.0,0.0,0.0,0.0,0.0,0.0,0.0,0.0,0.0,0.0,0.0,0.0,0.0,0.0,0.0,0.0,0.0,0.0,0.0,0.0,0.0,0.0,0.0,0.0,0.0,0.0,0.0,0.0,0.0,0.0,0.0,0.0,0.0,0.0,0.0,0.0,0.0,0.0,0.0,0.0,0.0,0.0,0.0,0.0,0.0,0.0,0.0,0.0,0.0,0.0,0.0,0.0,0.0,0.0,0.0,0.0,0.0,0.0,0.0,0.0,0.0,0.0,0.0,0.0,0.0,0.0,0.0,0.0,0.0,0.0,0.0,0.0,0.0,0.0,0.0,0.0,0.0,0.0,0.0,0.0,0.0,0.0,0.0,0.0,0.0,0.0,0.0,0.0,0.0,0.0,0.0,0.0,0.0,0.0,0.0,0.0,0.0,0.0,0.0,0.0,0.0,0.0,0.0,0.0,0.0,-3.0736,-3.0933,-3.1511,-3.1279,-3.1972,0.0,0.0,0.0,0.0,0.0,0.0,0.0,0.0,0.0,0.0,0.0,0.0,0.0,0.0,0.0,0.0,0.0,0.0,0.0,0.0,0.0,0.0,0.0,0.0,0.0,0.0,0.0,0.0,0.0,0.0,0.0,0.0,0.0,0.0,0.0,0.0,0.0,0.0,0.0,0.0,0.0,0.0,0.0,0.0,0.0,0.0,0.0,0.0,0.0,0.0,0.0,0.0,0.0,0.0,0.0,0.0,0.0,0.0,0.0,0.0,0.0,0.0,0.0,0.0,0.0,0.0,0.0,0.0,0.0,0.0,0.0,0.0,0.0,0.0,0.0,0.0,0.0,0.0,0.0,0.0,0.0,0.0,0.0,0.0,0.0,0.0,0.0,0.0,0.0,0.0,0.0,0.0,0.0,0.0,0.0,0.0,0.0,0.0,0.0,0.0,0.0,0.0,0.0,0.0,0.0,0.0,0.0,0.0,0.0,0.0,-3.0372,0.0,-3.088,-3.1089,-3.1657,-3.2814,0.0,0.0,0.0,0.0,0.0,0.0,0.0,0.0,0.0,0.0,0.0,0.0,0.0,0.0,0.0,0.0,0.0,0.0,0.0,0.0,0.0,0.0,0.0,0.0,0.0,0.0,0.0,0.0,0.0,0.0,0.0,0.0,0.0,0.0,0.0,0.0,0.0,0.0,0.0,0.0,0.0,0.0,0.0,0.0,0.0,0.0,0.0,0.0,0.0,0.0,0.0,0.0,0.0,0.0,0.0,0.0,0.0,0.0,0.0,0.0,0.0,0.0,0.0,0.0,0.0,0.0,0.0,0.0,0.0,0.0,0.0,0.0,0.0,0.0,0.0,0.0,0.0,0.0,0.0,0.0,0.0,0.0,0.0,0.0,0.0,0.0,0.0,0.0,0.0,0.0,0.0,0.0,0.0,0.0,0.0,0.0,0.0,0.0,0.0,0.0,0.0,0.0,0.0,0.0,0.0,0.0,0.0,0.0,0.0,0.0,0.0,-3.0761,-3.0833,-3.1304,0.0,0.0,0.0,0.0,0.0,0.0,0.0,0.0,0.0,0.0,0.0,0.0,0.0,0.0,0.0,0.0,0.0,0.0,0.0,0.0,0.0,0.0,0.0,0.0,0.0,0.0,0.0,0.0,0.0,0.0,0.0,0.0,0.0,0.0,0.0,0.0,0.0,0.0,0.0,0.0,0.0,0.0,0.0,0.0,0.0,0.0,0.0,0.0,0.0,0.0,0.0,0.0,0.0,0.0,0.0,0.0,0.0,0.0,0.0,0.0,0.0,0.0,0.0,0.0,0.0,0.0,0.0,0.0,0.0,0.0,0.0,0.0,0.0,0.0,0.0,0.0,0.0,0.0,0.0,0.0,0.0,0.0,0.0,0.0,0.0,0.0,0.0,0.0,0.0,0.0,0.0,0.0,0.0,0.0,0.0,0.0,0.0,0.0,0.0,0.0,0.0,0.0,0.0,0.0,0.0,0.0,0.0,0.0,0.0,0.0,0.0,-3.0813,-3.0761,-3.0761,0.0,-3.203,0.0,0.0,0.0,0.0,0.0,0.0,0.0,0.0,0.0,0.0,0.0,0.0,0.0,0.0,0.0,0.0,0.0,0.0,0.0,0.0,0.0,0.0,0.0,0.0,0.0,0.0,0.0,0.0,0.0,0.0,0.0,0.0,0.0,0.0,0.0,0.0,0.0,0.0,0.0,0.0,0.0,0.0,0.0,0.0,0.0,0.0,0.0,0.0,0.0,0.0,0.0,0.0,0.0,0.0,0.0,0.0,0.0,0.0,0.0,0.0,0.0,0.0,0.0,0.0,0.0,0.0,0.0,0.0,0.0,0.0,0.0,0.0,0.0,0.0,0.0,0.0,0.0,0.0,0.0,0.0,0.0,0.0,0.0,0.0,0.0,0.0,0.0,0.0,0.0,0.0,0.0,0.0,0.0,0.0,0.0,0.0,0.0,0.0,0.0,0.0,0.0,0.0,0.0,0.0,0.0,0.0,0.0,0.0,0.0,0.0,0.0,0.0,-3.0761,-3.0604,-3.0317,0.0,0.0,0.0,0.0,0.0,0.0,0.0,0.0,0.0,0.0,0.0,0.0,0.0,0.0,0.0,0.0,0.0,0.0,0.0,0.0,0.0,0.0,0.0,0.0,0.0,0.0,0.0,0.0,0.0,0.0,0.0,0.0,0.0,0.0,0.0,0.0,0.0,0.0,0.0,0.0,0.0,0.0,0.0,0.0,0.0,0.0,0.0,0.0,0.0,0.0,0.0,0.0,0.0,0.0,0.0,0.0,0.0,0.0,0.0,0.0,0.0,0.0,0.0,0.0,0.0,0.0,0.0,0.0,0.0,0.0,0.0,0.0,0.0,0.0,0.0,0.0,0.0,0.0,0.0,0.0,0.0,0.0,0.0,0.0,0.0,0.0,0.0,0.0,0.0,0.0,0.0,0.0,0.0,0.0,0.0,0.0,0.0,0.0,0.0,0.0,0.0,0.0,0.0,0.0,0.0,0.0,0.0,0.0,0.0,0.0,-3.0756,-3.08,-3.0761,-3.0242,-2.9487,0.0,0.0,0.0,0.0,0.0,0.0,0.0,0.0,0.0,0.0,0.0,0.0,0.0,0.0,0.0,0.0,0.0,0.0,0.0,0.0,0.0,0.0,0.0,0.0,0.0,0.0,0.0,0.0,0.0,0.0,0.0,0.0,0.0,0.0,0.0,0.0,0.0,0.0,0.0,0.0,0.0,0.0,0.0,0.0,0.0,0.0,0.0,0.0,0.0,0.0,0.0,0.0,0.0,0.0,0.0,0.0,0.0,0.0,0.0,0.0,0.0,0.0,0.0,0.0,0.0,0.0,0.0,0.0,0.0,0.0,0.0,0.0,0.0,0.0,0.0,0.0,0.0,0.0,0.0,0.0,0.0,0.0,0.0,0.0,0.0,0.0,0.0,0.0,0.0,0.0,0.0,0.0,0.0,0.0,0.0,0.0,0.0,0.0,0.0,0.0,0.0,0.0,0.0,0.0,0.0,0.0,0.0,0.0,0.0,0.0,0.0,0.0,0.0,0.0,-2.9313,0.0,0.0,0.0,0.0,0.0,0.0,0.0,0.0,0.0,0.0,0.0,0.0,0.0,0.0,0.0,0.0,0.0,0.0,0.0,0.0,0.0,0.0,0.0,0.0,0.0,0.0,0.0,0.0,0.0,0.0,0.0,0.0,0.0,0.0,0.0,0.0,0.0,0.0,0.0,0.0,0.0,0.0,0.0,0.0,0.0,0.0,0.0,0.0,0.0,0.0,0.0,0.0,0.0,0.0,0.0,0.0,0.0,0.0,0.0,0.0,0.0,0.0,0.0,0.0,0.0,0.0,0.0,0.0,0.0,0.0,0.0,0.0,0.0,0.0,0.0,0.0,0.0,0.0,0.0,0.0,0.0,0.0,0.0,0.0,0.0,0.0,0.0,0.0,0.0,0.0,0.0,0.0,0.0,0.0,0.0,0.0,0.0,0.0,0.0,0.0,0.0,0.0,0.0,0.0,0.0,0.0,0.0,0.0,0.0,0.0,0.0,0.0,0.0,0.0,0.0,0.0,0.0,0.0,0.0,0.0,0.0,0.0,0.0,0.0,0.0,0.0,0.0,0.0,0.0,0.0,0.0,0.0,0.0,0.0,0.0,0.0,0.0,0.0,0.0,0.0,0.0,0.0,0.0,0.0,0.0,0.0,0.0,0.0,0.0,0.0,0.0,0.0,0.0,0.0,0.0,0.0,0.0,0.0,0.0,0.0,0.0,0.0,0.0,0.0,0.0,0.0,0.0,0.0,0.0,0.0,0.0,0.0,0.0,0.0,0.0,0.0,0.0,0.0,0.0,0.0,0.0,0.0,0.0,0.0,0.0,0.0,0.0,0.0,0.0,0.0,0.0,0.0,0.0,0.0,0.0,0.0,0.0,0.0,0.0,0.0,0.0,0.0,0.0,0.0,0.0,0.0,0.0,0.0,0.0,0.0,0.0,0.0,0.0,0.0,0.0,0.0,0.0,0.0,0.0,0.0,0.0,0.0,0.0,0.0,0.0,0.0,0.0,0.0,0.0,0.0,0.0,0.0,0.0,0.0,0.0,0.0,0.0,0.0,0.0,0.0,0.0,0.0,0.0,0.0,0.0,0.0,0.0,0.0,0.0,0.0,0.0,0.0,0.0,0.0,0.0,0.0,0.0,0.0,0.0,0.0,0.0,0.0,0.0,0.0,0.0,0.0,0.0,0.0,0.0,0.0,0.0,0.0,0.0,0.0,0.0,0.0,0.0,0.0,0.0,0.0,0.0,0.0,0.0,0.0,0.0,0.0,0.0,0.0,0.0,0.0,0.0,0.0,0.0,0.0,0.0,0.0,0.0,0.0,0.0,0.0,0.0,0.0,0.0,0.0,0.0,0.0,0.0,0.0,0.0,0.0,0.0,0.0,0.0,0.0,0.0,0.0,0.0,0.0,0.0,0.0,0.0,0.0,0.0,0.0,0.0,0.0,0.0,0.0,0.0,0.0,0.0,0.0,0.0,0.0,0.0,0.0,0.0,0.0,0.0,0.0,0.0,0.0,0.0,0.0,0.0,0.0,0.0,0.0,0.0,0.0,0.0,0.0,0.0,0.0,0.0,0.0,0.0,0.0,0.0,0.0,0.0,0.0,0.0,0.0,0.0,0.0,0.0,0.0,0.0,0.0,0.0,0.0,0.0,0.0,0.0,0.0,0.0,0.0,0.0,0.0,0.0,0.0,0.0,0.0,0.0,0.0,0.0,0.0,0.0,0.0,0.0,0.0,0.0,0.0,0.0,0.0,0.0,0.0,0.0,0.0,0.0,0.0,0.0,0.0,0.0,0.0,0.0,0.0,0.0,0.0,0.0,0.0,0.0,0.0,0.0,0.0,0.0,0.0,0.0,0.0,0.0,0.0,0.0,0.0,0.0,0.0,0.0,0.0,0.0,0.0,0.0,0.0,0.0,0.0,0.0,0.0,0.0,0.0,0.0,0.0,0.0,0.0,0.0,0.0,0.0,0.0,0.0,0.0,0.0,0.0,0.0,0.0,0.0,0.0,0.0,0.0,0.0,0.0,0.0,0.0,0.0,0.0,0.0,0.0,0.0,0.0,0.0,0.0,0.0,0.0,0.0,0.0,0.0,0.0,0.0,0.0,0.0,0.0,0.0,0.0,0.0,0.0,0.0,0.0,0.0,0.0,0.0,0.0,0.0,0.0,0.0,0.0,0.0,0.0,0.0,0.0,0.0,0.0,0.0,0.0,0.0,0.0,0.0,0.0,0.0,0.0,0.0,0.0,0.0,0.0,0.0,0.0,0.0,0.0,0.0,0.0,0.0,0.0,0.0,0.0,0.0,0.0,0.0,0.0,0.0,0.0,0.0,0.0,0.0,0.0,0.0,0.0,0.0,0.0,0.0,0.0,0.0,0.0,0.0,0.0,0.0,0.0,0.0,0.0,0.0,0.0,0.0,0.0,0.0,0.0,0.0,0.0,0.0,0.0,0.0,0.0,0.0,0.0,0.0,0.0,0.0,0.0,0.0,0.0,0.0,0.0,0.0,0.0,0.0,0.0,0.0,0.0,0.0,0.0,0.0,0.0,0.0,0.0,0.0,0.0,0.0,0.0,0.0,0.0,0.0,0.0,0.0,0.0,0.0,0.0,0.0,0.0,0.0,0.0,0.0,0.0,0.0,0.0,0.0,0.0,0.0,0.0,0.0,0.0,0.0,0.0,0.0,0.0,0.0,0.0,0.0,0.0,0.0,0.0,0.0,0.0,0.0,0.0,0.0,0.0,0.0,0.0,0.0,0.0,0.0,0.0,0.0,0.0,0.0,0.0,0.0,0.0,0.0,0.0,0.0,0.0,0.0,0.0,0.0,0.0,0.0,0.0,0.0,0.0,0.0,0.0,0.0,0.0,0.0,0.0,0.0,0.0,0.0,0.0,0.0,0.0,0.0,0.0,0.0,0.0,0.0,0.0,0.0,0.0,0.0,0.0,0.0,0.0,0.0,0.0,0.0,0.0,0.0,0.0,0.0,0.0,0.0,0.0,0.0,0.0,0.0,0.0,0.0,0.0,0.0,0.0,0.0,0.0,0.0,0.0,0.0,0.0,0.0,0.0,0.0,0.0,0.0,0.0,0.0,0.0,0.0,0.0,0.0,0.0,0.0,0.0,0.0,0.0,0.0,0.0,0.0,0.0,0.0,0.0,0.0,0.0,0.0,0.0,0.0,0.0,0.0,0.0,0.0,0.0,0.0,0.0,0.0,0.0,0.0,0.0,0.0,0.0,0.0,0.0,0.0,0.0,0.0,0.0,0.0,0.0,0.0,0.0,0.0,0.0,0.0,0.0,0.0,0.0,0.0,0.0,0.0,0.0,0.0,0.0,0.0,0.0,0.0,0.0,0.0,0.0,0.0,0.0,0.0,0.0,0.0,0.0,0.0,0.0,0.0,0.0,0.0,0.0,0.0,0.0,0.0,0.0,0.0,0.0,0.0,0.0,0.0,0.0,0.0,0.0,0.0,0.0,0.0,0.0,0.0,0.0,0.0,0.0,0.0,0.0,0.0,0.0,0.0,0.0,0.0,0.0,0.0,0.0,0.0,0.0,0.0,0.0,0.0,0.0,0.0,0.0,0.0,0.0,0.0,0.0,0.0,0.0,0.0,0.0,0.0,0.0,0.0,0.0,0.0,0.0,0.0,0.0,0.0,0.0,0.0,0.0,0.0,0.0,0.0,0.0,0.0,0.0,0.0,0.0,0.0,0.0,0.0,0.0,0.0,0.0,0.0,0.0,0.0,0.0,0.0,0.0,0.0,0.0,0.0,0.0,0.0,0.0,0.0,0.0,0.0,0.0,0.0,0.0,0.0,0.0,0.0,0.0,0.0,0.0,0.0,0.0,0.0,0.0,0.0,0.0,0.0,0.0,0.0,0.0,0.0,0.0,0.0,0.0,0.0,0.0,0.0,0.0,0.0,0.0,0.0,0.0,0.0,0.0,0.0,0.0,0.0,0.0,0.0,0.0,0.0,0.0,0.0,0.0,0.0,0.0,0.0,0.0,0.0,0.0,0.0,0.0,0.0,0.0,0.0,0.0,0.0,0.0,0.0,0.0,0.0,0.0,0.0,0.0,0.0,0.0,0.0,0.0,0.0,0.0,0.0,0.0,0.0,0.0,0.0,0.0,0.0,0.0,0.0,0.0,0.0,0.0,0.0,0.0,0.0,0.0,0.0,0.0,0.0,0.0,0.0,0.0,0.0,0.0,0.0,0.0,0.0,0.0,0.0,0.0,0.0,0.0,0.0,0.0,0.0,0.0,0.0,0.0,0.0,0.0,0.0,0.0,0.0,0.0,0.0,0.0,0.0,0.0,0.0,0.0,0.0,0.0,0.0,0.0,0.0,0.0,0.0,0.0,0.0,0.0]}]]]